     2              OBSERVATION DATA    GPS                 RINEX VERSION / TYPE
teqc 2000Jul20 Karen Wendt 20020723 19:54:24UTC             PGM / RUN BY / DATE
                                                            COMMENT
L2: 1 -> 1; 150 -> 5; 250 -> 9                              COMMENT
L2: 1 -> 1; 150 -> 5; 250 -> 9                              COMMENT
L2: 1 -> 1; 150 -> 5; 250 -> 9                              COMMENT
L2: 1 -> 1; 150 -> 5; 250 -> 9                              COMMENT
L2: 1 -> 1; 150 -> 5; 250 -> 9                              COMMENT
L2: 1 -> 1; 150 -> 5; 250 -> 9                              COMMENT
L2: 1 -> 1; 150 -> 5; 250 -> 9                              COMMENT
L2: 1 -> 1; 150 -> 5; 250 -> 9                              COMMENT
L2: 1 -> 1; 150 -> 5; 250 -> 9                              COMMENT
L2: 1 -> 1; 150 -> 5; 250 -> 9                              COMMENT
L2: 1 -> 1; 150 -> 5; 250 -> 9                              COMMENT
L2: 1 -> 1; 150 -> 5; 250 -> 9                              COMMENT
L2: 1 -> 1; 150 -> 5; 250 -> 9                              COMMENT
L2: 1 -> 1; 150 -> 5; 250 -> 9                              COMMENT
Original Marker Name: cerr Cerro_Gordo_1934_USC&GS          COMMENT
Campaign Name: Post-Hector                                  COMMENT
4-Character Station Name: CERR                              COMMENT
6-Character Antenna Code: DMRCHT                            COMMENT
Vertical Measurement Point: BCR                             COMMENT
Vertical Offset to Rinex Ref. Point: 0.0348                 COMMENT
Radial Measurement Point: ECF                               COMMENT
Radial Offset to Rinex Ref. Point: 0.1897                   COMMENT
Antenna Height from Field Measurement: 0.5320 m             COMMENT
Additional Antenna Identification Info.:                    COMMENT
Turborogue and Ashtech Choke Ring                           COMMENT
Original XYZ: -2392857.4301 -4541062.0304 3777952.8829      COMMENT
New XYZ position is based on association with SCEC monument COMMENT
E1G0A3W0+0011. Position of that monument is believed to be  COMMENT
valid to within 1 m horizontally; vertical accuracy         COMMENT
should be no worse than 3-times this value.                 COMMENT
                                                            COMMENT
Revised Rinex header created by UCSD GPS archive for        COMMENT
GSAC on 11-Jul-2003 (2003:192) 17:07:21 GMT                 COMMENT
For assistance contact dagnew@ucsd.edu                      COMMENT
or anderson@python.ucsd.edu                                 COMMENT
                                                            COMMENT
CERRO GORDO 1934                                            MARKER NAME
JLS US GEOLOGICAL SURVEY                                    OBSERVER / AGENCY
LP03192 ASHTECH Z-XII3 CD00                                 REC # / TYPE / VERS
CR16376 DORNE-MARGOL. TYPE T                                ANT # / TYPE
 -2392880.7334 -4541046.3407  3777947.0290                  APPROX POSITION XYZ
        0.4622        0.0000        0.0000                  ANTENNA: DELTA H/E/N
     1     1     0                                          WAVELENGTH FACT L1/2
     5    C1    L1    L2    P1    P2                        # / TYPES OF OBSERV
    30                                                      INTERVAL
  2002     7    11    17     3   30.000000                  TIME OF FIRST OBS
  2002     7    11    23    59    0.000000                  TIME OF LAST OBS
                                                            END OF HEADER
 02  7 11 17  3 30.0000000  0  8G21G18G17G15G29G26G23G 6
  22260054.865     -252258.05759   -179641.37546  22260054.015
  22260063.064     -136798.44059    -98041.71343
  20628183.733     -100446.53259    -71061.27547  20628183.146    20628190.488
  20492245.022     -140731.08159    -99393.94847  20492244.185    20492251.558
  23502472.862       73528.64659     52845.68845  23502471.957
  23502480.298       57285.81049     41095.54543
  23129905.149      109981.50059     78094.34346  23129904.840    23129913.222
  22244141.754      141730.93059    101240.08046  22244141.202    22244150.537
 02  7 11 17  4  0.0000000  0 10G21G 2G18G17G15G29G26G23G22G 6
  22242428.054     -344888.73549   -251821.06346  22242427.018
  22242436.024     -135653.31759    -16124.30343
                   -186240.21949    -15693.25746                  20461631.259
  20621255.532     -136854.86349    -99431.42247  20621254.892    20621262.263
  20482528.997     -191787.31349   -139178.03747  20482528.541    20482535.888
  23507822.891      101644.66149     74754.23245  23507822.314
  23507830.741       79343.15549      7074.95845                  22483677.076
  23137632.628      150587.91249    109735.64046  23137631.961    23137640.415
                     44080.80359     31393.38543
  22254232.010      194755.88149    142558.08746  22254231.596    22254240.889
 02  7 11 17  4 30.0000000  0 11G21G 2G18G17G15G29G26G23G22G 6G 3
  22143206.919     -866298.75149   -658114.52546  22143206.008
  22143214.916     -598407.57549   -376712.47543
  20370649.226     -664325.71549   -388227.39147  20370648.943    20370654.802
  20532727.594     -602072.52649   -461938.69747  20532726.929    20532734.319
  20391217.613     -671632.96149   -513083.75847  20391217.004    20391224.335
  23431606.241     -298876.42849   -237340.16445  23431605.706    23431614.166
  22406326.336     -327097.57949   -309632.13446  22406326.084    22406334.230
  23063727.984     -237784.62049   -192892.37546  23063727.194    23063735.662
                   -370311.91249   -325079.28843
  22182736.741     -180954.54849   -150203.42546  22182736.281    22182745.623
  23523782.801     -823432.62159   -623450.55845  23523781.945    23523791.408
 02  7 11 17  5  0.0000000  0 11G21G 2G18G17G15G29G26G23G22G 6G 3
  22133080.777     -919511.25449   -699578.75847  22133080.007
  22133088.853     -592823.27949   -372361.03544                  24695858.446
  20368793.269     -674079.26749   -395827.54147  20368792.908    20368798.749
  20533289.005     -599122.53849   -459640.00747  20533288.330    20533295.698
  20388999.346     -683290.46049   -522167.52147  20388998.640    20389005.996
  23444510.999     -231061.50949   -184497.41845  23444510.543    23444518.921
  22418131.026     -265063.28649   -261293.76046  22418130.891    22418138.944
  23078879.492     -158162.80949   -130849.46246  23078878.764    23078887.269
                   -316458.99549   -283116.02044                  24068032.579
  22200344.001      -88427.89149    -78104.87046  22200343.622    22200352.966
  23506734.590     -913020.01549   -693258.85445  23506733.787    23506743.500
 02  7 11 17  5 30.0000000  0 11G21G 2G18G17G15G29G26G23G22G 6G 3
  22123006.738     -972450.48749   -740830.04947  22123006.051    22123014.820
  24696989.025     -586825.56449   -367687.58245  24696988.341    24697001.328
  20367014.825     -683425.40549   -403110.23547  20367014.409    20367020.247
  20533896.897     -595928.12049   -457150.86647  20533896.200    20533903.585
  20386831.383     -694683.47449   -531045.18647  20386830.651    20386838.017
  23457493.823     -162836.32649   -131334.96645  23457493.415    23457501.769
  22430040.246     -202479.80249   -212527.45646  22430040.147    22430048.223
  23094044.283      -78471.46949    -68752.37746  23094043.586    23094052.080
  24078330.736     -262286.45249   -240903.79745  24078329.849    24078342.590
  22218010.620        4410.68449     -5763.26546  22218010.291    22218019.689
  23489738.334    -1002335.15549   -762855.01045  23489737.953    23489747.405
 02  7 11 17  6  0.0000000  0 11G21G 2G18G17G15G29G26G23G22G 6G 3
  22112984.419    -1025118.08249   -781869.68147  22112983.750    22112992.508
  24698208.597     -580416.53449   -362693.64545  24698208.146    24698219.774
  20365313.425     -692366.55549   -410077.36147  20365312.967    20365318.824
  20534551.244     -592489.64749   -454471.55747  20534550.557    20534557.959
  20384713.689     -705812.16649   -539716.87647  20384712.947    20384720.319
  23470554.094      -94204.24649    -77855.46145  23470553.734    23470562.084
  22442053.387     -139350.56949   -163335.87846  22442053.320    22442061.372
  23109221.775        1286.46149     -6603.41646  23109221.149    23109229.560
  24088699.631     -207798.18749   -198445.53945  24088699.370    24088711.183
  22235735.982       97557.70649     66818.69946  22235735.670    22235745.124
  23472794.202    -1091376.92749   -832238.16045  23472793.883    23472803.289
 02  7 11 17  6 30.0000000  0 11G21G 2G18G17G15G29G26G23G22G 6G 3
  22103014.078    -1077512.42249   -822696.39347  22103013.442    22103022.189
  24699506.468     -573596.53459   -357379.66445  24699505.159    24699517.993
  20363689.289     -700901.81349   -416728.22147  20363688.822    20363694.657
  20535252.469     -588804.81449   -451600.27747  20535251.791    20535259.230
  20382646.720     -716674.36049   -548180.92147  20382645.948    20382653.333
  23483691.816      -25165.40249    -24058.99245  23483691.449    23483699.728
  22454170.265      -75676.11849   -113719.46446  22454170.201    22454178.303
  23124411.992       81111.13649     55597.56846  23124411.323    23124419.793
  24099128.363     -152995.35459   -155742.19645  24099126.801    24099139.169
  22253520.010      191012.68749    139640.60846  22253519.679    22253529.171
  23455902.888    -1180141.18049   -901405.05545  23455902.577    23455911.983
 02  7 11 17  7  0.0000000  0 11G21G 2G18G17G15G29G26G23G22G 6G 3
  22093095.662    -1129634.00949   -863310.55846  22093095.038    22093103.779
  24700882.641     -566365.64259   -351745.38644  24700881.265    24700893.459
  20362142.007     -709032.99549   -423064.21747  20362141.523    20362147.372
  20536000.577     -584873.59749   -448537.01047  20535999.913    20536007.343
  20380630.424     -727270.22349   -556437.43947  20380629.654    20380637.040
  23496906.270       44276.81549     30051.78845  23496905.930    23496914.253
  22466390.326      -11459.73949    -63680.76646  22466390.221    22466398.385
  23139614.481      161000.19649    117848.71646  23139613.778    23139622.241
  24109616.302      -97881.49259   -112796.46045  24109615.120    24109627.491
  22271362.051      284772.53749    212700.09146  22271361.706    22271371.264
  23439064.725    -1268626.25649   -970354.40345  23439064.444    23439073.816
 02  7 11 17  7 30.0000000  0 11G21G 2G18G17G15G29G26G23G22G 6G 3
  22083229.083    -1181482.99749   -903712.32046  22083228.489    22083237.269
  24702336.561     -558726.03049   -345792.50645  24702335.249    24702347.352
  20360671.530     -716760.57449   -429085.69547  20360671.031    20360676.892
  20536795.707     -580695.46049   -445281.33747  20536795.053    20536802.461
  20378664.966     -737599.03849   -564485.86247  20378664.174    20378671.584
  23510197.051      114120.23449     84475.19545  23510196.779    23510205.103
  22478713.047       53296.27349    -13221.56846  22478712.911    22478721.105
  23154828.919      240952.21849    180148.95846  23154828.186    23154836.728
  24120162.871      -42459.26849    -69610.47245  24120161.410    24120174.218
  22289261.714      378835.01449    285995.38646  22289261.335    22289270.904
  23422280.195    -1356829.60749  -1039084.24045  23422279.863    23422289.322
 02  7 11 17  8  0.0000000  0 11G21G 2G18G17G15G29G26G23G22G 6G 3
  22073414.438    -1233059.27349   -943901.58347  22073413.844    22073422.656
  24703868.004     -550678.20349   -339521.57845  24703866.769    24703878.897
  20359277.744     -724085.23149   -434793.21947  20359277.226    20359283.103
  20537638.072     -576268.92249   -441832.11447  20537637.409    20537644.839
  20376750.531     -747659.71249   -572325.34947  20376749.740    20376757.153
  23523563.917      184363.34549    139210.05245  23523563.645    23523571.996
  22491138.019      118590.00449     37656.62146  22491137.929    22491146.140
  23170055.075      320965.96549    242497.25046  23170054.395    23170062.855
  24130767.775       13269.11849    -26185.89545  24130766.347    24130779.344
  22307218.611      473198.50449    359525.23146  22307218.244    22307227.859
  23405549.813    -1444748.17549  -1107592.15745  23405549.436    23405558.901
 02  7 11 17  8 30.0000000  0 11G21G 2G18G17G15G29G26G23G22G 6G 3
  22063651.656    -1284362.95849   -983878.42947  22063651.062    22063659.889
  24705476.938     -542223.32949   -332933.47045  24705475.745    24705488.132
  20357960.457     -731007.76949   -440187.42247  20357959.938    20357965.804
  20538527.885     -571593.21949   -438188.72547  20538527.213    20538534.671
  20374887.200     -757451.73849   -579955.49647  20374886.410    20374893.842
  23537006.546      255004.73559    194255.48445  23537006.160    23537014.585
  22503665.017      184419.15649     88952.04246  22503665.077    22503673.275
  23185292.595      401039.00759    304891.55046  23185292.036    23185300.422
  24141430.396       69300.85049     17475.04245  24141429.137    24141442.202
  22325232.320      567860.59749    433287.74246  22325231.963    22325241.621
  23388874.168    -1532379.53149  -1175876.28945  23388873.640    23388883.171
 02  7 11 17  9  0.0000000  0 11G21G 2G18G17G15G29G26G23G22G 6G 3
  22053940.611    -1335394.80149  -1023643.46747  22053940.015    22053948.829
  24707162.892     -533363.37349   -326029.70245  24707161.797    24707174.249
  20356719.412     -737529.68349   -445269.42447  20356718.877    20356724.750
  20539465.069     -566668.42649   -434351.24247  20539464.415    20539471.884
  20373075.017     -766974.89749   -587376.15147  20373074.224    20373081.645
  23550524.049      326039.56349    249607.24145  23550523.711    23550532.081
  22516293.245      250780.48349    140662.10646  22516293.264    22516301.439
  23200541.279      481171.10049    367332.10046  23200540.750    23200549.315
  24152150.037      125632.45849     61369.64645  24152148.764    24152161.889
  22343302.272      662818.31149    507280.62246  22343301.934    22343311.685
  23372253.392    -1619722.28849  -1243935.52545  23372252.876    23372262.316
 02  7 11 17  9 30.0000000  0 11G21G 2G18G17G15G29G26G23G22G 6G 3
  22044281.424    -1386154.19049  -1063196.18847  22044280.802    22044289.636
  24708925.997     -524098.58349   -318810.48445  24708925.136    24708937.585
  20355554.559     -743651.12149   -450039.38447  20355554.013    20355559.901
  20540449.988     -561492.92649   -430318.41247  20540449.323    20540456.787
  20371314.369     -776227.32849   -594585.83247  20371313.573    20371320.974
  23564116.362      397467.47049    305265.32545  23564116.042    23564124.406
  22529022.448      317672.52449    192785.74746  22529022.392    22529030.581
  23215800.871      561360.69049    429817.41146  23215800.326    23215808.898
  24162926.665      182262.15049    105496.53145  24162925.514    24162938.007
  22361428.243      758070.37459    581502.86246  22361427.895    22361437.815
  23355688.215    -1706772.74749  -1311766.98945  23355687.774    23355697.137
 02  7 11 17 10  0.0000000  0 11G21G 2G18G17G15G29G26G23G22G 6G 3
  22034673.785    -1436642.45249  -1102537.64647  22034673.183    22034682.026
  24710765.790     -514431.01849   -311277.42745  24710764.992    24710777.340
  20354465.560     -749373.95349   -454498.74147  20354464.997    20354470.897
  20541482.575     -556066.92049   -426090.37847  20541481.908    20541489.366
  20369605.172     -785209.47149   -601584.89047  20369604.366    20369611.761
  23577782.885      469285.27149    361227.18445  23577782.571    23577790.958
  22541851.995      385091.99649    245320.36246  22541851.921    22541860.096
  23231071.000      641605.25449    492345.58546  23231070.414    23231078.997
  24173759.290      239186.10749    149852.73745  24173758.135    24173770.208
  22379609.639      853613.71149    655952.05546  22379609.299    22379619.226
  23339178.878    -1793529.40549  -1379369.53945  23339178.443    23339187.855
 02  7 11 17 10 30.0000000  0 11G21G 2G18G17G15G29G26G23G22G 6G 3
  22025117.801    -1486859.48849  -1141667.76147  22025117.229    22025126.024
  24712682.113     -504361.75349   -303431.32245  24712681.446    24712693.525
  20353452.256     -754698.99649   -458648.13747  20353451.689    20353457.581
  20542562.984     -550389.53249   -421666.47947  20542562.310    20542569.777
  20367947.591     -793920.21149   -608372.44447  20367946.774    20367954.168
  23591523.179      541490.80649    417491.19245  23591522.869    23591531.228
  22554781.409      453036.41249    298264.01546  22554781.330    22554789.512
  23246351.327      721903.39449    554915.49646  23246350.676    23246359.343
  24184647.149      296401.84949    194436.29645  24184646.067    24184657.953
  22397846.071      949446.15549    730626.53646  22397845.784    22397855.700
  23322726.044    -1879989.50149  -1446740.99845  23322725.623    23322735.063
 02  7 11 17 11  0.0000000  0 11G21G 2G18G17G15G29G26G23G22G 6G 3
  22015613.512    -1536804.94849  -1180586.26247  22015612.938    22015621.709
  24714674.588     -493892.06349   -295273.20445  24714673.936    24714685.920
  20352514.480     -759627.13649   -462488.26147  20352513.918    20352519.813
  20543691.344     -544460.02249   -417046.11847  20543690.689    20543698.154
  20366341.753     -802359.08049   -614948.15347  20366340.945    20366348.346
  23605336.786      614081.58749    474055.38445  23605336.516    23605344.803
  22567810.257      521503.25149    351614.75346  22567810.200    22567818.363
  23261641.543      802253.62449    617526.00946  23261640.881    23261649.533
  24195589.891      353906.48349    239244.94645  24195588.853    24195601.060
  22416137.124     1045565.29049    805524.39446  22416136.781    22416146.725
  23306330.138    -1966150.59149  -1513879.44445  23306329.644    23306339.145
 02  7 11 17 11 30.0000000  0 11G21G 2G18G17G15G29G26G23G22G 6G 3
  22006161.037    -1586478.00249  -1219292.49347  22006160.462    22006169.205
  24716743.150     -483022.13949   -286803.23145  24716742.505    24716754.454
  20351652.299     -764158.16149   -466018.94047  20351651.725    20351657.626
  20544868.143     -538276.31449   -412227.65447  20544867.474    20544874.950
  20364787.981     -810524.29049   -621310.62447  20364787.161    20364794.549
  23619223.549      687056.71749    530919.07045  23619223.232    23619231.567
  22580938.267      590491.31349    405371.64446  22580938.202    22580946.417
  23276941.621      882655.74649    680176.94046  23276940.968    23276949.656
  24206587.262      411698.36049    284277.41345  24206586.219    24206598.786
  22434482.499     1141970.04549    880644.81946  22434482.151    22434492.092
  23289991.766    -2052009.33749  -1580782.32345  23289991.294    23290000.723
 02  7 11 17 12  0.0000000  0 11G21G 2G18G17G15G29G26G23G22G 6G 3
  21996760.250    -1635879.48949  -1257787.11547  21996759.650    21996768.381
  24718887.529     -471754.00149   -278022.96145  24718886.851    24718898.773
  20350865.299     -768293.81049   -469241.54447  20350864.739    20350870.633
  20546093.270     -531838.32449   -407211.05247  20546092.606    20546100.103
  20363286.382     -818415.34049   -627459.48647  20363285.551    20363292.930
  23633182.854      760413.29849    588079.99645  23633182.568    23633190.920
  22594164.950      659997.41049    459532.20246  22594164.855    22594173.073
  23292251.209      963107.59849    742866.62746  23292250.530    23292259.244
  24217638.820      469774.05949    329531.03945  24217637.878    24217650.551
  22452881.710     1238657.63349    955985.63546  22452881.363    22452891.228
  23273711.320    -2137563.84349  -1647448.12845  23273710.795    23273720.216
 02  7 11 17 12 30.0000000  0 11G21G 2G18G17G15G29G26G23G22G 6G 3
  21987411.024    -1685010.09049  -1296070.66147  21987410.413    21987419.107
  24721107.376     -460089.15849   -268933.55345  24721106.554    24721118.521
  20350153.367     -772035.13049   -472156.85947  20350152.812    20350158.714
  20547366.863     -525145.83949   -401996.17547  20547366.194    20547373.677
  20361836.957     -826032.16649   -633394.68347  20361836.134    20361843.509
  23647214.259      834148.71949    645536.12545  23647214.054    23647222.360
  22607489.620      730018.68649    514094.18946  22607489.531    22607497.755
  23307569.923     1043607.46649    805593.74546  23307569.246    23307577.989
  24228744.101      528130.44649    375003.37745  24228743.079    24228755.533
  22471334.200     1335625.37549   1031544.76446  22471333.869    22471343.749
  23257489.121    -2222812.02249  -1713875.22845  23257488.615    23257497.958
 02  7 11 17 13  0.0000000  0 11G21G 2G18G17G15G29G26G23G22G 6G 3
  21978113.322    -1733869.84549  -1334143.15847  21978112.729    21978121.361
  24723402.357     -448028.46349   -259535.72645  24723401.606    24723413.537
  20349516.371     -775382.76249   -474765.42147  20349515.803    20349521.713
  20548689.142     -518197.43549   -396581.85847  20548688.469    20548695.976
  20360439.974     -833373.37349   -639115.11047  20360439.141    20360446.553
  23661317.410      908260.94749    703285.86645  23661317.211    23661325.511
  22620911.867      800553.09749    569056.02846  22620911.789    22620920.033
  23322897.511     1124154.32549    868357.45946  23322896.904    23322905.664
  24239902.227      586765.22049    420692.66045  24239901.235    24239913.308
  22489839.649     1432871.46849   1107320.74146  22489839.338    22489849.249
  23241325.809    -2307750.85049  -1780061.26245  23241325.285    23241334.603
 02  7 11 17 13 30.0000000  0 11G21G 2G18G17G15G29G26G23G22G 6G 3
  21968867.236    -1782458.23449  -1372004.20047  21968866.650    21968875.265
  24725772.436     -435572.75549   -249830.02345  24725771.504    24725783.740
  20348954.179     -778337.35649   -477067.70847  20348953.612    20348959.507
  20550060.341     -510991.97349   -390967.21747  20550059.680    20550067.214
  20359095.622     -840437.89349   -644619.94247  20359094.802    20359102.229
  23675491.905      982748.33549    761327.94045  23675491.738    23675500.006
  22634431.478      871598.70249    624416.18846  22634431.429    22634439.561
  23338233.879     1204747.09649    931156.95846  23338233.287    23338242.061
  24251112.636      645676.09249    466597.10145  24251111.734    24251123.698
  22508397.673     1530393.96249   1183312.12446  22508397.371    22508407.313
  23225221.851    -2392377.37849  -1846003.95445  23225221.354    23225230.675
 02  7 11 17 14  0.0000000  0 11G21G 2G18G17G15G29G26G23G22G 6G 3
  21959672.621    -1830776.32249  -1409654.62047  21959672.016    21959680.619
  24728217.342     -422724.11149   -239818.20345  24728216.543    24728228.978
  20348466.441     -780900.48649   -479064.95847  20348465.880    20348471.810
  20551480.467     -503529.19949   -385152.07147  20551479.807    20551487.371
  20357803.961     -847225.76049   -649909.19247  20357803.126    20357810.567
  23689737.279     1057607.92749    819660.05545  23689737.076    23689745.340
  22648047.704      943152.10649    680172.04046  22648047.642    22648055.749
  23353578.579     1285383.49649    993990.45046  23353577.954    23353586.793
  24262374.934      704859.42849    512713.84645  24262373.939    24262385.824
  22527007.750     1628189.88649   1259516.57046  22527007.457    22527017.430
  23209177.601    -2476690.19549  -1911702.19745  23209177.141    23209186.463
 02  7 11 17 14 30.0000000  0 11G21G 2G18G17G15G29G26G23G22G 6G 3
  21950529.561    -1878823.40149  -1447093.86947  21950528.935    21950537.577
  24730736.749     -409483.53349   -229500.98344  24730735.787    24730748.527
  20348053.092     -783072.71949   -480757.61347  20348052.526    20348058.495
  20552949.724     -495808.37649   -379135.85647  20552949.059    20552956.633
  20356565.112     -853735.95749   -654982.07847  20356564.284    20356571.719
  23704053.034     1132837.54549    878280.49045  23704052.766    23704061.124
  22661760.142     1015210.85549    736321.67646  22661760.070    22661768.171
  23368931.400     1366062.57749   1056857.20746  23368930.746    23368939.664
  24273688.497      764312.84749    559041.04145  24273687.396    24273699.601
  22545669.457     1726257.09249   1335932.39846  22545669.148    22545679.188
  23193193.627    -2560686.16949  -1977153.55845  23193193.147    23193202.567
 02  7 11 17 15  0.0000000  0 11G21G 2G18G17G15G29G26G23G22G 6G 3
  21941438.016    -1926599.69949  -1484322.10147  21941437.399    21941446.059
  24733330.735     -395851.84349   -218878.98444  24733329.882    24733342.482
  20347713.985     -784854.78549   -482146.24547  20347713.421    20347719.416
  20554468.400     -487827.92249   -372917.34447  20554467.728    20554475.293
  20355379.385     -859967.11249   -659837.52247  20355378.555    20355386.005
  23718438.795     1208435.40549    937187.86745  23718438.496    23718447.014
  22675568.340     1087773.09749    792863.64146  22675568.250    22675576.345
  23384292.153     1446783.43449   1119756.50346  23384291.492    23384300.440
  24285053.038      824033.91949    605576.78445  24285052.028    24285064.275
  22564382.434     1824593.90049   1412558.30646  22564382.113    22564392.207
  23177270.522    -2644362.40649  -2042355.77145  23177270.060    23177279.516
 02  7 11 17 15 30.0000000  0 11G21G 2G18G17G15G29G26G23G22G 6G 3
  21932397.722    -1974106.63349  -1521340.45247  21932397.107    21932405.768
  24735998.647     -381831.57449   -207954.19244  24735997.624    24736010.287
  20347448.799     -786248.44349   -483232.22447  20347448.245    20347454.230
  20556036.352     -479588.42849   -366496.97247  20556035.663    20556043.234
  20354246.677     -865919.45149   -664475.70547  20354245.849    20354253.286
  23732894.007     1284398.06049    996379.49245  23732893.789    23732902.377
  22689471.603     1160835.15249    849795.06746  22689471.536    22689479.693
  23399660.397     1527543.67849   1182686.49946  23399659.742    23399668.662
  24296467.903      884018.91449    652318.16845  24296466.856    24296479.418
  22583146.172     1923197.14049   1489391.81146  22583145.863    22583155.961
  23161408.561    -2727717.34449  -2107307.62245  23161408.141    23161417.530
 02  7 11 17 16  0.0000000  0 11G21G 2G18G17G15G29G26G23G22G 6G 3
  21923408.757    -2021343.79849  -1558148.59047  21923408.100    21923416.785
  24738740.432     -367423.74949   -196727.41344  24738739.386    24738752.005
  20347257.356     -787254.66649   -484016.29447  20347256.797    20347262.793
  20557653.888     -471088.38449   -359873.57247  20557653.203    20557660.776
  20353167.230     -871591.99949   -668895.88247  20353166.406    20353173.811
  23747418.339     1360723.73349   1055854.00145  23747418.124    23747426.772
  22703469.565     1234394.77749    907114.21246  22703469.535    22703477.675
  23415035.938     1608342.19449   1245646.32846  23415035.308    23415044.171
  24307932.711      944265.19449    699263.16645  24307931.618    24307944.180
  22601960.126     2022064.40849   1566431.06446  22601959.828    22601969.933
  23145608.254    -2810748.37649  -2172007.07345  23145607.789    23145617.197
 02  7 11 17 16 30.0000000  0 11G21G 2G18G17G15G29G26G23G22G 6G 3
  21914471.048    -2068311.46249  -1594746.72747  21914470.438    21914479.117
  24741555.800     -352629.79249   -185199.76244  24741554.877    24741567.493
  20347139.450     -787874.27149   -484499.10347  20347138.899    20347144.883
  20559321.078     -462327.31549   -353046.77547  20559320.418    20559327.988
  20352141.174     -876984.15349   -673097.58447  20352140.346    20352147.731
  23762011.280     1437409.87449   1115609.38845  23762011.062    23762019.638
  22717561.718     1308449.32449    964819.00946  22717561.699    22717569.842
  23430418.458     1689177.64749   1308634.93546  23430417.809    23430426.648
  24319446.561     1004769.97849    746409.60245  24319445.547    24319457.893
  22620823.912     2121193.51549   1643674.33746  22620823.639    22620833.786
  23129870.113    -2893452.94649  -2236452.13645  23129869.595    23129879.016
 02  7 11 17 17  0.0000000  0 11G21G 2G18G17G15G29G26G23G22G 6G 3
  21905584.667    -2115009.47949  -1631134.74647  21905584.070    21905592.747
  24744444.408     -337450.80649   -173372.06444  24744443.617    24744456.141
  20347095.000     -788107.94949   -484681.19347  20347094.430    20347100.439
  20561038.254     -453303.82049   -346015.49147  20561037.590    20561045.138
  20351168.724     -882094.41749   -677079.62047  20351167.900    20351175.296
  23776672.486     1514454.65249   1175644.23245  23776672.272    23776680.757
  22731747.684     1382996.53349   1022907.70746  22731747.608    22731755.751
  23445807.856     1770049.18249   1371651.65346  23445807.226    23445816.048
  24331009.034     1065531.03549    793755.73445  24331008.084    24331020.377
  22639737.181     2220582.56949   1721120.17546  22639736.896    22639747.094
  23114194.584    -2975828.30249  -2300640.66646  23114194.106    23114203.426
 02  7 11 17 17 30.0000000  0 11G21G 2G18G17G15G29G26G23G22G 6G 3
  21896749.413    -2161438.82649  -1667313.40947  21896748.826    21896757.506
  24747405.867     -321888.95949   -161246.06244  24747405.198    24747417.192
  20347123.586     -787957.80149   -484564.20047  20347123.020    20347129.037
  20562805.267     -444018.28749   -338780.02247  20562804.596    20562812.140
  20350249.870     -886923.20549   -680842.31047  20350249.036    20350256.452
  23791401.381     1591854.76349   1235955.95045  23791401.075    23791409.561
  22746026.682     1458032.93349   1081377.58346  22746026.623    22746034.782
  23461203.715     1850954.48849   1434694.69246  23461203.007    23461211.891
  24342619.702     1126544.37649    841298.43445  24342618.666    24342631.034
  22658699.314     2320228.46049   1798766.14046  22658698.969    22658709.271
  23098582.060    -3057872.79849  -2364571.40246  23098581.585    23098590.795
 02  7 11 17 18  0.0000000  0 11G21G 2G18G17G15G29G26G23G22G 6G 3
  21887965.272    -2207599.59949  -1703282.79547  21887964.688    21887973.351
  24750440.076     -305945.16149   -148822.42244  24750439.237    24750451.344
  20347225.130     -787424.25349   -484148.45847  20347224.579    20347230.608
  20564622.412     -434469.26949   -331339.24847  20564621.729    20564629.261
  20349384.813     -891469.10549   -684384.57047  20349383.995    20349391.418
  23806197.463     1669608.28949   1296543.06345  23806197.192    23806205.651
  22760398.386     1533556.23849   1140226.87446  22760398.264    22760406.476
  23476605.775     1931892.71149   1497763.38346  23476605.094    23476614.021
  24354277.966     1187807.86249    889036.04645  24354276.925    24354289.476
  22677709.961     2420129.30249   1876610.77246  22677709.618    22677719.969
  23083033.125    -3139583.25049  -2428241.83846  23083032.649    23083041.772
 02  7 11 17 18 30.0000000  0 11G21G 2G18G17G15G29G26G23G22G 6G 3
  21879232.274    -2253491.76449  -1739042.88047  21879231.683    21879240.324
  24753546.698     -289620.97049   -136102.36644  24753545.946    24753557.801
  20347399.452     -786508.34349   -483434.77847  20347398.889    20347404.930
  20566489.834     -424655.94949   -323692.52147  20566489.156    20566496.688
  20348573.728     -895731.69449   -687706.08247  20348572.906    20348580.335
  23821060.350     1747712.90149   1357403.73545  23821060.024    23821068.604
  22774862.171     1609563.84449   1199453.54546  22774862.041    22774870.220
  23492013.796     2012862.42549   1560856.59546  23492013.148    23492022.076
  24365983.281     1249318.29249    936966.09845  24365982.261    24365994.781
  22696768.563     2520282.49549   1954652.02946  22696768.254    22696778.666
  23067548.163    -3220957.35649  -2491650.20146  23067547.679    23067556.805
 02  7 11 17 19  0.0000000  0 11G21G 2G18G17G15G29G26G23G22G 6G 3
  21870550.445    -2299115.02349  -1774593.43047  21870549.843    21870558.477
  24756725.446     -272917.26049   -123086.57444  24756724.496    24756736.691
  20347646.494     -785210.31049   -482423.33647  20347645.928    20347651.963
  20568407.863     -414576.92749   -315838.75547  20568407.188    20568414.713
  20347816.832     -899709.23949   -690805.48847  20347816.000    20347823.445
  23835989.683     1826166.99049   1418536.72445  23835989.368    23835997.982
  22789417.720     1686053.75649   1259056.02946  22789417.634    22789425.835
  23507427.825     2093863.15349   1623973.98946  23507427.127    23507436.140
  24377735.036     1311073.74849    985087.08345  24377734.086    24377746.486
  22715874.890     2620686.39249   2032888.63746  22715874.597    22715885.098
  23052127.716    -3301992.13249  -2554794.14846  23052127.284    23052136.339
 02  7 11 17 19 30.0000000  0 11G21G 2G18G17G15G29G26G23G22G 6G 3
  21861919.661    -2344470.12149  -1809935.02147  21861919.058    21861927.650
  24759975.954     -255835.85549   -109776.49844  24759975.155    24759987.060
  20347966.001     -783531.49849   -481115.17947  20347965.437    20347971.487
  20570376.536     -404231.68149   -307777.53747  20570375.865    20570383.390
  20347114.317     -903401.22049   -693682.37747  20347113.486    20347120.967
  23850985.004     1904967.85949   1479939.93745  23850984.697    23850993.393
  22804064.591     1763023.06749   1319032.09346  22804064.455    22804072.705
  23522847.323     2174893.12849   1687114.17046  23522846.602    23522855.715
  24389532.875     1373071.26749   1033396.69145  24389531.838    24389544.308
  22735028.482     2721338.45849   2111318.62146  22735028.158    22735038.770
  23036772.311    -3382685.48549  -2617672.05146  23036771.835    23036780.880
 02  7 11 17 20  0.0000000  0 11G21G 2G18G17G15G29G26G23G22G 6G 3
  21853339.758    -2389557.97449  -1845068.36747  21853339.148    21853347.696
  24763298.100     -238378.70149    -96173.62044  24763297.346    24763308.955
  20348357.587     -781473.82049   -479511.80647  20348357.026    20348363.078
  20572395.872     -393620.03749   -299508.75447  20572395.197    20572402.753
  20346466.146     -906807.44249   -696336.59447  20346465.315    20346472.816
  23866045.760     1984112.26349   1541610.83145  23866045.490    23866054.157
  22818801.895     1840468.29049   1379378.98746  22818801.782    22818810.155
  23538272.034     2255950.42149   1750275.63145  23538271.314    23538280.569
  24401376.153     1435307.10749   1081891.98645  24401375.179    24401387.502
  22754228.728     2822235.55749   2189939.54746  22754228.356    22754239.070
  23021482.152    -3463035.70349  -2680282.56746  23021481.700    23021490.658
 02  7 11 17 20 30.0000000  0 11G21G 2G18G17G15G29G26G23G22G 6G 3
  21844810.653    -2434378.74549  -1879993.59647  21844810.033    21844818.540
  24766691.470     -220547.50149    -82279.28044  24766690.455    24766702.226
  20348821.066     -779038.40849   -477614.09147  20348820.505    20348826.560
  20574466.040     -382741.20549   -291031.76647  20574465.364    20574472.942
  20345872.455     -909927.40449   -698767.74547  20345871.626    20345879.101
  23881171.454     2063597.93349   1603547.65045  23881171.238    23881179.889
  22833629.215     1918386.53249   1440094.47046  22833629.117    22833637.593
  23553701.714     2337033.73249   1813457.36445  23553701.022    23553710.329
  24413264.211     1497778.29949   1130570.68245  24413263.169    24413275.735
  22773475.142     2923375.24049   2268749.50946  22773474.712    22773485.497
  23006257.759    -3543040.30949  -2742623.75646  23006257.259    23006266.245
 02  7 11 17 21  0.0000000  0 11G21G 2G18G17G15G29G26G23G22G 6G 3
  21836332.570    -2478931.25349  -1914709.79247  21836331.962    21836340.468
  24770155.949     -202342.55949    -68093.72444  24770155.129    24770166.271
  20349356.458     -776225.00949   -475421.83947  20349355.894    20349361.933
  20576587.496     -371593.07049   -282344.92147  20576586.825    20576594.396
  20345333.664     -912758.92949   -700974.15947  20345332.829    20345340.310
  23896361.942     2143423.81749   1665749.56345  23896361.653    23896370.281
  22848546.419     1996776.65049   1501177.63846  22848546.330    22848554.800
  23569136.417     2418143.09849   1876659.42445  23569135.696    23569145.034
  24425196.635     1560483.53748   1179431.76645  24425195.529    24425208.603
  22792767.542     3024756.60449   2347747.78446  22792767.105    22792777.978
  22991099.854    -3622695.54249  -2804692.72346  22991099.353    22991108.336
 02  7 11 17 21 30.0000000  0 11G21G 2G18G17G15G29G26G23G22G 6G 3
  21827905.208    -2523217.04549  -1949218.15047  21827904.606    21827913.106
  24773691.033     -183766.48449    -53618.96344  24773689.991    24773701.555
  20349963.391     -773035.79049   -472936.73947  20349962.804    20349968.846
  20578760.104     -360176.12449   -273448.61447  20578759.431    20578767.000
  20344849.736     -915302.18849   -702955.93247  20344848.884    20344856.358
  23911616.446     2223586.50549   1728213.91845  23911616.113    23911624.714
  22863552.641     2075634.83449   1562625.55046  22863552.592    22863561.002
  23584575.573     2499276.17649   1939879.95145  23584574.929    23584584.200
  24437172.830     1623418.69649   1228471.99245  24437171.688    24437184.919
  22812105.227     3126376.26949   2426931.74946  22812104.898    22812115.754
  22976008.788    -3701999.77749  -2866488.16545  22976008.130    22976017.277
 02  7 11 17 22  0.0000000  0 11G21G 2G18G17G15G29G26G23G22G 6G 3
  21819528.673    -2567235.94949  -1983518.55447  21819528.055    21819536.568
  24777296.594     -164820.39749    -38855.87544  24777295.564    24777307.447
  20350641.672     -769471.47049   -470159.35647  20350641.074    20350647.129
  20580984.105     -348488.99349   -264341.77847  20580983.441    20580991.015
  20344420.792     -917556.39249   -704712.45047  20344419.941    20344427.438
  23926934.651     2304084.02849   1790939.19145  23926934.348    23926942.969
  22878647.525     2154958.63149   1624436.26746  22878647.462    22878655.851
  23600019.058     2580432.04949   2003118.25245  23600018.387    23600027.714
  24449192.480     1686581.37549   1277689.51345  24449191.406    24449204.442
  22831487.926     3228232.08049   2506299.72946  22831487.599    22831498.462
  22960984.910    -3780950.44149  -2928008.10746  22960984.272    22960993.453
 02  7 11 17 22 30.0000000  0 11G21G 2G18G17G15G29G26G23G22G 6G 3
  21811202.783    -2610988.61349  -2017611.49647  21811202.189    21811210.694
  24780972.192     -145506.04649    -23805.86145  24780971.330    24780983.098
  20351391.100     -765533.30249   -467090.67347  20351390.496    20351396.536
  20583259.627     -336531.20949   -255024.04747  20583258.946    20583266.492
  20344047.013     -919520.82449   -706243.19147  20344046.180    20344053.642
  23942316.095     2384913.63449   1853923.23045  23942315.810    23942324.380
  22893830.429     2234745.03949   1686607.45646  22893830.321    22893838.737
  23615466.638     2661609.10949   2066373.01945  23615465.943    23615475.201
  24461254.803     1749968.38749   1327081.84445  24461253.686    24461266.749
  22850915.044     3330321.41849   2585849.65446  22850914.680    22850925.604
  22946028.708    -3859545.42949  -2989250.90346  22946028.125    22946037.280
 02  7 11 17 23  0.0000000  0 11G21G 2G18G17G15G29G26G23G22G 6G 3
  21802927.397    -2654475.92749  -2051497.67647  21802926.798    21802935.321
  24784717.711     -125825.17449     -8470.19345  24784716.817    24784728.697
  20352211.443     -761222.38449   -463731.53647  20352210.847    20352216.866
  20585586.790     -324301.99349   -245494.81847  20585586.115    20585593.668
  20343728.488     -921194.80049   -707547.61747  20343727.650    20343735.082
  23957760.220     2466072.78159   1917164.05545  23957759.877    23957768.524
  22909100.783     2314991.28649   1749136.94746  22909100.719    22909109.059
  23630918.034     2742806.13949   2129643.36345  23630917.276    23630926.484
  24473359.216     1813576.90749   1376646.77145  24473358.097    24473370.917
  22870386.109     3432641.76749   2665579.60246  22870385.781    22870396.740
  22931140.725    -3937782.20949  -3050214.58246  22931140.202    22931149.224
 02  7 11 17 23 30.0000000  0 11G21G 2G18G17G15G29G26G23G22G 6G 3
  21794702.569    -2697697.41049  -2085176.70947  21794701.972    21794710.510
  24788532.628     -105779.13049      7149.98845  24788531.906    24788543.780
  20353102.586     -756539.62849   -460082.64647  20353101.991    20353108.007
  20587965.772     -311800.41449   -235753.35047  20587965.098    20587972.666
  20343465.441     -922577.30049   -708624.91047  20343464.593    20343472.038
  23973266.701     2547559.42249   1980660.06445  23973266.393    23973274.947
  22924458.203     2395694.67849   1812022.67346  22924458.118    22924466.431
  23646373.020     2824022.13149   2192928.47845  23646372.317    23646381.417
  24485505.242     1877404.30549   1426382.25045  24485504.208    24485517.030
  22889900.735     3535191.08549   2745487.97346  22889900.401    22889911.411
  22916321.365    -4015658.36149  -3110897.25246  22916320.871    22916329.820
 02  7 11 17 24  0.0000000  0 11G21G 2G18G17G15G29G26G23G22G 6G 3
  21786528.269    -2740653.65149  -2118649.06647  21786527.671    21786536.183
  24792416.706      -85369.88949     23053.18745  24792416.007    24792427.884
  20354064.154     -751486.50349   -456145.15647  20354063.565    20354069.582
  20590396.680     -299025.94849   -225799.25347  20590396.015    20590403.587
  20343257.909     -923667.90949   -709474.76847  20343257.066    20343264.501
  23988834.989     2629370.71349   2044409.05445  23988834.705    23988843.308
  22939902.061     2476852.21449   1875262.26046  22939901.976    22939910.231
  23661831.279     2905255.48849   2256227.14045  23661830.546    23661839.569
  24497692.197     1941447.29449   1476285.71545  24497691.201    24497704.029
  22909458.401     3637966.65649   2825572.63246  22909458.092    22909469.138
  22901571.032    -4093171.54949  -3171297.08746  22901570.553    22901579.519
 02  7 11 17 24 30.0000000  0 11G21G 2G18G17G15G29G26G23G22G 6G 3
  21778404.326    -2783344.94249  -2151914.96647  21778403.745    21778412.248
  24796369.485      -64598.69049     39238.41945  24796368.790    24796380.853
  20355096.077     -746063.80649   -451919.68347  20355095.481    20355101.513
  20592879.743     -285977.46349   -215631.64247  20592879.086    20592886.655
  20343106.167     -924465.56449   -710096.36847  20343105.331    20343112.736
  24004464.631     2711504.64349   2108409.43945  24004464.365    24004472.934
  22955431.842     2558461.42149   1938853.78846  22955431.775    22955439.999
  23677292.624     2986505.34449   2319538.65645  23677291.902    23677301.064
  24509919.885     2005703.41949   1526355.25645  24509918.876    24509931.855
  22929058.820     3740966.42949   2905832.00846  22929058.483    22929069.516
  22886890.296    -4170319.11649  -3231412.00846  22886889.796    22886898.725
 02  7 11 17 25  0.0000000  0 12G21G 2G18G17G15G14G29G26G23G22G 6G 3
  21770330.313    -2825773.91649  -2184976.46047  21770329.735    21770338.264
  24800390.413      -43469.51449     55702.62545  24800389.657    24800402.071
  20356197.649     -740275.03549   -447408.96347  20356197.048    20356203.086
  20595414.721     -272656.30149   -205251.54247  20595414.051    20595421.628
  20343009.897     -924971.60149   -710490.70747  20343009.048    20343016.455
  24652239.773    -3654549.52059  -2813037.97644  24652239.011    24652252.214
  24020154.750     2793956.44249   2172657.52245  24020154.444    24020163.068
  22971046.584     2640517.23349   2002793.32746  22971046.535    22971054.745
  23692756.473     3067768.26049   2382860.34945  23692755.756    23692764.977
  24522187.155     2070167.41149   1576586.79145  24522186.203    24522199.073
  22948700.941     3844185.60449   2986262.33646  22948700.655    22948711.729
  22872279.110    -4247101.11249  -3291242.06146  22872278.582    22872287.607
 02  7 11 17 25 30.0000000  0 12G21G 2G18G17G15G14G29G26G23G22G 6G 3
  21762306.748    -2867937.86249  -2217831.44347  21762306.169    21762314.685
  24804479.716      -21981.01749     72446.78745  24804478.956    24804491.380
  20357369.324     -734118.20349   -442611.44247  20357368.727    20357374.723
  20598002.240     -259058.82649   -194656.13147  20598001.580    20598009.227
  20342969.846     -925182.16549   -710654.79847  20342969.005    20342976.403
  24630420.659    -3769209.14149  -2902382.97645  24630419.955    24630433.231
  24035905.508     2876726.73149   2237153.76345  24035905.149    24035913.814
  22986746.289     2723019.71849   2067080.91246  22986746.267    22986754.504
  23708223.137     3149046.04749   2446193.61345  23708222.469    23708231.671
  24534494.011     2134839.56049   1626980.50945  24534493.113    24534506.048
  22968384.926     3947624.74549   3066864.05346  22968384.648    22968395.744
  22857738.654    -4323511.78749  -3350782.79946  22857738.098    22857747.077
 02  7 11 17 26  0.0000000  0 12G21G 2G18G17G15G14G29G26G23G22G 6G 3
  21754333.538    -2909837.24049  -2250480.27247  21754332.969    21754341.438
  24808637.013        -135.29649     89469.33045  24808636.149    24808648.827
  20358610.698     -727594.78349   -437528.26847  20358610.097    20358616.093
  20600642.492     -245184.47349   -183844.97947  20600641.832    20600649.476
  20342986.117     -925096.85049   -710588.33847  20342985.274    20342992.657
  24608603.748    -3883857.04849  -2991718.83245  24608603.140    24608616.463
  24051716.315     2959812.84849   2301896.11945  24051716.033    24051724.603
  23002530.470     2805965.91849   2131714.25146  23002530.419    23002538.718
  23723692.420     3230337.26049   2509537.34745  23723691.730    23723700.930
  24546839.859     2199716.58349   1677533.87845  24546838.937    24546851.992
  22988110.208     4051281.15449   3147635.08946  22988109.912    22988121.100
  22843269.159    -4399549.31349  -3410032.75646  22843268.615    22843277.572
 02  7 11 17 26 30.0000000  0 12G21G 2G18G17G15G14G29G26G23G22G 6G 3
  21746410.641    -2951472.27149  -2282923.11247  21746410.074    21746418.505
  24812861.985       22066.32449    106769.18045  24812861.183    24812873.887
  20359921.689     -720705.45849   -432159.97247  20359921.090    20359927.110
  20603335.596     -231032.28649   -172817.32547  20603334.928    20603342.542
  20343058.912     -924714.59749   -710290.49547  20343058.074    20343065.453
  24586789.630    -3998490.40149  -3081043.37545  24586788.960    24586802.325
  24067586.830     3043212.48749   2366882.77045  24067586.567    24067595.112
  23018398.583     2889353.26749   2196691.34146  23018398.554    23018406.864
  23739164.057     3311640.93049   2572890.77145  23739163.349    23739172.625
  24559224.194     2264795.92949   1728244.89945  24559223.273    24559236.544
  23007876.450     4155152.64049   3228573.71446  23007876.188    23007887.406
  22828871.135    -4475210.94249  -3468989.80346  22828870.622    22828879.625
 02  7 11 17 27  0.0000000  0 12G21G 2G18G17G15G14G29G26G23G22G 6G 3
  21738537.754    -2992844.61349  -2315161.26547  21738537.154    21738545.557
  24817153.935       44620.65649    124343.85945  24817153.242    24817166.000
  20361301.743     -713453.21749   -426508.89047  20361301.154    20361307.190
  20606081.468     -216602.78449   -161573.58747  20606080.797    20606088.405
  20343188.035     -924036.09249   -709761.81847  20343187.195    20343194.577
  24564978.381    -4113108.19649  -3170355.79845  24564978.020    24564991.062
  24083516.282     3126921.76849   2432110.68945  24083515.958    24083524.578
  23034349.864     2973177.37549   2262008.75746  23034349.841    23034358.133
  23754637.573     3392954.41249   2636251.83145  23754636.847    23754646.157
  24571646.199     2330073.15449   1779110.10345  24571645.154    24571658.291
  23027682.864     4259235.29149   3309676.87646  23027682.597    23027693.849
  22814544.842    -4550495.89649  -3527653.34246  22814544.280    22814553.313
 02  7 11 17 27 30.0000000  0 12G21G 2G18G17G15G14G29G26G23G22G 6G 3
  21730715.295    -3033951.85049  -2347192.83747  21730714.679    21730723.067
  24821513.228       67528.99649    142194.39245  24821512.455    24821525.489
  20362751.229     -705836.07049   -420573.46247  20362750.631    20362756.691
  20608880.805     -201892.23749   -150110.85747  20608880.129    20608887.777
  20343374.258     -923057.70949   -708999.47947  20343373.416    20343380.794
  24543171.166    -4227704.92349  -3259651.81045  24543170.757    24543183.764
  24099504.738     3210941.30249   2497580.36545  24099504.490    24099512.978
  23050384.293     3057438.54049   2327666.73246  23050384.281    23050392.538
  23770113.342     3474279.58349   2699622.02845  23770112.623    23770121.848
  24584105.843     2395548.37849   1830129.57645  24584104.878    24584117.954
  23047529.632     4363529.70749   3390945.05345  23047529.437    23047540.682
  22800291.216    -4625398.75349  -3586019.14746  22800290.688    22800299.731
 02  7 11 17 28  0.0000000  0 12G21G 2G18G17G15G14G29G26G23G22G 6G 3
  21722942.598    -3074797.78649  -2379020.80247  21722941.980    21722950.303
  24825938.770       90785.94149    160316.57745  24825938.031    24825951.166
  20364269.293     -697858.58249   -414357.24147  20364268.700    20364274.785
  20611733.101     -186903.46549   -138431.32347  20611732.434    20611740.071
  20343617.012     -921782.14949   -708005.56047  20343616.168    20343623.552
  24521367.813    -4342281.40649  -3348932.03945  24521367.411    24521380.440
  24115551.097     3295265.16949   2563287.17645  24115550.852    24115559.370
  23066500.608     3142130.16149   2393660.11846  23066500.554    23066508.862
  23785590.414     3555611.61349   2762997.54145  23785589.638    23785598.944
  24596601.941     2461215.26449   1881298.42445  24596600.927    24596614.131
  23067415.509     4468029.97749   3472373.63245  23067415.291    23067426.580
  22786110.088    -4699920.83849  -3644088.27346  22786109.625    22786118.597
 02  7 11 17 28 30.0000000  0 11G21G18G17G15G14G29G26G23G22G 6G 3
  21715220.098    -3115379.94549  -2410643.22547  21715219.476    21715227.758
  20365856.247     -689519.11949   -407858.95147  20365855.661    20365861.738
  20614639.104     -171632.49049   -126531.89147  20614638.443    20614646.070
  20343917.065     -920205.57149   -706777.06747  20343916.210    20343923.632
  24499569.331    -4456832.23949  -3438192.28645  24499568.952    24499582.041
  24131655.416     3379893.87949   2629231.54245  24131655.213    24131663.784
  23082698.905     3227252.34349   2459989.01546  23082698.860    23082707.137
  23801069.114     3636952.39349   2826379.84545  23801068.343    23801077.572
  24609134.550     2527073.89549   1932616.68245  24609133.450    24609146.967
  23087340.711     4572736.60849   3553963.00445  23087340.477    23087351.803
  22772002.523    -4774056.52949  -3701856.25246  22772002.091    22772011.029
 02  7 11 17 29  0.0000000  0 11G21G18G17G15G14G29G26G23G22G 6G 3
  21707547.624    -3155699.03949  -2442060.66047  21707546.998    21707555.264
  20367511.838     -680818.99049   -401079.62447  20367511.245    20367517.334
  20617598.892     -156078.90849   -114412.24947  20617598.214    20617605.871
  20344274.448     -918327.53549   -705313.67847  20344273.592    20344281.061
  24477776.222    -4571355.07149  -3527430.75345  24477775.978    24477789.159
  24147817.330     3464824.72049   2695411.32445  24147817.114    24147825.683
  23098978.582     3312802.20549   2526651.17046  23098978.539    23098986.753
  23816549.239     3718300.70249   2889768.06445  23816548.496    23816557.682
  24621703.089     2593121.13049   1984081.90645  24621702.070    24621715.691
  23107304.704     4677646.97749   3635711.12945  23107304.475    23107315.795
  22757968.872    -4847803.91549  -3759321.68946  22757968.416    22757977.320
 02  7 11 17 29 30.0000000  0 11G21G18G17G15G14G29G26G23G22G 6G 3
  21699924.541    -3195758.40649  -2473275.70847  21699923.955    21699932.180
  20369235.200     -671762.67149   -394022.73847  20369234.622    20369240.717
  20620611.956     -140245.26249   -102074.37447  20620611.288    20620618.920
  20344688.753     -916150.53649   -703617.33447  20344687.916    20344695.372
  24455988.293    -4685850.68949  -3616647.98144  24455988.081    24456000.971
  24164035.512     3550051.75549   2761821.90745  24164035.366    24164043.889
  23115338.446     3398773.45049   2593641.66245  23115338.404    23115346.617
  23832029.965     3799651.98149   2953158.58045  23832029.120    23832038.402
  24634306.215     2659350.71549   2035689.22945  24634305.185    24634318.959
  23127306.261     4782755.25449   3717613.47645  23127306.029    23127317.447
  22744008.915    -4921163.88049  -3816485.23646  22744008.471    22744017.320
 02  7 11 17 30  0.0000000  0 11G21G18G17G15G14G29G26G23G22G 6G 3
  21692351.057    -3235557.31349  -2504287.80847  21692350.458    21692358.655
  20371026.327     -662350.35949   -386688.46447  20371025.732    20371031.852
  20623678.762     -124129.50349    -89516.67247  20623678.085    20623685.702
  20345160.281     -913672.78049   -701686.63647  20345159.439    20345166.896
  24434206.356    -4800315.35649  -3705841.14244  24434206.211    24434218.593
  24180309.952     3635573.91849   2828462.45745  24180309.680    24180318.382
  23131778.087     3485164.34749   2660959.16345  23131778.083    23131786.333
  23847511.188     3881006.34549   3016551.50145  23847510.422    23847519.774
  24646943.695     2725760.94049   2087437.27845  24646942.746    24646956.711
  23147345.261     4888060.19149   3799669.07845  23147345.036    23147356.530
  22730123.355    -4994132.84949  -3873344.11846  22730122.904    22730131.709
 02  7 11 17 30 30.0000000  0 11G21G18G17G15G14G29G26G23G22G 6G 3
  21684826.985    -3275096.44249  -2535097.48447  21684826.367    21684834.570
  20372885.035     -652582.84749   -379077.42647  20372884.456    20372890.548
  20626799.371     -107730.71349    -76738.42547  20626798.694    20626806.328
  20345689.181     -910893.35049   -699520.87047  20345688.353    20345695.820
  24412430.802    -4914745.96549  -3795007.71844  24412430.636    24412443.006
  24196640.140     3721388.97949   2895331.23745  24196639.935    24196648.588
  23148297.161     3571972.18349   2728601.55245  23148297.127    23148305.420
  23862992.803     3962362.70049   3079945.96345  23862992.104    23863001.473
  24659615.259     2792349.09359   2139324.01045  24659614.085    24659627.883
  23167421.303     4993559.57149   3881876.17145  23167421.058    23167432.554
  22716312.641    -5066708.38149  -3929896.42746  22716312.215    22716320.973
 02  7 11 17 31  0.0000000  0 11G21G18G17G15G14G29G26G23G22G 6G 3
  21677352.429    -3314375.37049  -2565704.40647  21677351.832    21677360.009
  20374811.185     -642460.98549   -371190.27147  20374810.602    20374816.687
  20629974.067      -91047.72249    -63738.72047  20629973.396    20629981.037
  20346275.740     -907810.96549   -697119.01847  20346274.907    20346282.410
  24390662.250    -5029139.85449  -3884145.69644  24390661.847    24390674.565
  24213025.610     3807494.50049   2962426.35345  24213025.321    24213034.004
  23164895.043     3659194.37949   2796566.82145  23164894.947    23164903.286
  23878474.749     4043720.45049   3143341.52345  23878474.037    23878483.578
  24672320.166     2859112.74649   2191347.48845  24672318.839    24672332.657
  23187533.887     5099251.21049   3964233.08745  23187533.654    23187545.175
  22702577.367    -5138887.52849  -3986139.85746  22702576.943    22702585.736
 02  7 11 17 31 30.0000000  0 11G21G18G17G15G14G29G26G23G22G 6G 3
  21669927.135    -3353395.41549  -2596109.60447  21669926.532    21669934.708
  20376804.419     -631986.59849   -363028.41847  20376803.822    20376809.906
  20633202.871      -74080.31449    -50517.39347  20633202.181    20633209.821
  20346920.025     -904425.32249   -694480.86447  20346919.191    20346926.715
  24368901.165    -5143494.75449  -3973253.26244  24368900.800    24368913.420
  24229465.801     3893887.82849   3029745.74645  24229465.630    24229474.183
  23181571.121     3746827.56849   2864852.34245  23181571.072    23181579.397
  23893956.645     4125078.02449   3206736.94245  23893955.918    23893965.384
  24685057.787     2926048.30349   2243504.95145  24685056.550    24685069.981
  23207682.567     5205132.20949   4046737.56545  23207682.305    23207693.893
  22688917.773    -5210668.88549  -4042073.32646  22688917.360    22688926.166
 02  7 11 17 32  0.0000000  0 11G21G18G17G15G14G29G26G23G22G 6G 3
  21662551.257    -3392155.87649  -2626312.52747  21662550.658    21662558.827
  20378864.632     -621160.09249   -354592.17647  20378864.046    20378870.119
  20636486.113      -56826.95649    -37073.25347  20636485.428    20636493.054
  20347622.278     -900735.06149   -691605.34547  20347621.425    20347628.946
  24347148.011    -5257807.60849  -4062328.09545  24347147.681    24347160.151
  24245960.369     3980566.96749   3097287.83045  24245960.231    24245968.765
  23198325.023     3834869.34549   2933456.22945  23198324.924    23198333.272
  23909438.479     4206434.94049   3270131.84545  23909437.730    23909447.240
  24697827.685     2993153.58249   2295794.64645  24697826.471    24697839.777
  23227866.934     5311200.78549   4129388.19945  23227866.692    23227878.268
  22675334.418    -5282049.51149  -4097694.53746  22675334.023    22675342.805
 02  7 11 17 32 30.0000000  0 11G21G18G17G15G14G29G26G23G22G 6G 3
  21655224.620    -3430657.38749  -2656313.66747  21655224.040    21655232.194
  20380991.646     -609982.65749   -345882.47947  20380991.063    20380997.133
  20639823.898      -39286.98549    -23405.77647  20639823.208    20639830.809
  20348382.638     -896739.44549   -688491.88247  20348381.778    20348389.319
  24325403.323    -5372075.96249  -4151368.22545  24325402.754    24325415.648
  24262508.821     4067529.54149   3165050.78445  24262508.715    24262517.241
  23215156.143     3923316.96549   3002376.37645  23215156.002    23215164.354
  23924919.910     4287789.96849   3333525.29145  23924919.163    23924928.694
  24710629.057     3060425.75949   2348214.38745  24710627.779    24710641.310
  23248086.434     5417454.43249   4212183.03745  23248086.175    23248097.810
  22661827.816    -5353027.09049  -4153001.70446  22661827.423    22661836.178
 02  7 11 17 33  0.0000000  0 11G21G18G17G15G14G29G26G23G22G 6G 3
  21647947.160    -3468900.56749  -2686113.51347  21647946.569    21647954.746
  20383185.119     -598456.00549   -336900.65847  20383184.555    20383190.596
  20643216.365      -21459.61449     -9514.34847  20643215.689    20643223.281
  20349201.182     -892437.86649   -685140.00047  20349200.352    20349207.888
  24303667.644    -5486297.22749  -4240371.64645  24303667.242    24303680.044
  24279110.732     4154772.93849   3233032.56445  24279110.562    24279119.254
  23232063.788     4012167.24749   3071610.26945  23232063.657    23232072.106
  23940400.768     4369142.02149   3396916.42545  23940399.996    23940409.637
  24723461.688     3127861.76949   2400761.78845  24723460.554    24723474.318
  23268340.727     5523890.59149   4295120.10345  23268340.413    23268352.105
  22648398.365    -5423599.21749  -4207992.92746  22648397.930    22648406.666
 02  7 11 17 33 30.0000000  0 11G21G18G17G15G14G29G26G23G22G 6G 3
  21640718.842    -3506885.51949  -2715712.14147  21640718.243    21640726.453
  20385444.877     -586580.88849   -327647.31847  20385444.301    20385450.367
  20646663.695       -3343.98149      4601.69447  20646663.022    20646670.607
  20350078.149     -887829.32649   -681548.93647  20350077.335    20350084.877
  24281941.535    -5600468.42149  -4329336.03045  24281941.231    24281954.124
  24295765.633     4242294.81149   3301231.33145  24295765.461    24295774.222
  23249047.569     4101417.51649   3141155.84545  23249047.469    23249056.073
  23955880.918     4450490.29249   3460304.57245  23955880.099    23955889.771
  24736325.084     3195458.80849   2453434.67245  24736323.979    24736337.784
  23288629.277     5630507.10349   4378197.70445  23288629.037    23288640.796
  22635046.450    -5493763.70649  -4262666.51246  22635046.034    22635054.777
 02  7 11 17 34  0.0000000  0 11G21G18G17G15G14G29G26G23G22G 6G 3
  21633539.309    -3544613.93849  -2745110.87647  21633538.713    21633546.915
  20387770.553     -574359.30849   -318124.00347  20387769.971    20387776.026
  20650165.860       15059.90149     18942.35447  20650165.188    20650172.788
  20351013.588     -882913.79949   -677718.66147  20351012.767    20351020.297
  24260225.212    -5714588.00749  -4418260.20345  24260224.787    24260237.674
  24312472.952     4330091.84549   3369644.50345  24312472.665    24312481.619
  23266106.762     4191063.98649   3211010.14545  23266106.669    23266115.339
  23971360.001     4531832.97749   3523688.37545  23971359.193    23971368.845
  24749218.340     3263213.22449   2506230.15945  24749217.123    24749231.106
  23308951.562     5737300.52349   4461413.13945  23308951.269    23308963.092
  22621772.442    -5563518.85749  -4317021.13346  22621772.024    22621780.821
 02  7 11 17 34 30.0000000  0 11G21G18G17G15G14G29G26G23G22G 6G 3
  21626408.685    -3582085.38549  -2774309.37447  21626408.089    21626416.301
  20390162.083     -561791.83249   -308331.15647  20390161.495    20390167.542
  20653723.141       33753.39749     33508.68747  20653722.465    20653730.067
  20352007.664     -877689.97649   -673648.14747  20352006.829    20352014.341
  24238519.309    -5828652.57249  -4507141.49045  24238518.782    24238531.799
  24329232.281     4418162.31749   3438270.75745  24329232.013    24329241.014
  23283240.911     4281104.29249   3281171.33345  23283240.837    23283249.560
  23986837.972     4613169.53549   3587067.41245  23986837.068    23986846.744
  24762141.205     3331122.80049   2559146.56345  24762140.117    24762154.102
  23329307.153     5844269.06449   4544765.03945  23329306.897    23329318.786
  22608576.892    -5632861.85949  -4371054.59546  22608576.428    22608585.276
 02  7 11 17 35  0.0000000  0 11G21G18G17G15G14G29G26G23G22G 6G 3
  21619327.025    -3619299.71749  -2803307.52747  21619326.422    21619334.654
  20392619.229     -548879.63449   -298269.70147  20392618.644    20392624.640
  20657335.743       52737.60449     48301.54647  20657335.065    20657342.687
  20353060.599     -872156.92149   -669336.68247  20353059.780    20353067.281
  24216824.484    -5942659.43949  -4595977.79545  24216823.942    24216836.902
  24346043.215     4506503.71849   3507108.11745  24346043.095    24346051.894
  23300449.519     4371535.87649   3351637.41345  23300449.424    23300458.242
  24002314.604     4694499.19649   3650441.06545  24002313.774    24002323.358
  24775093.070     3399184.69349   2612181.67745  24775091.911    24775105.797
  23349695.651     5951410.38249   4628251.56445  23349695.332    23349707.312
  22595460.187    -5701790.44149  -4424765.12346  22595459.729    22595468.574
 02  7 11 17 35 30.0000000  0 11G21G18G17G15G14G29G26G23G22G 6G 3
  21612294.026    -3656258.06049  -2832106.20147  21612293.421    21612301.683
  20395141.630     -535624.28449   -287940.85247  20395141.038    20395147.032
  20661003.769       72012.92049     63321.24147  20661003.085    20661010.724
  20354172.463     -866314.19649   -664783.91347  20354171.630    20354179.122
  24195140.939    -6056606.47049  -4684767.46745  24195140.393    24195153.453
  24362905.165     4595113.47949   3576154.60545  24362904.933    24362913.961
  23317731.997     4462355.28549   3422405.68845  23317731.890    23317740.679
  24017789.709     4775820.76349   3713808.42645  24017788.931    24017798.419
  24788073.278     3467395.82249   2665333.08345  24788072.125    24788086.327
  23370116.525     6058721.70249   4711870.56445  23370116.244    23370128.125
  22582422.813    -5770302.27949  -4478150.92246  22582422.364    22582431.187
 02  7 11 17 36  0.0000000  0 11G21G18G17G15G14G29G26G23G22G 6G 3
  21605309.718    -3692960.78549  -2860705.69747  21605309.126    21605317.356
  20397729.171     -522026.76749   -277345.39247  20397728.576    20397734.539
  20664727.322       91580.27949     78568.50247  20664726.638    20664734.316
  20355343.393     -860160.83749   -659989.09747  20355342.559    20355350.058
  24173469.386    -6170490.44849  -4773508.00745  24173468.856    24173481.844
  24379817.676     4683989.33049   3645408.43145  24379817.514    24379826.496
  23335087.792     4553559.88349   3493474.11445  23335087.675    23335096.419
  24033263.051     4857133.22049   3777168.68245  24033262.308    24033271.682
  24801081.450     3535753.48849   2718598.64645  24801080.209    24801094.446
  23390569.259     6166200.71549   4795620.23345  23390569.025    23390580.995
  22569465.194    -5838395.14749  -4531210.24846  22569464.704    22569473.502
 02  7 11 17 36 30.0000000  0 11G21G18G17G15G14G29G26G23G22G 6G 3
  21598373.906    -3729408.74849  -2889106.67647  21598373.307    21598381.502
  20400381.538     -508088.53149   -266484.42547  20400380.960    20400386.888
  20668506.533      111440.21549     94043.74647  20668505.861    20668513.546
  20356573.646     -853696.08949   -654951.63347  20356572.818    20356580.281
  24151810.302    -6284309.18449  -4862197.70745  24151809.790    24151822.802
  24396780.326     4773128.47449   3714867.42245  24396780.140    24396789.228
  23352516.235     4645146.36449   3564840.11445  23352516.119    23352524.837
  24048734.445     4938435.45149   3840520.97345  24048733.737    24048743.058
  24814116.785     3604254.49549   2771975.89045  24814115.625    24814129.924
  23411053.459     6273844.76949   4879498.50145  23411053.174    23411065.158
  22556587.609    -5906067.21249  -4583941.67746  22556587.109    22556595.836
 02  7 11 17 37  0.0000000  0 11G21G18G17G15G14G29G26G23G22G 6G 3
  21591486.525    -3765602.16149  -2917309.30947  21591485.915    21591494.091
  20403098.558     -493810.65549   -255358.79847  20403097.979    20403103.877
  20672341.608      131593.53349    109747.59447  20672340.946    20672348.633
  20357863.309     -846918.98849   -649670.77947  20357862.455    20357869.938
  24130164.103    -6398060.12949  -4950834.57845  24130163.626    24130176.528
  24413792.647     4862528.37349   3784529.58245  24413792.443    24413801.557
  23370016.737     4737111.83449   3636501.42845  23370016.574    23370025.421
  24064203.704     5019726.46149   3903864.53745  24064202.999    24064212.265
  24827179.093     3672896.06449   2825462.72045  24827178.082    24827191.925
  23431568.621     6381651.41049   4963503.45745  23431568.352    23431580.318
  22543790.559    -5973316.01849  -4636343.31046  22543790.069    22543798.726
 02  7 11 17 37 30.0000000  0 11G21G18G17G15G14G29G26G23G22G 6G 3
  21584647.548    -3801541.16649  -2945313.69747  21584646.960    21584655.102
  20405880.017     -479194.02049   -243969.20947  20405879.434    20405885.299
  20676232.779      152041.44449    125680.99647  20676232.102    20676239.812
  20359212.557     -839828.69149   -644145.87247  20359211.701    20359219.172
  24108531.462    -6511740.08849  -5039416.13545  24108530.931    24108543.652
  24430854.188     4952187.19649   3854393.51245  24430854.021    24430863.181
  23387588.870     4829453.72249   3708456.05745  23387588.710    23387597.570
  24079670.688     5101005.66949   3967198.89345  24079669.971    24079679.391
  24840267.587     3741675.70349   2879057.10545  24840266.591    24840280.430
  23452114.297     6489618.70049   5047633.59045  23452113.989    23452126.020
  22531074.524    -6040138.98449  -4688413.11446  22531074.082    22531082.727
 02  7 11 17 38  0.0000000  0 10G21G18G17G15G14G29G26G23G 6G 3
  21577857.637    -3837222.32249  -2973117.16947  21577857.050    21577865.160
  20408726.343     -464236.69049   -232314.15347  20408725.743    20408731.586
  20680180.787      172788.17049    141847.24047  20680180.109    20680187.836
  20360622.135     -832421.23849   -638373.83647  20360621.305    20360628.791
  24086913.373    -6625343.25849  -5127937.87245  24086912.848    24086925.557
  24447965.224     5042105.61549   3924459.72945  24447964.936    24447973.941
  23405232.725     4922172.39649   3780704.28545  23405232.664    23405241.436
  24095135.845     5182275.33649   4030525.80445  24095135.115    24095144.620
  23472690.720     6597747.39049   5131889.48745  23472690.344    23472702.420
  22518440.619    -6106530.58549  -4740146.79146  22518440.158    22518448.758
 02  7 11 17 38 30.0000000  0 10G21G18G17G15G14G29G26G23G 6G 3
  21571116.237    -3872648.51549  -3000721.96147  21571115.667    21571123.753
  20411636.911     -448941.67649   -220395.96047  20411636.318    20411642.143
  20684185.340      193832.35349    158245.27547  20684184.677    20684192.429
  20362091.834     -824697.93749   -632355.68847  20362091.008    20362098.462
  24065310.002    -6738868.82249  -5216399.13545  24065309.553    24065322.084
  24465124.827     5132279.42749   3994724.96445  24465124.556    24465133.562
  23422947.394     5015262.97449   3853242.31645  23422947.301    23422956.068
  24110598.667     5263532.72249   4093843.15945  24110597.940    24110607.519
  23493297.012     6706033.00549   5216267.67045  23493296.739    23493308.681
  22505888.840    -6172490.60749  -4791544.18046  22505888.357    22505896.968
 02  7 11 17 39  0.0000000  0 10G21G18G17G15G14G29G26G23G 6G 3
  21564422.442    -3907824.70949  -3028131.95247  21564421.861    21564429.920
  20414610.702     -433314.33949   -208218.82247  20414610.129    20414615.946
  20688245.899      215170.53949    174872.39547  20688245.246    20688253.014
  20363621.048     -816661.87249   -626093.82647  20363620.219    20363627.660
  24043721.079    -6852318.55249  -5304801.33345  24043720.579    24043733.060
  24482331.739     5222701.71249   4065183.79845  24482331.534    24482340.409
  23440731.371     5108718.21349   3926064.49245  23440731.249    23440740.163
  24126058.216     5344772.60549   4157146.87345  24126057.448    24126067.107
  23513931.824     6814468.81549   5300762.90245  23513931.543    23513943.553
  22493418.812    -6238020.90449  -4842606.71546  22493418.350    22493426.945
 02  7 11 17 39 30.0000000  0 10G21G18G17G15G14G29G26G23G 6G 3
  21557776.340    -3942750.13349  -3055346.53447  21557775.752    21557783.790
  20417647.564     -417355.41449   -195783.31247  20417646.977    20417652.816
  20692362.814      236804.61249    191730.08447  20692362.136    20692369.880
  20365210.062     -808311.57449   -619587.10847  20365209.229    20365216.669
  24022147.241    -6965688.86549  -5393141.65345  24022146.794    24022159.116
  24499585.545     5313370.89149   4135835.01945  24499585.370    24499594.348
  23458584.365     5202536.02549   3999169.19445  23458584.320    23458593.181
  24141514.387     5425995.03949   4220436.98645  24141513.678    24141523.304
  23534594.929     6923053.39249   5385374.03545  23534594.598    23534606.791
  22481031.116    -6303118.49049  -4893332.05946  22481030.656    22481039.218
 02  7 11 17 40  0.0000000  0 10G21G18G17G15G14G29G26G23G 6G 3
  21551178.004    -3977424.46249  -3082365.45647  21551177.401    21551185.477
  20420747.502     -401065.35649   -183089.77447  20420746.921    20420752.750
  20696536.223      258735.84349    208819.32247  20696535.537    20696543.287
  20366859.143     -799645.57649   -612834.39047  20366858.308    20366865.795
  24000589.195    -7078976.46449  -5481417.52845  24000588.729    24000600.900
  24516886.011     5404285.18549   4206677.23145  24516885.743    24516894.982
  23476505.927     5296714.09249   4072554.62245  23476505.833    23476514.719
  24156967.246     5507199.78749   4283713.29245  24156966.521    24156976.121
  23555285.976     7031784.82949   5470099.60245  23555285.615    23555297.820
  22468726.284    -6367780.68049  -4943718.14846  22468725.825    22468734.381
 02  7 11 17 40 30.0000000  0 10G21G18G17G15G14G29G26G23G 6G 3
  21544627.434    -4011847.86449  -3109188.85147  21544626.815    21544634.910
  20423910.261     -384444.93749   -170138.80147  20423909.691    20423915.531
  20700766.371      280965.38349    226141.00647  20700765.718    20700773.446
  20368568.478     -790662.73749   -605834.78947  20368567.644    20368575.153
  23979047.508    -7192178.23249  -5569626.55145  23979046.981    23979059.224
  24534232.715     5495442.62249   4277708.89645  24534232.404    24534241.901
  23494495.592     5391249.93149   4146218.82145  23494495.569    23494504.422
  24172416.557     5588386.26949   4346975.38845  24172415.885    24172425.583
  23576004.693     7140661.18249   5554938.09045  23576004.201    23576016.578
  22456504.751    -6432005.00949  -4993763.04546  22456504.345    22456512.866
 02  7 11 17 41  0.0000000  0 10G21G18G17G15G14G29G26G23G 6G 3
  21538124.565    -4046020.57149  -3135816.90047  21538123.957    21538132.039
  20427135.681     -367495.13949   -156931.15647  20427135.089    20427140.973
  20705053.506      303494.16149    243695.86847  20705052.830    20705060.549
  20370338.339     -781362.02449   -598587.49247  20370337.509    20370345.050
  23957522.676    -7305291.32349  -5657766.47745  23957522.103    23957534.309
  24551625.235     5586840.78149   4348928.14445  24551624.824    24551634.480
  23512552.730     5486140.61449   4220159.53245  23512552.748    23512561.529
  24187862.240     5669553.84449   4410222.75045  24187861.561    24187871.327
  23596750.434     7249680.13649   5639887.69045  23596749.929    23596762.413
  22444367.053    -6495788.96149  -5043464.79346  22444366.609    22444375.166
 02  7 11 17 41 30.0000000  0 10G21G18G17G15G14G29G26G23G 6G 3
  21531669.236    -4079943.11549  -3162250.01547  21531668.636    21531676.766
  20430423.570     -350217.17449   -143467.80647  20430422.982    20430428.893
  20709397.764      326323.03049    261484.56847  20709397.093    20709404.798
  20372168.848     -771742.67249   -591091.90447  20372168.021    20372175.548
  23936015.251    -7418313.15349  -5745835.30745  23936014.702    23936026.890
  24569063.151     5678477.35549   4420333.18245  24569062.821    24569072.378
  23530676.894     5581383.30949   4294374.53045  23530676.961    23530685.694
  24203304.171     5750701.48949   4473454.58145  24203303.462    24203313.295
  23617522.916     7358839.19149   5724946.46645  23617522.479    23617534.943
  22432313.535    -6559130.29149  -5092821.64146  22432313.093    22432321.672
 02  7 11 17 42  0.0000000  0 10G21G18G17G15G14G29G26G23G 6G 3
  21525261.423    -4113616.19149  -3188488.74047  21525260.802    21525268.965
  20433773.598     -332612.52949   -129749.91647  20433773.003    20433778.932
  20713799.178      349452.59949    279507.57747  20713798.506    20713806.245
  20374060.146     -761803.96449   -583347.47347  20374059.322    20374066.853
  23914525.640    -7531241.07349  -5833830.96745  23914525.019    23914537.235
  24586545.947     5770349.76749   4491921.98145  24586545.748    24586555.007
  23548867.538     5676974.92649   4368861.42245  23548867.538    23548876.199
  24218742.166     5831828.34649   4536670.20145  24218741.494    24218751.270
  23638321.507     7468135.76449   5810112.38645  23638321.130    23638333.596
  22420344.624    -6622026.93049  -5141831.97946  22420344.179    22420352.803
 02  7 11 17 42 30.0000000  0 10G21G18G17G15G14G29G26G23G 6G 3
  21518900.962    -4147040.47949  -3214533.60547  21518900.345    21518908.536
  20437185.625     -314682.19449   -115778.25547  20437185.041    20437190.996
  20718258.052      372884.01849    297765.79547  20718257.389    20718265.166
  20376012.377     -751545.05949   -575353.53447  20376011.551    20376019.090
  23893054.530    -7644072.16249  -5921751.16345  23893053.863    23893066.098
  24604073.269     5862455.88949   4563692.89445  24604073.044    24604082.328
  23567124.014     5772912.62849   4443617.98645  23567123.950    23567132.656
  24234176.074     5912933.78149   4599869.12945  24234175.429    24234185.346
  23659145.842     7577567.55449   5895383.69445  23659145.524    23659158.039
  22408460.792    -6684476.54249  -5190493.98146  22408460.356    22408468.981
 02  7 11 17 43  0.0000000  0 10G21G18G17G15G14G29G26G23G 6G 3
  21512587.633    -4180216.95049  -3240385.36747  21512587.026    21512595.237
  20440659.326     -296427.69949   -101554.00247  20440658.756    20440664.726
  20722774.414      396617.56849    316259.44547  20722773.742    20722781.502
  20378025.608     -740965.44549   -567109.68947  20378024.787    20378032.332
  23871602.270    -7756804.06849  -6009594.08145  23871601.644    23871613.789
  24621644.393     5954792.52449   4635643.42245  24621644.060    24621653.227
  23585445.692     5869193.21549   4518641.74045  23585445.586    23585454.337
  24249605.692     5994016.39849   4663050.27845  24249605.038    24249615.072
  23679995.439     7687131.77749   5980758.18045  23679995.081    23680007.658
  22396662.403    -6746477.48449  -5238806.36446  22396661.983    22396670.546
 02  7 11 17 43 30.0000000  0 10G21G18G17G15G14G29G26G23G 6G 3
  21506321.579    -4213145.00749  -3266043.55947  21506320.984    21506329.189
  20444194.523     -277850.01749    -87077.90747  20444193.959    20444199.923
  20727348.506      420654.29849    334989.34447  20727347.836    20727355.548
  20380100.146     -730063.73649   -558614.85947  20380099.311    20380106.866
  23850169.418    -7869433.95849  -6097357.50745  23850168.782    23850180.834
  24639259.043     6047357.78049   4707772.10245  24639258.656    24639267.957
  23603832.048     5965813.82849   4593930.45045  23603831.887    23603840.676
  24265030.896     6075075.81249   4726213.35345  24265030.229    24265040.285
  23700869.755     7796826.32149   6066234.21845  23700869.449    23700882.088
  22384949.836    -6808027.31449  -5286767.23046  22384949.382    22384957.988
 02  7 11 17 44  0.0000000  0 10G21G18G17G15G14G29G26G23G 6G 3
  21500102.586    -4245825.94249  -3291509.18647  21500101.999    21500110.187
  20447790.967     -258950.72949    -72351.21247  20447790.379    20447796.380
  20731980.351      444994.60749    353955.79347  20731979.659    20731987.413
  20382235.997     -718839.76349   -549868.91547  20382235.152    20382242.693
  23828756.439    -7981959.43049  -6185039.56745  23828755.806    23828767.828
  24656916.678     6140148.91049   4780076.78545  24656916.282    24656925.656
  23622282.514     6062771.27449   4669481.60545  23622282.394    23622291.117
  24280451.482     6156110.91749   4789357.47845  24280450.804    24280460.792
  23721768.371     7906648.39149   6151809.63145  23721767.932    23721780.738
  22373323.469    -6869124.18049  -5334375.14346  22373323.031    22373331.651
 02  7 11 17 44 30.0000000  0 10G21G18G17G15G14G29G26G23G 6G 3
  21493930.716    -4278259.37249  -3316781.95447  21493930.112    21493938.277
  20451448.493     -239730.45149    -57374.39147  20451447.917    20451453.913
  20736670.214      469639.99249    373159.96447  20736669.532    20736677.303
  20384433.435     -707292.20049   -540870.82247  20384432.591    20384440.146
  23807363.996    -8094377.16549  -6272637.66045  23807363.275    23807375.252
  24674616.966     6233164.13249   4852556.09045  24674616.568    24674625.892
  23640796.614     6160063.25549   4745293.45145  23640796.517    23640805.177
  24295867.423     6237121.50949   4852482.49845  24295866.721    24295876.606
  23742690.936     8016596.30349   6237483.09645  23742690.527    23742703.430
  22361783.808    -6929765.30649  -5381627.92946  22361783.380    22361792.059
 02  7 11 17 45  0.0000000  0 10G21G18G17G15G14G29G26G23G 6G 3
  21487805.586    -4310446.95149  -3341863.14647  21487804.992    21487813.142
  20455166.628     -220191.60449    -42149.32647  20455166.053    20455172.043
  20741418.073      494589.96049    392601.47847  20741417.395    20741425.182
  20386692.342     -695421.38949   -531620.84647  20386691.517    20386699.071
  23785992.376    -8206685.59849  -6360150.58645  23785991.571    23786003.533
  24692359.236     6326399.70449   4925207.10245  24692358.865    24692368.101
  23659373.589     6257685.53749   4821362.67645  23659373.496    23659382.192
  24311278.333     6318105.57049   4915586.85045  24311277.623    24311287.436
  23763636.670     8126666.18349   6323251.60445  23763636.326    23763649.259
  22350331.038    -6989949.84549  -5428524.92546  22350330.648    22350339.328
 02  7 11 17 45 30.0000000  0 10G21G18G17G15G14G29G26G23G 6G 3
  21481727.367    -4342388.22949  -3366752.42247  21481726.760    21481734.902
  20458945.311     -200334.74649    -26676.45847  20458944.717    20458950.695
  20746224.165      519846.00349    412281.49047  20746223.478    20746231.269
  20389013.080     -683226.01749   -522117.97247  20389012.261    20389019.798
  23764642.095    -8318881.55549  -6447575.84945  23764641.301    23764653.292
  24710143.148     6419854.01449   4998028.55945  24710142.883    24710152.057
  23678012.986     6355635.83049   4897687.48445  23678012.893    23678021.644
  24326684.151     6399063.08649   4978670.51445  24326683.428    24326693.279
  23784605.308     8236856.21249   6409113.74045  23784605.020    23784617.862
  22338965.708    -7049674.91949  -5475063.91246  22338965.306    22338973.970
 02  7 11 17 46  0.0000000  0 11G21G 9G18G17G15G14G29G26G23G 6G 3
  21475695.800    -4374084.09549  -3391450.46447  21475695.186    21475703.341
  24453044.009    -2180977.58549  -1186410.31545  24453043.561    24453057.830
  20462784.219     -180161.13149    -10956.76647  20462783.630    20462789.639
  20751088.655      545408.97649    432200.67047  20751087.971    20751095.762
  20391395.796     -670705.05249   -512361.37947  20391394.971    20391402.513
  23743313.768    -8430962.04549  -6534911.10845  23743313.017    23743324.899
  24727968.135     6513524.58749   5071018.51345  24727968.043    24727977.244
  23696714.207     6453911.15649   4974265.57545  23696714.136    23696722.906
  24342084.631     6479993.17849   5041732.81645  24342083.896    24342093.858
  23805596.371     8347164.16249   6495067.75945  23805595.989    23805608.979
  22327688.193    -7108938.76149  -5521243.48946  22327687.704    22327696.423
 02  7 11 17 46 30.0000000  0 11G21G 9G18G17G15G14G29G26G23G 6G 3
  21469710.789    -4405535.32649  -3415957.88647  21469710.189    21469718.352
  24439633.483    -2251449.72349  -1241323.55545  24439632.915    24439647.386
  20466683.100     -159672.41449      5008.45247  20466682.531    20466688.538
  20756011.578      571279.20349    452359.26247  20756010.903    20756018.692
  20393840.460     -657858.12949   -502350.79747  20393839.638    20393847.179
  23722007.808    -8542924.77649  -6622154.59445  23722007.106    23722018.931
  24745833.743     6607408.53949   5144174.74745  24745833.556    24745842.817
  23715476.769     6552508.37849   5051094.48545  23715476.657    23715485.470
  24357479.746     6560894.88149   5104772.97945  24357479.039    24357489.066
  23826609.257     8457587.25949   6581111.50245  23826608.871    23826621.967
  22316498.769    -7167739.48549  -5567062.20546  22316498.290    22316506.983
 02  7 11 17 47  0.0000000  0 11G21G 9G18G17G15G14G29G26G23G 6G 3
  21463772.328    -4436742.11249  -3440274.83247  21463771.730    21463779.895
  24426262.006    -2321716.66149  -1296076.90145  24426261.561    24426276.076
  20470641.786     -138869.41249     21218.57047  20470641.210    20470647.213
  20760993.192      597457.75349    472758.11447  20760992.524    20761000.335
  20396347.314     -644684.57249   -492085.68947  20396346.513    20396354.052
  23700724.846    -8654767.06149  -6709304.22445  23700724.130    23700735.946
  24763739.503     6701503.91649   5217495.74345  24763739.331    24763748.684
  23734299.926     6651424.56849   5128171.94345  23734299.767    23734308.618
  24372869.341     6641767.56149   5167790.53745  24372868.644    24372878.593
  23847643.690     8568123.22749   6667243.19945  23847643.319    23847656.464
  22305397.897    -7226074.68249  -5612518.17046  22305397.455    22305406.124
 02  7 11 17 47 30.0000000  0 11G21G 9G18G17G15G14G29G26G23G 6G 3
  21457880.300    -4467704.91649  -3464401.66347  21457879.689    21457887.832
  24412930.178    -2391775.53549  -1350668.12745  24412929.771    24412944.185
  20474659.952     -117753.78649     37672.30247  20474659.368    20474665.401
  20766033.517      623944.84649    493397.38947  20766032.845    20766040.676
  20398916.414     -631183.94449   -481565.72247  20398915.595    20398923.131
  23679465.147    -8766486.57849  -6796358.15945  23679464.538    23679476.313
  24781684.954     6795807.67449   5290979.09445  24781684.657    24781694.298
  23753183.195     6750656.40449   5205495.36345  23753183.033    23753191.859
  24388253.213     6722610.04049   5230784.55945  24388252.474    24388262.495
  23868699.087     8678769.24749   6753460.65345  23868698.813    23868712.018
  22294385.911    -7283942.85349  -5657610.21446  22294385.498    22294394.158
 02  7 11 17 48  0.0000000  0 11G21G 9G18G17G15G14G29G26G23G 6G 3
  21452034.523    -4498424.60249  -3488339.04747  21452033.916    21452042.033
  24399638.562    -2461622.98749  -1405094.61445  24399638.202    24399652.668
  20478737.386      -96326.78649     54368.66347  20478736.815    20478742.834
  20771132.732      650741.40349    514277.79847  20771132.074    20771139.934
  20401547.976     -617355.15649   -470790.05147  20401547.163    20401554.716
  23658229.403    -8878080.35849  -6883314.10945  23658228.779    23658240.517
  24799669.583     6890317.45949   5364622.99745  24799669.326    24799679.057
  23772125.958     6850201.02749   5283062.50045  23772125.790    23772134.640
  24403631.307     6803421.69349   5293754.56945  24403630.558    24403640.547
  23889774.975     8789522.85149   6839761.94645  23889774.803    23889787.909
  22283463.239    -7341341.97149  -5702336.77046  22283462.840    22283471.439
 02  7 11 17 48 30.0000000  0 11G21G 9G18G17G15G14G29G26G23G 6G 3
  21446235.011    -4528901.27449  -3512087.07647  21446234.401    21446242.514
  24386387.904    -2531255.32549  -1459353.46945  24386387.606    24386402.082
  20482873.912      -74589.34849     71306.93147  20482873.332    20482879.333
  20776291.031      677848.30249    535400.02847  20776290.363    20776298.226
  20404242.119     -603197.39949   -459758.04247  20404241.308    20404248.867
  23637018.076    -8989545.67049  -6970169.96045  23637017.394    23637029.145
  24817693.072     6985031.29049   5438425.89645  24817692.959    24817702.523
  23791127.752     6950055.73849   5360871.27745  23791127.595    23791136.490
  24419003.380     6884202.04549   5356700.18345  24419002.785    24419012.650
  23910870.910     8900381.64749   6926145.20245  23910870.609    23910883.862
  22272630.186    -7398269.77149  -5746696.07146  22272629.819    22272638.379
 02  7 11 17 49  0.0000000  0 11G21G 9G18G17G15G14G29G26G23G 6G 3
  21440481.411    -4559136.49549  -3535646.96247  21440480.814    21440488.916
  24373178.626    -2600669.84849  -1513442.58245  24373178.260    24373192.747
  20487069.145      -52543.43449     88485.56847  20487068.577    20487074.532
  20781508.413      705265.74349    556764.24947  20781507.742    20781515.630
  20406998.876     -588710.46149   -448469.52847  20406998.049    20407005.641
  23615831.642    -9100880.12449  -7056923.82145  23615831.051    23615842.714
  24835754.844     7079946.08649   5512385.39745  24835754.555    24835764.262
  23810187.860     7050216.92949   5438918.87145  23810187.800    23810196.633
  24434369.244     6964949.78449   5419620.39345  24434368.698    24434378.644
  23931986.322     9011342.87449   7012608.27245  23931986.041    23931999.302
  22261887.131    -7454724.78449  -5790686.94846  22261886.736    22261895.291
 02  7 11 17 49 30.0000000  0 11G21G 9G18G17G15G14G29G26G23G 6G 3
  21434773.716    -4589130.37749  -3559018.78547  21434773.115    21434781.218
  24360011.533    -2669863.22449  -1567359.36945  24360011.066    24360025.741
  20491322.871      -30190.06349    105903.78047  20491322.283    20491328.240
  20786785.050      732994.61449    578371.14047  20786784.389    20786792.308
  20409818.454     -573893.52249   -436923.87047  20409817.637    20409825.238
  23594670.587    -9212081.21149  -7143573.78245  23594669.990    23594681.614
  24853854.390     7175059.55049   5586499.69345  24853854.094    24853863.809
  23829305.808     7150681.72649   5517203.04245  23829305.794    23829314.603
  24449728.745     7045664.26049   5482514.67045  24449728.215    24449738.245
  23953120.780     9122404.21749   7099149.36545  23953120.509    23953133.816
  22251234.470    -7510704.87349  -5834307.76346  22251234.041    22251242.617
 02  7 11 17 50  0.0000000  0 10G21G 9G18G17G15G14G26G23G 6G 3
  21429111.811    -4618883.74849  -3582203.20147  21429111.215    21429119.281
  24346887.085    -2738832.32549  -1621101.37145  24346886.631    24346901.260
  20495634.781       -7530.84749    123560.30347  20495634.188    20495640.140
  20792121.085      761035.34849    600221.03447  20792120.424    20792128.310
  20412700.911     -558746.02949   -425120.63747  20412700.092    20412707.690
  23573535.454    -9323146.38549  -7230117.83645  23573534.872    23573546.362
  23848480.927     7251446.94049   5595721.32045  23848480.870    23848489.663
  24465081.813     7126344.60449   5545382.35145  24465081.147    24465091.217
  23974273.826     9233562.95949   7185766.34445  23974273.455    23974286.945
  22240672.463    -7566208.33049  -5877557.17646  22240672.023    22240680.609
 02  7 11 17 50 30.0000000  0 10G21G 9G18G17G15G14G26G23G 6G 3
  21423495.701    -4648396.47449  -3605200.10347  21423495.103    21423503.144
  24333805.989    -2807573.60949  -1674665.83845  24333805.587    24333820.114
  20500004.713       15433.44249    141454.54547  20500004.132    20500010.080
  20797516.645      789388.94649    622314.71247  20797515.959    20797523.862
  20415646.483     -543267.03649   -413059.09947  20415645.663    20415653.251
  23552426.635    -9434072.81249  -7316553.78345  23552426.065    23552437.490
  23867712.575     7352509.82749   5674471.52245  23867712.456    23867721.398
  24480428.289     7206990.38849   5608223.10245  24480427.502    24480437.783
  23995444.952     9344816.88849   7272457.49345  23995444.699    23995458.174
  22230201.603    -7621233.06649  -5920433.56246  22230201.132    22230209.708
 02  7 11 17 51  0.0000000  0 10G21G 9G18G17G15G14G26G23G 6G 3
  21417925.251    -4677669.40749  -3628010.14747  21417924.649    21417932.659
  24320768.835    -2876083.79549  -1728050.22645  24320768.463    24320782.962
  20504432.468       38701.42449    159585.44147  20504431.887    20504437.842
  20802971.910      818056.40949    644652.96247  20802971.223    20802979.137
  20418655.278     -527455.84849   -400738.70647  20418654.460    20418662.018
  23531344.779    -9544857.61749  -7402879.37845  23531344.270    23531355.585
  23887000.335     7453867.62449   5753451.54045  23887000.163    23887009.269
  24495768.046     7287600.85549   5671036.33045  24495767.353    24495777.555
  24016633.742     9456163.69349   7359221.01945  24016633.501    24016646.989
  22219822.215    -7675777.01649  -5962935.30846  22219821.748    22219830.313
 02  7 11 17 51 30.0000000  0 10G21G 9G18G17G15G14G26G23G 6G 3
  21412400.206    -4706703.71149  -3650634.25147  21412399.604    21412407.595
  24307776.234    -2944359.76849  -1781252.07645  24307775.968    24307790.205
  20508917.705       62271.54649    177951.77447  20508917.112    20508923.093
  20808486.907      847037.90049    667235.90947  20808486.245    20808494.151
  20421727.342     -511311.97749   -388159.08647  20421726.523    20421734.113
  23510290.346    -9655498.52549  -7489092.87545  23510289.845    23510301.142
  23906343.622     7555516.79349   5832658.59545  23906343.502    23906352.567
  24511100.838     7368174.90849   5733821.19745  24511100.238    24511110.369
  24037839.633     9567600.48449   7446054.67345  24037839.360    24037852.972
  22209534.624    -7729838.60549  -6005061.19546  22209534.159    22209542.719
 02  7 11 17 52  0.0000000  0 10G21G 9G18G17G15G14G26G23G 6G 3
  21406920.529    -4735499.59549  -3673072.56947  21406919.948    21406927.924
  24294828.874    -3012398.05349  -1834268.69745  24294828.571    24294842.709
  20513460.269       86142.84249    196552.77847  20513459.687    20513465.672
  20814061.828      876334.26149    690064.21147  20814061.165    20814069.083
  20424862.943     -494834.41449   -375319.44347  20424862.122    20424869.731
  23489263.914    -9765992.50049  -7575191.88345  23489263.352    23489274.709
  23925741.823     7657454.75049   5912090.67545  23925741.653    23925750.766
  24526426.769     7448712.31549   5796577.48745  24526426.208    24526436.264
  24059062.219     9679125.06549   7532956.72345  24059061.868    24059075.626
  22199339.212    -7783415.73649  -6046809.56746  22199338.748    22199347.287
 02  7 11 17 52 30.0000000  0 10G21G 9G18G17G15G14G26G23G 6G 3
  21401486.110    -4764057.69549  -3695325.60747  21401485.510    21401493.459
  24281927.279    -3080195.91849  -1887097.95745  24281926.882    24281940.966
  20518059.841      110313.74849    215387.23847  20518059.253    20518065.254
  20819696.782      905945.75149    713138.06547  20819696.094    20819704.017
  20428062.126     -478022.77449   -362219.48447  20428061.307    20428068.887
  23468265.862    -9876337.44349  -7661174.76545  23468265.269    23468276.555
  23945194.346     7759677.98049   5991745.05445  23945194.126    23945203.348
  24541745.483     7529211.90149   5859304.32845  24541744.843    24541754.911
  24080300.920     9790734.60149   7619924.97745  24080300.484    24080314.433
  22189236.290    -7836506.91049  -6088179.27946  22189235.822    22189244.347
 02  7 11 17 53  0.0000000  0 10G21G 9G18G17G15G14G26G23G 6G 3
  21396096.864    -4792378.44449  -3717393.69047  21396096.271    21396104.175
  24269071.983    -3147750.22449  -1939737.40645  24269071.592    24269085.452
  20522716.125      134782.54549    234453.81947  20522715.520    20522721.518
  20825391.798      935873.10749    736458.05047  20825391.092    20825399.014
  20431324.974     -460876.64349   -348858.88247  20431324.149    20431331.732
  23447296.591    -9986530.86549  -7747039.60045  23447296.005    23447307.238
  23964700.570     7862183.50149   6071619.39945  23964700.373    23964709.595
  24557056.802     7609672.94949   5922001.13745  24557056.084    24557066.314
  24101555.344     9902426.52849   7706957.43745  24101555.100    24101568.950
  22179226.201    -7889110.26649  -6129168.86246  22179225.762    22179234.273
 02  7 11 17 53 30.0000000  0 10G21G 9G18G17G15G14G26G23G 6G 3
  21390752.648    -4820462.51949  -3739277.35647  21390752.041    21390759.919
  24256263.798    -3215056.94249  -1992183.90945  24256263.489    24256277.033
  20527429.057      159549.05549    253752.38047  20527428.447    20527434.441
  20831147.176      966117.69149    760025.22447  20831146.487    20831154.414
  20434651.709     -443394.70249   -335236.61747  20434650.875    20434658.445
  23426356.830   -10096569.29249  -7832783.66045  23426356.191    23426367.436
  23984260.031     7964968.83549   6151711.77645  23984259.822    23984269.137
  24572360.736     7690095.37449   5984667.84545  24572359.939    24572370.363
  24122825.140    10014198.99749   7794052.64545  24122824.915    24122838.889
  22169309.348    -7941223.37349  -6169776.44446  22169308.937    22169317.442
 02  7 11 17 54  0.0000000  0 10G21G 9G18G17G15G14G26G23G 6G 3
  21385453.334    -4848310.51149  -3760977.06647  21385452.729    21385460.581
  24243503.091    -3282113.80249  -2044435.70845  24243502.873    24243516.266
  20532198.158      184610.76949    273280.97247  20532197.555    20532203.558
  20836962.900      996679.27849    783839.41247  20836962.211    20836970.143
  20438042.294     -425577.17549   -321352.85147  20438041.468    20438049.021
  23405446.978   -10206450.67949  -7918405.37145  23405446.297    23405457.496
  24003872.087     8068030.42349   6232019.42045  24003871.995    24003881.271
  24587657.028     7770477.73449   6047303.33545  24587656.429    24587666.787
  24144109.563    10126048.70449   7881208.05145  24144109.361    24144123.380
  22159485.994    -7992845.23549  -6210001.22346  22159485.588    22159494.073
 02  7 11 17 54 30.0000000  0 10G21G 9G18G17G15G14G26G23G 6G 3
  21380198.818    -4875923.11949  -3782493.35947  21380198.197    21380206.047
  24230790.583    -3348917.23649  -2096490.02345  24230790.434    24230803.684
  20537023.327      209966.99449    293039.05647  20537022.725    20537028.728
  20842839.137     1027558.94349    807901.45947  20842838.453    20842846.379
  20441497.035     -407422.57449   -307206.43347  20441496.207    20441503.751
  23384567.569   -10316172.15649  -8003902.48545  23384566.952    23384578.065
  24023536.140     8171365.49049   6312540.14445  24023536.082    24023545.378
  24602945.709     7850819.88549   6109907.49045  24602944.936    24602955.658
  24165408.381    10237973.77149   7968422.16845  24165408.166    24165422.143
  22149756.608    -8043973.69349  -6249841.53546  22149756.133    22149764.632
 02  7 11 17 55  0.0000000  0 10G21G 9G18G17G15G14G26G23G 6G 3
  21374988.937    -4903301.13049  -3803826.85547  21374988.324    21374996.162
  24218126.823    -3415464.31249  -2148344.57045  24218126.561    24218140.021
  20541904.196      235616.06849    313025.33747  20541903.586    20541909.583
  20848775.956     1058756.94249    832211.55647  20848775.233    20848783.199
  20445015.919     -388930.87849   -292797.34047  20445015.081    20445022.652
  23363718.992   -10425731.43949  -8089273.22645  23363718.355    23363729.466
  24043251.594     8274970.73849   6393271.41545  24043251.564    24043260.940
  24618226.522     7931120.62849   6172479.36145  24618225.686    24618236.521
  24186720.988    10349971.24149   8055692.70545  24186720.741    24186734.689
  22140121.319    -8094607.26949  -6289296.22446  22140120.843    22140129.319
 02  7 11 17 55 30.0000000  0 10G21G 9G18G17G15G14G26G23G 6G 3
  21369823.728    -4930444.40549  -3824977.43647  21369823.109    21369830.919
  24205512.632    -3481751.28149  -2199996.44045  24205512.283    24205525.777
  20546840.618      261557.03349    333239.06847  20546840.018    20546845.995
  20854773.514     1090274.30149    856770.51547  20854772.821    20854780.808
  20448599.102     -370101.20349   -278124.88947  20448598.260    20448605.853
  23342901.868   -10535125.60649  -8174515.30145  23342901.256    23342912.245
  24063018.005     8378843.50049   6474211.14145  24063017.869    24063027.358
  24633499.394     8011379.71149   6235018.78745  24633498.684    24633509.506
  24208047.006    10462039.04749   8143018.04645  24208046.738    24208060.658
  22130580.653    -8144743.92949  -6328363.70746  22130580.188    22130588.588
 02  7 11 17 56  0.0000000  0 10G21G 9G18G17G15G14G26G23G 6G 3
  21364702.928    -4957354.24049  -3845946.11547  21364702.324    21364710.112
  24192948.479    -3547775.58749  -2251443.62745  24192948.011    24192961.544
  20551832.300      287788.17549    353678.90947  20551831.703    20551837.663
  20860831.834     1122111.05049    881578.34347  20860831.157    20860839.132
  20452246.696     -350933.19249   -263188.79747  20452245.845    20452253.426
  23322116.587   -10644352.45249  -8259627.01545  23322115.946    23322126.950
  24082834.617     8482980.26149   6555356.56845  24082834.580    24082843.980
  24648764.124     8091595.83749   6297524.74045  24648763.376    24648774.187
  24229385.844    10574174.19349   8230395.87545  24229385.375    24229399.399
  22121134.697    -8194382.56049  -6367043.11446  22121134.228    22121142.597
 02  7 11 17 56 30.0000000  0 10G21G 9G18G17G15G14G26G23G 6G 3
  21359626.501    -4984030.98949  -3866733.16747  21359625.899    21359633.692
  24180434.943    -3613533.60449  -2302683.31945  24180434.524    24180447.876
  20556878.969      314308.55649    374344.13047  20556878.359    20556884.330
  20866951.199     1154268.42049    906636.00947  20866950.521    20866958.517
  20455958.856     -331425.81849   -247988.26747  20455957.995    20455965.574
  23301363.763   -10753408.84449  -8344605.89645  23301363.122    23301374.044
  24102701.005     8587378.49349   6636705.75345  24102700.897    24102710.431
  24664020.756     8171768.92849   6359997.15645  24664019.965    24664030.786
  24250737.054    10686374.55949   8317824.50545  24250736.594    24250750.694
  22111783.955    -8243520.84349  -6405332.63946  22111783.501    22111791.891
 02  7 11 17 57  0.0000000  0 10G21G 9G18G17G15G14G26G23G 6G 3
  21354594.275    -5010475.53749  -3887339.28747  21354593.663    21354601.443
  24167972.621    -3679022.55349  -2353713.35145  24167972.152    24167985.520
  20561980.391      341116.60849    395233.50247  20561979.798    20561985.741
  20873131.625     1186746.56949    931943.62947  20873130.952    20873138.943
  20459735.641     -311578.72149   -232523.01547  20459734.790    20459742.362
  23280643.760   -10862292.59049  -8429450.26245  23280643.107    23280654.097
  24122616.551     8692034.87549   6718256.08745  24122616.410    24122625.927
  24679268.941     8251898.15149   6422435.39145  24679268.128    24679278.738
  24272100.049    10798637.30249   8405301.75045  24272099.665    24272113.797
  22102528.670    -8292157.38249  -6443231.20946  22102528.228    22102536.575
 02  7 11 17 57 30.0000000  0 10G21G 9G18G17G15G14G26G23G 6G 3
  21349606.219    -5036688.04449  -3907764.59347  21349605.606    21349613.384
  24155562.068    -3744238.80249  -2404530.89545  24155561.753    24155575.132
  20567136.333      368211.05849    416346.04847  20567135.728    20567141.686
  20879373.230     1219546.43449    957501.93947  20879372.571    20879380.541
  20463577.205     -291391.17649   -216792.47647  20463576.371    20463583.959
  23259957.107   -10971000.79349  -8514157.84545  23259956.468    23259967.396
  24142580.631     8796946.55449   6800005.34445  24142580.510    24142590.034
  24694508.708     8331983.09449   6484839.12245  24694508.048    24694518.299
  24293474.564    10910960.26049   8492825.90545  24293474.257    24293488.203
  22093369.327    -8340290.17549  -6480737.24946  22093368.849    22093377.188
 02  7 11 17 58  0.0000000  0 10G21G 9G18G17G15G14G26G23G 6G 3
  21344662.030    -5062669.89649  -3928010.16647  21344661.408    21344669.171
  24143204.026    -3809179.47449  -2455133.71545  24143203.819    24143217.119
  20572346.475      395590.59249    437680.74247  20572345.891    20572351.865
  20885676.179     1252668.38149    983311.22347  20885675.508    20885683.459
  20467483.692     -270862.65249   -200796.24347  20467482.846    20467490.441
  23239304.396   -11079530.97349  -8598726.69545  23239303.765    23239314.689
  24162592.767     8902110.47749   6881951.16045  24162592.685    24162602.046
  24709739.904     8412023.02049   6547207.77045  24709739.153    24709749.672
  24314860.070    11023340.79749   8580394.94145  24314859.862    24314873.799
  22084306.040    -8387917.93749  -6517849.75446  22084305.563    22084313.869
 02  7 11 17 58 30.0000000  0 10G21G 9G18G17G15G14G26G23G 6G 3
  21339761.643    -5088421.54449  -3948076.36147  21339761.011    21339768.778
  24130899.000    -3873841.58549  -2505519.48845  24130898.787    24130911.967
  20577610.591      423253.75949    459236.44947  20577610.007    20577615.973
  20892040.472     1286112.75349   1009371.74547  20892039.782    20892047.761
  20471455.075     -249992.81649   -184534.05147  20471454.247    20471461.860
  23218685.998   -11187880.58049  -8683154.82845  23218685.369    23218696.344
  24182652.227     9007523.39849   6964091.00945  24182652.188    24182661.562
  24724962.335     8492016.95549   6609540.57945  24724961.576    24724972.040
  24336255.944    11135776.14049   8668006.69045  24336255.630    24336269.750
  22075339.146    -8435039.07349  -6554567.49446  22075338.681    22075346.960
 02  7 11 17 59  0.0000000  0 10G21G 9G18G17G15G14G26G23G 6G 3
  21334905.085    -5113942.85549  -3967963.07947  21334904.463    21334912.213
  24118647.751    -3938221.49549  -2555685.38545  24118647.379    24118660.587
  20582928.479      451199.50449    481012.34347  20582927.895    20582933.860
  20898466.232     1319880.40449   1035684.17847  20898465.573    20898473.564
  20475491.587     -228780.79349   -168005.21547  20475490.753    20475498.379
  23198102.467   -11296046.94349  -8767440.19645  23198101.788    23198112.803
  24202758.542     9113182.53749   7046422.70545  24202758.469    24202767.882
  24740175.962     8571964.42849   6671837.18345  24740175.103    24740185.761
  24357661.773    11248264.09649   8755659.43145  24357661.492    24357675.816
  22066468.949    -8481651.84649  -6590889.10646  22066468.492    22066476.791
 02  7 11 17 59 30.0000000  0 10G21G 9G18G17G15G14G26G23G 6G 3
  21330092.125    -5139235.00249  -3987671.22847  21330091.515    21330099.262
  24106450.780    -4002315.91849  -2605628.84245  24106450.352    24106463.491
  20588299.954      479426.68649    503007.54047  20588299.367    20588305.336
  20904953.698     1353972.14949   1062249.14747  20904953.042    20904961.039
  20479593.354     -207225.78549   -151209.12647  20479592.533    20479600.168
  23177554.377   -11404027.23049  -8851580.54745  23177553.684    23177564.818
  24222911.241     9219085.21449   7128944.17045  24222911.118    24222920.665
  24755380.704     8651865.23749   6734097.43645  24755379.707    24755390.395
  24379077.266    11360802.43549   8843351.41745  24379076.866    24379091.329
  22057695.915    -8527754.34249  -6626813.10146  22057695.465    22057703.746
 02  7 11 18  0  0.0000000  0 10G21G 9G18G17G15G14G26G23G 6G 3
  21325322.638    -5164298.76849  -4007201.41147  21325322.027    21325329.786
  24094308.711    -4066121.81049  -2655347.47745  24094308.268    24094321.397
  20593724.619      507933.64649    525220.74547  20593724.042    20593730.011
  20911502.879     1388388.23649   1089066.85047  20911502.218    20911510.245
  20483760.563     -185327.19449   -134145.30947  20483759.738    20483767.356
  23157042.150   -11511818.95849  -8935573.98545  23157041.524    23157052.549
  24243109.572     9325228.09549   7211652.80745  24243109.435    24243119.089
  24770576.346     8731718.44549   6796320.58945  24770575.557    24770586.312
  24400501.910    11473388.50249   8931080.59445  24400501.604    24400516.087
  22049020.246    -8573345.12349  -6662338.35246  22049019.811    22049028.131
 02  7 11 18  0 30.0000000  0 10G21G 9G18G17G15G14G26G23G 6G 3
  21320596.536    -5189134.52749  -4026553.93447  21320595.909    21320603.681
  24082222.080    -4129636.55449  -2704839.26745  24082221.615    24082234.690
  20599202.279      536718.93449    547650.83547  20599201.699    20599207.702
  20918113.880     1423129.08949   1116137.62047  20918113.222    20918121.241
  20487993.155     -163084.95149   -116813.70947  20487992.298    20487999.931
  23136566.277   -11619419.83549  -9019418.69345  23136565.699    23136576.649
  24263352.990     9431607.92949   7294546.07345  24263352.920    24263362.625
  24785762.799     8811523.27849   6858506.06145  24785761.964    24785772.741
  24421934.977    11586019.41149   9018844.72645  24421934.426    24421949.005
  22040442.215    -8618422.91149  -6697463.87446  22040441.750    22040450.064
 02  7 11 18  1  0.0000000  0 10G21G 9G18G17G15G14G26G23G 6G 3
  21315913.765    -5213742.63749  -4045729.06547  21315913.160    21315920.890
  24070191.473    -4192856.64649  -2754101.46545  24070191.014    24070204.133
  20604732.729      565781.64749    570297.10247  20604732.161    20604738.177
  20924786.827     1458195.56049   1143462.11147  20924786.162    20924794.233
  20492291.292     -140498.03949    -99213.53647  20492290.452    20492298.098
  23116127.246   -11726827.10449  -9103112.54245  23116126.629    23116137.624
  24283641.042     9538222.12849   7377621.96945  24283640.956    24283650.836
  24800940.029     8891279.50549   6920653.66045  24800939.187    24800949.910
  24443376.205    11698693.15749   9106642.22945  24443375.404    24443390.483
  22031962.119    -8662986.14249  -6732188.44546  22031961.640    22031969.970
 02  7 11 18  1 30.0000000  0 10G21G 9G18G17G15G14G26G23G 6G 3
  21311274.117    -5238123.96349  -4064727.47847  21311273.522    21311281.255
  24058217.651    -4255778.61949  -2803131.38345  24058217.183    24058230.338
  20610315.762      595120.63349    593158.64647  20610315.186    20610321.216
  20931521.858     1493588.26649   1171040.81047  20931521.209    20931529.298
  20496655.196     -117565.66949    -81344.17647  20496654.351    20496661.992
  23095725.661   -11834037.79349  -9186653.21545  23095725.133    23095736.010
  24303973.235     9645067.86649   7460878.28345  24303973.000    24303982.914
  24816107.878     8970986.64649   6982763.00845  24816107.176    24816117.655
  24464825.210    11811407.25749   9194471.18145  24464824.403    24464839.513
  22023580.311    -8707032.82349  -6766510.51346  22023579.833    22023588.149
 02  7 11 18  2  0.0000000  0 10G21G 9G18G17G15G14G26G23G 6G 3
  21306677.490    -5262279.24049  -4083549.75247  21306676.885    21306684.633
  24046301.054    -4318399.80049  -2851926.92845  24046300.523    24046313.715
  20615951.008      624734.20549    616234.14847  20615950.444    20615956.476
  20938319.050     1529307.47349   1198873.92347  20938318.384    20938326.478
  20501084.902      -94287.50549    -63205.36947  20501084.065    20501091.682
  23075362.007   -11941049.47849  -9270038.80545  23075361.430    23075372.225
  24324348.839     9752141.85749   7544312.47445  24324348.634    24324358.591
  24831266.201     9050643.89849   7044833.46345  24831265.383    24831276.039
  24486281.329    11924159.07849   9282329.52045  24486280.730    24486295.570
  22015296.941    -8750561.84449  -6800429.21146  22015296.498    22015304.822
 02  7 11 18  2 30.0000000  0 10G21G 9G18G17G15G14G26G23G 6G 3
  21302123.825    -5286209.00949  -4102196.29847  21302123.217    21302130.969
  24034442.226    -4380717.18149  -2900485.76845  24034441.762    24034454.841
  20621638.315      654621.16349    639522.68047  20621637.747    20621643.803
  20945178.416     1565353.66349   1226961.83047  20945177.745    20945185.871
  20505580.469      -70663.25049    -44796.88047  20505579.623    20505587.258
  23055036.668   -12047859.83949  -9353267.54246  23055036.041    23055046.798
  24344767.201     9859441.02349   7627922.12745  24344767.008    24344776.965
  24846414.925     9130250.37849   7106864.36145  24846414.175    24846424.721
  24507744.155    12036945.93749   9370215.16845  24507743.742    24507758.593
  22007112.431    -8793571.75549  -6833943.40646  22007112.013    22007120.298
 02  7 11 18  3  0.0000000  0 10G21G 9G18G17G15G14G26G23G 6G 3
  21297612.909    -5309913.94549  -4120667.64947  21297612.290    21297620.018
  24022641.963    -4442727.32749  -2948805.20145  24022641.511    24022654.492
  20627377.434      684780.35749    663023.34547  20627376.874    20627382.913
  20952100.190     1601727.69349   1255305.19647  20952099.523    20952107.674
  20510142.058      -46691.91649    -26117.94047  20510141.225    20510148.884
  23034750.202   -12154465.93849  -9436337.09846  23034749.555    23034760.215
  24365227.993     9966962.79349   7711705.22445  24365227.953    24365237.691
  24861553.925     9209806.10249   7168855.72945  24861553.134    24861563.916
  24529213.360    12149765.85349   9458126.57445  24529212.788    24529227.791
  21999027.100    -8836060.46049  -6867051.46846  21999026.671    21999034.939
 02  7 11 18  3 30.0000000  0  9G21G 9G18G17G15G14G26G23G 3
  21293144.889    -5333393.44049  -4138963.33447  21293144.263    21293151.988
  24010900.966    -4504426.00049  -2996881.94745  24010900.549    24010913.490
  20633168.353      715211.67649    686736.05647  20633167.785    20633173.827
  20959084.609     1638430.98549   1283905.13147  20959083.948    20959092.114
  20514769.990      -22372.04449     -7167.40747  20514769.161    20514776.839
  23014503.266   -12260864.22949  -9519244.71646  23014502.582    23014513.086
  24385730.739    10074704.94849   7795660.06045  24385730.640    24385740.471
  24876683.348     9289311.48949   7230807.84845  24876682.761    24876693.287
  21991041.380    -8878025.70649  -6899751.63546  21991040.949    21991049.201
 02  7 11 18  4  0.0000000  0  9G21G 9G18G17G15G14G26G23G 3
  21288719.401    -5356649.28549  -4157084.75047  21288718.787    21288726.524
  23999219.577    -4565811.55449  -3044714.72145  23999219.167    23999231.909
  20639010.402      745911.81849    710658.23047  20639009.821    20639015.882
  20966131.517     1675462.56749   1312760.87747  20966130.859    20966139.030
  20519464.067        2295.35749     12053.91947  20519463.231    20519470.915
  22994296.044   -12367053.65149  -9601989.58346  22994295.361    22994305.799
  24406274.631    10182663.27949   7879783.35245  24406274.488    24406284.448
  24891802.823     9368764.45549   7292719.13945  24891802.124    24891812.821
  21983155.203    -8919467.74649  -6932044.11746  21983154.769    21983163.028
 02  7 11 18  4 30.0000000  0  9G21G 9G18G17G15G14G26G23G 3
  21284336.296    -5379682.51149  -4175032.69347  21284335.691    21284343.434
  23987598.372    -4626881.14849  -3092301.28845  23987597.912    23987610.632
  20644903.418      776879.60549    734788.96447  20644902.841    20644908.888
  20973240.923     1712822.79549   1341872.70847  20973240.258    20973248.470
  20524224.337       27310.49649     31546.21447  20524223.506    20524231.187
  22974129.030   -12473031.73649  -9684569.76046  22974128.332    22974138.708
  24426859.012    10290834.38849   7964072.45845  24426858.848    24426868.883
  24906912.194     9448164.24649   7354588.98845  24906911.474    24906922.324
  21975368.823    -8960385.34549  -6963927.93646  21975368.399    21975376.631
 02  7 11 18  5  0.0000000  0  9G21G 9G18G17G15G14G26G23G 3
  21279995.410    -5402493.89449  -4192807.76447  21279994.806    21280002.547
  23976037.988    -4687630.97149  -3139638.70445  23976037.594    23976050.237
  20650847.178      808114.25149    759127.64047  20650846.596    20650852.618
  20980413.073     1750512.65849   1371241.39447  20980412.393    20980420.651
  20529050.989       52674.54849     51310.38647  20529050.144    20529057.845
  22954002.751   -12578795.52749  -9766982.96446  22954002.085    22954012.411
  24447483.518    10399216.10849   8048525.66245  24447483.259    24447493.368
  24922011.461     9527510.87149   7416417.41245  24922010.761    24922021.588
  21967682.683    -9000776.26849  -6995401.35846  21967682.250    21967690.469
 02  7 11 18  5 30.0000000  0  9G21G 9G18G17G15G14G26G23G 3
  21275696.703    -5425083.71149  -4210410.19247  21275696.092    21275703.831
  23964538.975    -4748058.33149  -3186724.85645  23964538.605    23964551.130
  20656841.478      839614.34649    783673.16347  20656840.897    20656846.898
  20987648.002     1788532.37949   1400867.11147  20987647.344    20987655.620
  20533944.092       78387.92649     71346.76147  20533943.267    20533950.951
  22933917.726   -12684342.32749  -9849227.05746  22933917.070    22933927.408
  24468147.409    10507805.08949   8133140.37845  24468147.184    24468157.149
  24937100.523     9606803.73649   7478203.93945  24937099.874    24937110.604
  21960096.953    -9040639.55349  -7026463.63546  21960096.531    21960104.681
 02  7 11 18  6  0.0000000  0  9G21G 9G18G17G15G14G26G23G 3
  21271440.066    -5447452.41349  -4227840.32447  21271439.439    21271447.171
  23953101.884    -4808160.13249  -3233557.32045  23953101.463    23953113.984
  20662886.071      871378.77449    808424.65547  20662885.472    20662891.493
  20994945.890     1826882.77049   1430750.49247  20994945.242    20994953.477
  20538903.806      104451.24849     91655.82147  20538902.983    20538910.682
  22913874.453   -12789669.67549  -9931300.16146  22913873.836    22913884.126
  24488850.236    10616598.60449   8217914.45845  24488849.992    24488859.824
  24952179.192     9686042.42049   7539948.26845  24952178.626    24952189.473
  21952611.947    -9079973.69849  -7057113.59546  21952611.513    21952619.637
 02  7 11 18  6 30.0000000  0  9G21G 9G18G17G15G14G26G23G 3
  21267225.304    -5469600.87149  -4245098.83847  21267224.687    21267232.443
  23941727.433    -4867932.82749  -3280133.35145  23941726.988    23941739.606
  20668980.717      903406.40249    833381.23947  20668980.123    20668986.161
  21002306.821     1865564.40449   1460891.98347  21002306.176    21002314.389
  20543930.313      130865.56349    112238.38547  20543929.484    20543937.175
  22893873.532   -12894774.61649 -10013199.94046  22893872.932    22893883.189
  24509591.435    10725594.03849   8302845.89545  24509591.243    24509601.122
  24967247.552     9765226.75449   7601650.23645  24967247.034    24967258.082
  21945227.906    -9118776.90249  -7087349.84346  21945227.465    21945235.593
 02  7 11 18  7  0.0000000  0  8G21G 9G18G17G15G14G26G 3
  21263052.009    -5491531.59349  -4262187.68647  21263051.386    21263059.161
  23930415.858    -4927374.95049  -3326451.79545  23930415.428    23930428.028
  20675124.903      935694.28149    858540.62247  20675124.299    20675130.357
  21009730.571     1904576.34749   1491290.85847  21009729.907    21009738.144
  20549023.290      157629.27149    133093.20147  20549022.458    20549030.135
  22873915.022   -12999656.38949 -10094925.83046  22873914.419    22873924.702
  24530370.135    10834786.85649   8387931.13445  24530369.858    24530379.898
  21937944.820    -9157049.61849  -7117172.71146  21937944.378    21937952.523
 02  7 11 18  7 30.0000000  0  8G21G 9G18G17G15G14G26G 3
  21258920.616    -5513242.12949  -4279104.96347  21258919.986    21258927.768
  23919168.099    -4986481.55349  -3372508.79245  23919167.775    23919180.154
  20681318.737      968243.15749    883903.37347  20681318.141    20681324.207
  21017217.585     1943920.84949   1521948.87147  21017216.924    21017225.177
  20554183.275      184744.87149    154222.21347  20554182.445    20554190.104
  22853999.906   -13104310.27649 -10176474.13646  22853999.286    22854009.610
  24551186.171    10944175.74149   8473169.14445  24551186.028    24551195.995
  21930763.271    -9194788.71449  -7146579.78046  21930762.839    21930770.961
 02  7 11 18  8  0.0000000  0  8G21G 9G18G17G15G14G26G 3
  21254830.923    -5534733.59749  -4295851.54247  21254830.297    21254838.075
  23907984.779    -5045249.68849  -3418302.05845  23907984.397    23907996.913
  20687562.008     1001051.79249    909468.53347  20687561.409    20687567.516
  21024768.012     1983598.32049   1552866.33547  21024767.346    21024775.597
  20559410.303      212212.95349    175625.89247  20559409.477    20559417.114
  22834128.627   -13208733.66149 -10257842.82546  22834128.043    22834138.353
  24572039.001    11053758.13349   8558557.93045  24572038.822    24572048.927
  21923683.603    -9231992.77049  -7175569.93047  21923683.170    21923691.250
 02  7 11 18  8 30.0000000  0  8G21G 9G18G17G15G14G26G 3
  21250782.636    -5556007.27649  -4312428.41247  21250782.010    21250789.786
  23896866.329    -5103676.65049  -3463829.46945  23896865.904    23896878.392
  20693854.348     1034118.39349    935234.70647  20693853.773    20693859.875
  21032381.757     2023608.75149   1584043.24347  21032381.095    21032389.351
  20564704.468      240033.75249    197304.40947  20564703.632    20564711.285
  22814301.548   -13312924.77949 -10339030.52646  22814300.938    22814311.275
  24592928.022    11163530.52349   8644094.80645  24592927.930    24592937.961
  21916705.920    -9268660.87249  -7204142.46147  21916705.480    21916713.519
 02  7 11 18  9  0.0000000  0  7G21G 9G18G17G15G14G 3
  21246776.850    -5577057.81749  -4328831.41547  21246776.243    21246783.999
  23885814.557    -5161753.72449  -3509084.23945  23885814.175    23885826.633
  20700196.637     1067447.12049    961205.13447  20700196.052    20700202.150
  21040060.068     2063958.20749   1615484.33247  21040059.410    21040067.652
  20570066.900      268213.21049    219262.40547  20570066.050    20570073.667
  22794520.215   -13416875.30149 -10420030.74346  22794519.623    22794529.950
  21909831.496    -9304786.41549  -7232292.21847  21909831.030    21909839.021
 02  7 11 18  9 30.0000000  0  7G21G 9G18G17G15G14G 3
  21242811.932    -5597893.43249  -4345066.94347  21242811.328    21242819.062
  23874828.687    -5219484.83849  -3554069.42645  23874828.311    23874840.773
  20706587.223     1101029.94149    987373.55647  20706586.628    20706592.724
  21047801.602     2104640.15249   1647184.49647  21047800.941    21047809.199
  20575496.335      296745.02849    241494.96747  20575495.491    20575503.116
  22774783.888   -13520589.52449 -10500846.83346  22774783.306    22774793.575
  21903059.207    -9340374.91049  -7260023.49647  21903058.758    21903066.751
 02  7 11 18 10  0.0000000  0  7G21G 9G18G17G15G14G 3
  21238887.800    -5618514.97549  -4361135.66447  21238887.184    21238894.903
  23863909.005    -5276868.02349  -3598783.49545  23863908.510    23863921.128
  20713025.805     1134865.02349   1013738.54447  20713025.221    20713031.340
  21055606.373     2145654.43049   1679143.62747  21055605.728    21055614.006
  20580992.706      325628.60449    264001.62247  20580991.856    20580999.510
  22755092.901   -13624065.69549 -10581477.42746  22755092.298    22755102.594
  21896389.204    -9375425.81249  -7287335.87047  21896388.765    21896396.741
 02  7 11 18 10 30.0000000  0  7G21G 9G18G17G15G14G 3
  21235004.383    -5638922.40949  -4377037.54847  21235003.763    21235011.474
  23853056.314    -5333899.05249  -3643223.15445  23853055.783    23853068.426
  20719512.293     1168951.64449   1040299.52947  20719511.720    20719517.828
  21063474.673     2187002.32749   1711362.71247  21063474.010    21063482.312
  20586556.255      354865.31849    286783.45047  20586555.424    20586563.094
  22735447.915   -13727300.29249 -10661919.77746  22735447.298    22735457.524
  21889821.888    -9409937.26949  -7314227.90047  21889821.402    21889829.437
 02  7 11 18 11  0.0000000  0  7G21G 9G18G17G15G14G 3
  21231161.650    -5659116.02149  -4392772.81347  21231161.033    21231168.755
  23842271.197    -5390574.67449  -3687385.86145  23842270.740    23842283.338
  20726046.497     1203288.99949   1067055.89447  20726045.927    20726052.043
  21071406.549     2228684.59149   1743842.34447  21071405.889    21071414.234
  20592187.222      384456.21349    309841.25847  20592186.386    20592194.095
  22715849.368   -13830290.68549 -10742171.84346  22715848.746    22715858.930
  21883357.531    -9443907.57649  -7340698.25347  21883357.077    21883365.101
 02  7 11 18 11 30.0000000  0  7G21G 9G18G17G15G14G 3
  21227359.688    -5679095.45249  -4408341.18447  21227359.055    21227366.798
  23831554.380    -5446891.13349  -3731268.68845  23831553.939    23831566.586
  20732628.344     1237876.75549   1094007.38347  20732627.760    20732633.890
  21079402.302     2270702.28849   1776583.34847  21079401.654    21079410.020
  20597885.810      414402.36549    333175.89447  20597884.991    20597892.698
  22696297.953   -13933033.55249 -10822231.02446  22696297.320    22696307.443
  21876996.509    -9477334.97049  -7366745.55547  21876996.061    21877004.074
 02  7 11 18 12  0.0000000  0  8G21G 9G18G17G15G14G31G 3
  21223597.742    -5698864.41149  -4423745.56047  21223597.139    21223604.853
  23820905.972    -5502848.51549  -3774871.70845  23820905.461    23820918.189
  20739256.959     1272710.26549   1121150.36247  20739256.382    20739262.484
  21087461.356     2313052.70249   1809583.60947  21087460.715    21087469.095
  20603651.500      444701.25449    356785.38247  20603650.679    20603658.410
  22676793.492   -14035529.27049 -10902097.63146  22676792.883    22676802.989
  24360894.735    -2724393.13859  -2098879.30845  24360893.855    24360904.979
  21870738.478    -9510221.14849  -7392371.13547  21870738.023    21870746.072
 02  7 11 18 12 30.0000000  0  8G21G 9G18G17G15G14G31G 3
  21219874.459    -5718430.38049  -4438991.75547  21219873.857    21219881.572
  23810325.112    -5558450.59849  -3818197.86545  23810324.606    23810337.127
  20745930.889     1307781.87249   1148478.87247  20745930.291    20745936.405
  21095582.515     2355729.44249   1842838.15947  21095581.852    21095590.240
  20609483.098      475346.46649    380664.73847  20609482.272    20609490.035
  22657335.286   -14137782.08349 -10981774.96346  22657334.664    22657344.745
  24344007.099    -2813137.39149  -2168030.60445  24344006.205    24344017.375
  21864582.297    -9542571.87249  -7417579.47547  21864581.835    21864589.958
 02  7 11 18 13  0.0000000  0  8G21G 9G18G17G15G14G31G 3
  21216192.538    -5737778.88249  -4454068.50247  21216191.926    21216199.656
  23799815.348    -5613678.98549  -3861232.81745  23799814.851    23799827.319
  20752652.794     1343105.72149   1176003.93547  20752652.208    20752658.285
  21103768.825     2398748.53449   1876359.46947  21103768.165    21103776.555
  20615383.622      506353.86349    404826.31247  20615382.807    20615390.583
  22637926.712   -14239774.21149 -11061249.17746  22637926.100    22637936.103
  24327181.198    -2901557.65549  -2236929.44045  24327180.363    24327191.542
  21858531.118    -9574370.69449  -7442357.75847  21858530.684    21858538.820
 02  7 11 18 13 30.0000000  0  8G21G 9G18G17G15G14G31G 3
  21212551.474    -5756912.78449  -4468978.02647  21212550.877    21212558.595
  23789376.880    -5668533.21749  -3903976.21745  23789376.457    23789388.785
  20759421.988     1378677.82649   1203722.44447  20759421.402    20759427.453
  21112019.884     2442107.79249   1910145.84747  21112019.233    21112027.605
  20621352.701      537721.55049    429268.63647  20621351.885    20621359.693
  22618567.784   -14341505.42349 -11140520.05946  22618567.192    22618577.145
  24310417.019    -2989653.70649  -2305575.65745  24310416.269    24310427.415
  21852584.763    -9605618.83949  -7466706.95147  21852584.341    21852592.473
 02  7 11 18 14  0.0000000  0  8G21G 9G18G17G15G14G31G 3
  21208950.691    -5775834.85549  -4483722.48547  21208950.099    21208957.839
  23779009.764    -5723012.09049  -3946427.12945  23779009.354    23779021.601
  20766237.830     1414495.13249   1231632.02547  20766237.233    20766243.275
  21120335.369     2485805.70649   1944196.10447  21120334.726    21120343.088
  20627390.088      569448.08449    453990.58347  20627389.266    20627397.092
  22599258.585   -14442975.08349 -11219587.15546  22599258.019    22599267.913
  24293714.664    -3077424.86149  -2373968.70945  24293713.952    24293725.000
  21846743.075    -9636317.24049  -7490627.77647  21846742.655    21846750.773
 02  7 11 18 14 30.0000000  0  8G21G 9G18G17G15G14G31G 3
  21205390.010    -5794546.17749  -4498302.72647  21205389.415    21205397.179
  23768714.433    -5777113.48049  -3988583.88245  23768714.022    23768726.356
  20773099.961     1450555.78449   1259731.22347  20773099.362    20773105.384
  21128715.290     2529841.92349   1978509.97747  21128714.605    21128722.978
  20633495.683      601533.19949    478991.94547  20633494.849    20633502.700
  22579999.534   -14544181.39649 -11298449.02346  22579998.962    22580008.879
  24277074.499    -3164869.18349  -2442107.08045  24277073.762    24277084.789
  21841006.042    -9666465.55649  -7514119.95847  21841005.596    21841013.716
 02  7 11 18 15  0.0000000  0  8G21G 9G18G17G15G14G31G 3
  21201869.347    -5813047.36949  -4512719.23247  21201868.752    21201876.505
  23758491.547    -5830834.25249  -4030444.05045  23758491.219    23758503.546
  20780008.230     1486858.85949   1288019.31547  20780007.630    20780013.668
  21137159.647     2574217.04549   2013087.92847  21137158.969    21137167.331
  20639669.578      633977.03149    504272.82247  20639668.735    20639676.609
  22560791.054   -14645121.95549 -11377103.83746  22560790.480    22560800.379
  24260497.059    -3251983.99049  -2509988.69945  24260496.347    24260507.256
  21835373.888    -9696062.71149  -7537182.67347  21835373.426    21835381.573
 02  7 11 18 15 30.0000000  0  8G21G 9G18G17G15G14G31G 3
  21198388.415    -5831339.59049  -4526972.90547  21198387.822    21198395.582
  23748341.499    -5884172.31649  -4072005.98045  23748341.186    23748353.538
  20786962.212     1523402.21249   1316494.63847  20786961.606    20786967.671
  21145668.388     2618930.61849   2047929.60447  21145667.719    21145676.074
  20645911.695      666779.42549    529833.09747  20645910.863    20645918.753
  22541633.530   -14745794.66749 -11455549.92846  22541632.962    22541642.827
  24243982.717    -3338767.39049  -2577612.05845  24243982.081    24243992.672
  21829846.654    -9725108.54949  -7559815.79347  21829846.192    21829854.316
 02  7 11 18 16  0.0000000  0  8G21G 9G18G17G15G14G31G 3
  21194947.222    -5849423.12449  -4541063.96047  21194946.644    21194954.376
  23738264.837    -5937124.73349  -4113267.41545  23738264.512    23738276.836
  20793961.687     1560184.87549   1345156.43747  20793961.100    20793967.182
  21154241.639     2663983.04549   2083035.32547  21154240.984    21154249.312
  20652222.146      699941.03749    555673.28847  20652221.315    20652229.209
  22522527.456   -14846196.97849 -11533785.32646  22522526.890    22522536.706
  24227532.009    -3425216.73649  -2644975.11545  24227531.348    24227541.996
  21824424.573    -9753601.61149  -7582018.17347  21824424.115    21824432.250
 02  7 11 18 16 30.0000000  0  8G21G 9G18G17G15G14G31G 3
  21191545.412    -5867299.68249  -4554993.73747  21191544.809    21191552.549
  23728262.057    -5989688.98849  -4154226.38945  23728261.797    23728274.003
  20801006.360     1597204.68149   1374003.02147  20801005.763    20801011.873
  21162879.322     2709373.96749   2118404.81047  21162878.654    21162887.009
  20658600.895      733461.44549    581793.05147  20658600.069    20658607.970
  22503473.179   -14946327.20249 -11611808.69346  22503472.621    22503482.395
  24211145.170    -3511330.07149  -2712076.37945  24211144.564    24211155.278
  21819107.734    -9781541.86349  -7603789.78847  21819107.256    21819115.434
 02  7 11 18 17  0.0000000  0  8G21G 9G18G17G15G14G31G 3
  21188183.024    -5884969.17349  -4568762.15947  21188182.427    21188190.151
  23718333.878    -6041861.32949  -4194879.96945  23718333.600    23718345.781
  20808096.114     1634461.55549   1403034.33647  20808095.515    20808101.626
  21171581.603     2755104.65449   2154039.04347  21171580.939    21171589.310
  20665048.186      767342.13249    608193.56047  20665047.355    20665055.263
  22484471.302   -15046182.01149 -11689617.46446  22484470.765    22484480.501
  24194822.880    -3597104.06249  -2778913.17345  24194822.194    24194832.875
  21813896.378    -9808927.67449  -7625129.37547  21813895.914    21813904.087
 02  7 11 18 17 30.0000000  0  8G21G 9G18G17G15G14G31G 3
  21184859.808    -5902432.88949  -4582370.23647  21184859.207    21184866.900
  23708480.625    -6093640.16749  -4235226.92145  23708480.331    23708492.451
  20815230.606     1671953.36249   1432248.71647  20815230.016    20815236.120
  21180348.449     2801174.53749   2189937.58247  21180347.800    21180356.197
  20671563.932      801582.34249    634874.21547  20671563.084    20671571.014
  22465522.192   -15145759.78549 -11767210.36046  22465521.633    22465531.304
  24178565.505    -3682536.85649  -2845484.12045  24178564.828    24178575.463
  21808790.613    -9835758.74649  -7646036.69847  21808790.169    21808798.323
 02  7 11 18 18  0.0000000  0  8G21G 9G18G17G15G14G31G 3
  21181575.730    -5919690.82449  -4595817.96147  21181575.141    21181582.808
  23698702.854    -6145022.11149  -4275264.59845  23698702.580    23698714.633
  20822409.543     1709679.11949   1461645.40047  20822408.976    20822415.085
  21189179.990     2847584.30849   2226100.97147  21189179.326    21189187.730
  20678148.211      836182.71149    661835.51947  20678147.346    20678155.265
  22446626.371   -15245057.68749 -11844585.17946  22446625.775    22446635.343
  24162373.622    -3767625.69549  -2911787.04845  24162372.907    24162383.357
  21803790.646    -9862033.78349  -7666510.74647  21803790.220    21803798.300
 02  7 11 18 18 30.0000000  0  8G21G 9G18G17G15G14G31G 3
  21178330.643    -5936743.88049  -4609106.04247  21178330.027    21178337.677
  23689001.104    -6196004.29249  -4314990.80445  23689000.807    23689012.950
  20829632.895     1747637.90849   1491223.66147  20829632.295    20829638.410
  21198076.255     2894334.21049   2262529.38947  21198075.598    21198084.018
  20684801.123      871144.00949    689078.06047  20684800.281    20684808.211
  22427784.363   -15344072.90349 -11921739.72846  22427783.719    22427793.206
  24146247.684    -3852367.89049  -2977819.85945  24146246.851    24146257.428
  21798896.660    -9887751.90849  -7686550.83847  21798896.198    21798904.270
 02  7 11 18 19  0.0000000  0  8G21G 9G18G17G15G14G31G 3
  21175124.416    -5953592.73949  -4622235.00647  21175123.807    21175131.465
  23679375.995    -6246584.16149  -4354403.51045  23679375.660    23679387.731
  20836900.257     1785828.13049   1520982.26347  20836899.664    20836905.799
  21207037.246     2941424.31549   2299222.90747  21207036.584    21207045.024
  20691522.790      906466.34249    716601.92747  20691521.957    20691529.887
  22408996.444   -15442803.44449 -11998672.46546  22408995.805    22409005.219
  24130188.164    -3936761.14949  -3043580.75045  24130187.349    24130197.860
  21794108.742    -9912912.55349  -7706156.53247  21794108.273    21794116.396
 02  7 11 18 19 30.0000000  0  8G21G 9G18G17G15G14G31G 3
  21171956.869    -5970238.19949  -4635205.47547  21171956.280    21171963.908
  23669827.990    -6296758.76649  -4393500.44145  23669827.609    23669839.602
  20844211.404     1824248.46349   1550920.18347  20844210.813    20844216.975
  21216063.005     2988854.93949   2336181.76747  21216062.375    21216070.835
  20698313.170      942149.81649    744407.20347  20698312.327    20698320.247
  22390263.124   -15541246.91049 -12075381.49646  22390262.524    22390271.847
  24114195.575    -4020802.97749  -3109067.81745  24114194.760    24114205.191
  21789427.078    -9937514.91149  -7725327.19547  21789426.594    21789434.726
 02  7 11 18 20  0.0000000  0  8G21G 9G18G17G15G14G31G 3
  21168827.992    -5986680.76449  -4648017.84947  21168827.406    21168835.031
  23660357.649    -6346525.03349  -4432279.20145  23660357.326    23660369.181
  20851566.162     1862898.07049   1581036.75247  20851565.601    20851571.778
  21225153.702     3036626.68049   2373406.42547  21225153.082    21225161.565
  20705172.350      978194.90449    772494.25347  20705171.498    20705179.417
  22371584.960   -15639400.70949 -12151864.81846  22371584.325    22371593.619
  24098270.292    -4104490.71449  -3174278.96745  24098269.575    24098279.918
  21784851.819    -9961558.01049  -7744062.07247  21784851.351    21784859.478
 02  7 11 18 20 30.0000000  0  8G21G 9G18G17G15G14G31G 3
  21165737.667    -6002920.48649  -4660672.16547  21165737.075    21165744.677
  23650965.640    -6395880.07649  -4470737.53745  23650965.218    23650976.990
  20858964.369     1901775.85449   1611331.12347  20858963.800    20858970.009
  21234309.343     3084739.66649   2410896.99047  21234308.714    21234317.219
  20712100.461     1014602.12849    800863.49047  20712099.602    20712107.519
  22352962.429   -15737262.20649 -12228120.37746  22352961.797    22352971.085
  24082412.905    -4187821.53749  -3239211.98845  24082412.283    24082422.458
  21780383.131    -9985041.10149  -7762360.58547  21780382.655    21780390.783
 02  7 11 18 21  0.0000000  0  8G21G 9G18G17G15G14G31G 3
  21162685.729    -6018958.54849  -4673169.33847  21162685.138    21162692.745
  23641652.282    -6444821.53449  -4508873.60345  23641651.796    23641663.639
  20866405.679     1940880.24849   1641802.07247  20866405.108    20866411.328
  21243529.961     3133194.01549   2448653.54747  21243529.320    21243537.821
  20719097.471     1051371.49149    829514.91247  20719096.618    20719104.522
  22334395.866   -15834829.34949 -12304146.57046  22334395.270    22334404.540
  24066623.853    -4270793.33849  -3303865.25045  24066623.264    24066633.312
  21776021.084   -10007963.60549  -7780222.27347  21776020.624    21776028.778
 02  7 11 18 21 30.0000000  0  8G21G 9G18G17G15G14G31G 3
  21159672.152    -6034795.18949  -4685509.56347  21159671.534    21159679.146
  23632418.171    -6493346.39549  -4546685.06645  23632417.698    23632429.375
  20873889.934     1980210.18449   1672448.76347  20873889.357    20873895.573
  21252815.606     3181990.02849   2486676.33247  21252814.962    21252823.472
  20726163.529     1088503.54349    858448.94547  20726162.666    20726170.543
  22315885.841   -15932099.43649 -12379941.28946  22315885.254    22315894.515
  24050903.555    -4353403.61349  -3368236.81745  24050902.897    24050913.166
  21771765.890   -10030324.75949  -7797646.54447  21771765.440    21771773.555
 02  7 11 18 22  0.0000000  0  8G21G 9G18G17G15G14G31G 3
  21156696.673    -6050431.26849  -4697693.50647  21156696.054    21156703.665
  23623263.938    -6541451.57849  -4584169.50845  23623263.575    23623275.129
  20881416.998     2019765.02749   1703270.70947  20881416.426    20881422.624
  21262166.343     3231128.36949   2524965.86547  21262165.709    21262174.259
  20733298.677     1125998.85249    887666.03247  20733297.826    20733305.707
  22297432.895   -16029069.79949 -12455502.47346  22297432.309    22297441.508
  24035252.607    -4435649.40949  -3432324.36645  24035252.022    24035262.174
  21767617.719   -10052123.56649  -7814632.62847  21767617.272    21767625.371
 02  7 11 18 22 30.0000000  0  8G21G 9G18G17G15G14G31G 3
  21153759.139    -6065867.94149  -4709722.06347  21153758.538    21153766.163
  23614189.922    -6589135.29349  -4621325.54545  23614189.517    23614201.032
  20888986.467     2059542.68649   1734266.27947  20888985.886    20888992.073
  21271582.089     3280608.37649   2563521.64047  21271581.470    21271590.051
  20740502.789     1163856.78149    917165.68347  20740501.959    20740509.844
  22279037.286   -16125738.90349 -12530828.90246  22279036.724    22279045.860
  24019671.360    -4517528.92849  -3496126.51545  24019670.648    24019680.983
  21763576.561   -10073360.05349  -7831180.53747  21763576.130    21763584.216
 02  7 11 18 23  0.0000000  0  8G21G 9G18G17G15G14G31G 3
  21150859.583    -6081105.21049  -4721595.24947  21150858.975    21150866.589
  23605196.757    -6636394.20549  -4658150.58745  23605196.363    23605207.954
  20896598.178     2099542.39949   1765434.87847  20896597.587    20896603.780
  21281063.056     3330430.71749   2602344.16747  21281062.417    21281071.027
  20747776.156     1202078.22749    946948.59147  20747775.314    20747783.188
  22260699.597   -16222103.64949 -12605918.17646  22260699.049    22260708.105
  24004160.280    -4599039.19949  -3559640.92245  24004159.676    24004169.884
  21759642.637   -10094032.79149  -7847289.16047  21759642.223    21759650.351
 02  7 11 18 23 30.0000000  0  8G21G 9G18G17G15G14G31G 3
  21147997.725    -6096144.42749  -4733314.11047  21147997.126    21148004.733
  23596284.879    -6683226.11549  -4694642.90145  23596284.472    23596296.149
  20904251.846     2139762.66749   1796775.33947  20904251.258    20904257.465
  21290609.112     3380595.15949   2641433.26647  21290608.458    21290617.079
  20755118.544     1240662.74649    977014.41047  20755117.701    20755125.595
  22242420.177   -16318162.18649 -12680768.83746  22242419.573    22242428.606
  23988719.922    -4680178.43049  -3622866.21345  23988719.346    23988729.585
  21755816.021   -10114141.78949  -7862958.50147  21755815.602    21755823.727
 02  7 11 18 24  0.0000000  0  8G21G 9G18G17G15G14G31G 3
  21145173.614    -6110985.16049  -4744878.30647  21145173.001    21145180.611
  23587454.898    -6729627.74349  -4730799.94945  23587454.475    23587466.170
  20911947.355     2180202.87749   1828287.18147  20911946.780    20911952.994
  21300220.320     3431102.32649   2680789.42547  21300219.685    21300228.343
  20762530.271     1279611.47349   1007364.02547  20762529.440    20762537.329
  22224199.561   -16413911.64749 -12755378.66946  22224198.967    22224207.922
  23973350.790    -4760943.31549  -3685799.80445  23973350.216    23973360.261
  21752096.850   -10133686.09349  -7878187.82947  21752096.437    21752104.559
 02  7 11 18 24 30.0000000  0  8G21G 9G18G17G15G14G31G 3
  21142386.882    -6125629.53249  -4756289.48947  21142386.271    21142393.888
  23578707.060    -6775597.40349  -4766620.38545  23578706.581    23578718.339
  20919684.285     2220860.70349   1859968.58847  20919683.714    20919689.921
  21309896.663     3481951.60949   2720412.16146  21309896.016    21309904.673
  20770011.180     1318923.72549   1037996.90547  20770010.351    20770018.243
  22206038.022   -16509350.61549 -12829746.55346  22206037.440    22206046.353
  23958053.208    -4841332.43449  -3748440.58845  23958052.555    23958062.702
  21748485.123   -10152665.88649  -7892977.27047  21748484.697    21748492.837
 02  7 11 18 25  0.0000000  0  8G21G 9G18G17G15G14G31G 3
  21139637.590    -6140077.25149  -4767547.43447  21139636.984    21139644.576
  23570042.041    -6821131.60349  -4802101.51645  23570041.610    23570053.312
  20927462.595     2261735.89049   1891819.37047  20927462.010    20927468.244
  21319638.364     3533144.18449   2760302.39846  21319637.732    21319646.423
  20777561.427     1358600.50949   1068913.83547  20777560.604    20777568.543
  22187936.193   -16604475.86749 -12903869.98646  22187935.582    22187944.508
  23942827.703    -4921342.71949  -3810786.18045  23942827.235    23942837.155
  21744981.063   -10171079.95449  -7907325.89247  21744980.623    21744988.767
 02  7 11 18 25 30.0000000  0  8G21G 9G18G17G15G14G31G 3
  21136925.608    -6154328.68349  -4778652.42847  21136924.991    21136932.621
  23561460.458    -6866227.62849  -4837241.21245  23561459.991    23561471.674
  20935282.065     2302827.41449   1923838.71947  20935281.496    20935287.734
  21329445.358     3584679.89549   2800460.01546  21329444.722    21329453.463
  20785181.077     1398641.98949   1100114.94847  20785180.239    20785188.223
  22169894.486   -16699285.03249 -12977747.11446  22169893.872    22169902.798
  23927674.801    -5000971.45449  -3872834.46945  23927674.346    23927684.140
  21741584.809   -10188927.48049  -7921233.04947  21741584.365    21741592.484
 02  7 11 18 26  0.0000000  0  8G21G 9G18G17G15G14G31G 3
  21134250.773    -6168385.07149  -4789605.44247  21134250.163    21134257.783
  23552962.712    -6910883.43149  -4872037.87745  23552962.155    23552973.861
  20943142.385     2344133.60849   1956025.34747  20943141.825    20943148.066
  21339317.625     3636558.49549   2840884.81646  21339316.978    21339325.708
  20792870.057     1439047.78249   1131599.93847  20792869.226    20792877.224
  22151913.265   -16793776.24749 -13051376.48746  22151912.640    22151921.555
  23912594.850    -5080216.79749  -3934584.00845  23912594.366    23912604.222
  21738296.302   -10206208.67749  -7934698.92047  21738295.851    21738303.977
 02  7 11 18 26 30.0000000  0  8G21G 9G18G17G15G14G31G 3
  21131613.062    -6182246.21149  -4800406.31547  21131612.449    21131620.056
  23544549.273    -6955095.83649  -4906489.03945  23544548.738    23544560.332
  20951043.383     2385653.50449   1988378.49447  20951042.815    20951049.051
  21349255.281     3688780.70749   2881577.37646  21349254.628    21349263.347
  20800628.590     1479818.79349   1163369.51447  20800627.765    20800635.752
  22133993.121   -16887946.72149 -13124755.92746  22133992.476    22134001.383
  23897588.366    -5159075.91149  -3996032.59245  23897587.814    23897597.852
  21735115.726   -10222922.54949  -7947722.71347  21735115.283    21735123.404
 02  7 11 18 27  0.0000000  0  8G21G 9G18G17G15G14G31G 3
  21129012.376    -6195912.68449  -4811055.49647  21129011.780    21129019.422
  23536220.739    -6998862.20849  -4940592.63645  23536220.254    23536231.899
  20958984.895     2427386.36149   2020897.58547  20958984.327    20958990.574
  21359258.285     3741346.55449   2922537.69746  21359257.613    21359266.382
  20808456.578     1520955.02849   1195423.68547  20808455.736    20808463.759
  22116134.406   -16981794.10349 -13197883.61646  22116133.759    22116142.643
  23882655.905    -5237546.24649  -4057178.24945  23882655.432    23882665.314
  21732043.243   -10239068.49949  -7960303.96847  21732042.790    21732050.913
 02  7 11 18 27 30.0000000  0  8G21G 9G18G17G15G14G31G 3
  21126448.600    -6209385.44849  -4821553.73447  21126447.994    21126455.628
  23527977.578    -7042180.18749  -4974346.84945  23527977.140    23527988.654
  20966966.689     2469330.93549   2053581.64847  20966966.111    20966972.365
  21369326.718     3794256.17749   2963765.89746  21369326.053    21369334.852
  20816354.111     1562456.69549   1227762.60447  20816353.269    20816361.310
  22098337.676   -17075315.99249 -13270757.66646  22098337.020    22098345.895
  23867797.816    -5315625.46649  -4118019.11345  23867797.248    23867807.205
  21729078.831   -10254646.36549  -7972442.57047  21729078.412    21729086.555
 02  7 11 18 28  0.0000000  0  8G21G 9G18G17G15G14G31G 3
  21123921.512    -6222665.40249  -4831901.73247  21123920.894    21123928.537
  23519820.201    -7085047.41349  -5007749.82745  23519819.797    23519831.211
  20974988.480     2511485.50549   2086429.34447  20974987.888    20974994.127
  21379460.491     3847509.26049   3005261.73646  21379459.828    21379468.639
  20824321.104     1604323.58149   1260386.11347  20824320.283    20824328.320
  22080603.181   -17168510.59249 -13343376.68546  22080602.537    22080611.406
  23853014.661    -5393311.48849  -4178553.60345  23853014.082    23853023.965
  21726222.594   -10269655.87649  -7984138.28947  21726222.149    21726230.345
 02  7 11 18 28 30.0000000  0  8G21G 9G18G17G15G14G31G 3
  21121430.994    -6235753.23149  -4842100.02547  21121430.378    21121437.995
  23511749.136    -7127461.16149  -5040799.44445  23511748.735    23511760.118
  20983050.042     2553849.19649   2119439.99047  20983049.467    20983055.694
  21389659.705     3901106.16349   3047025.48346  21389659.077    21389667.912
  20832357.718     1646556.04649   1293294.48647  20832356.899    20832364.919
  22062931.391   -17261375.60449 -13415738.88446  22062930.771    22062939.670
  23838306.650    -5470601.93349  -4238779.83445  23838306.095    23838316.003
  21723474.606   -10284096.59449  -7995390.79547  21723474.172    21723482.404
 02  7 11 18 29  0.0000000  0  8G21G 9G18G17G15G14G31G 3
  21118976.970    -6248649.14549  -4852148.77247  21118976.357    21118983.949
  23503764.860    -7169418.63149  -5073493.50645  23503764.453    23503775.728
  20991151.206     2596421.17149   2152612.93347  20991150.629    20991156.871
  21399924.343     3955047.00749   3089057.23746  21399923.741    21399932.582
  20840464.005     1689154.48149   1326488.02947  20840463.167    20840471.158
  22045322.886   -17353908.27749 -13487842.12146  22045322.271    22045331.156
  23823674.599    -5547494.02549  -4298695.68645  23823673.824    23823683.849
  21720834.953   -10297967.95649  -8006199.64747  21720834.509    21720842.743
 02  7 11 18 29 30.0000000  0  8G21G 9G18G17G15G14G31G 3
  21116559.274    -6261354.08849  -4862048.71547  21116558.671    21116566.255
  23495867.681    -7210918.00849  -5105830.62545  23495867.320    23495878.620
  20999291.705     2639199.68049   2185946.81447  20999291.143    20999297.382
  21410254.423     4009331.55849   3131356.81246  21410253.820    21410262.670
  20848639.831     1732118.41749   1359966.37447  20848638.978    20848646.954
  22027777.969   -17446106.97749 -13559685.13246  22027777.347    22027786.205
  23809118.591    -5623986.06849  -4358299.80245  23809117.761    23809127.900
  21718303.639   -10311270.09549  -8016564.95747  21718303.201    21718311.426
 02  7 11 18 30  0.0000000  0  8G21G 9G18G17G15G14G31G 3
  21114177.824    -6273868.68849  -4871800.33647  21114177.199    21114184.795
  23488058.298    -7251956.28449  -5137808.43545  23488057.896    23488069.262
  21007471.405     2682183.99049   2219441.06747  21007470.820    21007477.046
  21420650.002     4063960.17749   3173924.49646  21420649.393    21420658.259
  20856885.275     1775448.38449   1393729.94447  20856884.439    20856892.416
  22010297.143   -17537968.84549 -13631265.65746  22010296.539    22010305.296
  23794639.265    -5700075.20149  -4417589.96745  23794638.505    23794648.659
  21715880.839   -10324002.15149  -8026486.03447  21715880.408    21715888.626
 02  7 11 18 30 30.0000000  0  8G21G 9G18G17G15G14G31G 3
  21111832.548    -6286193.27549  -4881403.89747  21111831.933    21111839.518
  23480337.118    -7292531.03349  -5169425.07045  23480336.731    23480348.121
  21015689.999     2725373.08149   2253094.88647  21015689.431    21015695.643
  21431111.063     4118932.84349   3216760.27046  21431110.431    21431119.276
  20865200.413     1819144.56349   1427778.86747  20865199.573    20865207.563
  21992880.831   -17629491.92249 -13702582.21646  21992880.216    21992888.905
  23780236.999    -5775759.15749  -4476564.39945  23780236.185    23780246.460
  21713566.587   -10336164.01549  -8035962.81447  21713566.141    21713574.315
 02  7 11 18 31  0.0000000  0  8G21G 9G18G17G15G14G31G 3
  21109523.214    -6298328.81849  -4890860.15147  21109522.602    21109530.206
  23472704.472    -7332640.48649  -5200679.12145  23472704.095    23472715.486
  21023947.296     2768765.40649   2286907.07247  21023946.724    21023952.937
  21441637.433     4174249.03649   3259863.73046  21441636.794    21441645.682
  20873585.222     1863206.79749   1462113.03547  20873584.388    20873592.408
  21975529.315   -17720674.31549 -13773633.29246  21975528.688    21975537.303
  23765912.268    -5851036.12349  -4535221.71045  23765911.432    23765921.587
  21711360.717   -10347756.04349  -8044995.56947  21711360.278    21711368.427
 02  7 11 18 31 30.0000000  0  8G21G 9G18G17G15G14G31G 3
  21107249.825    -6310275.51949  -4900169.25847  21107249.205    21107256.803
  23465161.108    -7372281.09049  -5231567.84045  23465160.797    23465172.081
  21032243.255     2812360.86549   2320877.54247  21032242.681    21032248.901
  21452229.426     4229909.98549   3303235.83646  21452228.791    21452237.681
  20882039.896     1907636.12949   1496733.24647  20882039.075    20882047.085
  21958243.260   -17811512.86349 -13844416.44846  21958242.615    21958251.116
  23751665.635    -5925902.69549  -4593559.23245  23751664.795    23751674.898
  21709263.549   -10358776.90049  -8053583.25247  21709263.080    21709271.263
 02  7 11 18 32  0.0000000  0  8G21G 9G18G17G15G14G31G 3
  21105012.100    -6322034.65949  -4909332.21247  21105011.485    21105019.068
  23457707.300    -7411451.15049  -5262089.89245  23457706.977    23457718.197
  21040577.445     2856157.19749   2355004.53847  21040576.862    21040583.088
  21462886.825     4285914.69649   3346875.80246  21462886.163    21462895.123
  20890564.201     1952431.55849   1531638.73147  20890563.374    20890571.386
  21941022.885   -17902006.01249 -13914930.46346  21941022.247    21941030.738
  23737497.260    -6000357.51149  -4651575.91545  23737496.583    23737506.538
  21707274.907   -10369227.25949  -8061726.39147  21707274.447    21707282.622
 02  7 11 18 32 30.0000000  0  8G21G 9G18G17G15G14G31G 3
  21102810.074    -6333606.43849  -4918349.17447  21102809.469    21102817.066
  23450343.523    -7450148.07649  -5292243.26045  23450343.166    23450354.419
  21048949.716     2900153.65249   2389287.47747  21048949.166    21048955.364
  21473609.736     4342263.45949   3390783.86546  21473609.030    21473618.005
  20899158.286     1997593.29449   1566829.64547  20899157.434    20899165.441
  21923868.653   -17992151.54749 -13985173.61546  21923868.012    21923876.503
  23723407.768    -6074397.93949  -4709269.67645  23723407.117    23723417.081
  21705394.932   -10379106.52649  -8069424.52847  21705394.458    21705402.641
 02  7 11 18 33  0.0000000  0  8G21G 9G18G17G15G14G31G 3
  21100643.672    -6344990.82049  -4927220.11747  21100643.059    21100650.673
  23443070.212    -7488369.30049  -5322025.95745  23443069.831    23443081.135
  21057359.935     2944349.54249   2423725.81847  21057359.363    21057365.566
  21484398.099     4398956.53449   3434960.20746  21484397.411    21484406.395
  20907822.141     2043121.90449   1602306.42847  20907821.276    20907829.296
  21906781.049   -18081946.82649 -14055143.83846  21906780.412    21906788.903
  23709397.555    -6148021.55349  -4766638.66145  23709396.936    23709406.827
  21703623.718   -10388414.41549  -8076677.44247  21703623.244    21703631.410
 02  7 11 18 33 30.0000000  0  8G21G 9G18G17G15G14G31G 3
  21098512.704    -6356188.95349  -4935945.92847  21098512.094    21098519.679
  23435887.840    -7526112.58349  -5351436.23045  23435887.502    23435898.741
  21065807.829     2988743.36549   2458318.39647  21065807.255    21065813.473
  21495251.964     4455993.62849   3479404.62546  21495251.277    21495260.251
  20916555.718     2089017.13649   1638068.89547  20916554.880    20916562.930
  21889760.483   -18171389.98549 -14124839.68846  21889759.864    21889768.326
  23695467.142    -6221226.18249  -4823681.15745  23695466.560    23695476.404
  21701961.150   -10397151.32649  -8083485.42947  21701960.695    21701968.850
 02  7 11 18 34  0.0000000  0  8G21G 9G18G17G15G14G31G 3
  21096417.126    -6367201.21049  -4944526.90147  21096416.515    21096424.100
  23428796.924    -7563375.45949  -5380472.16145  23428796.601    23428807.722
  21074293.194     3033334.04849   2493064.36747  21074292.611    21074298.822
  21506171.305     4513374.87249   3524117.21046  21506170.598    21506179.633
  20925359.065     2135279.08449   1674117.11047  20925358.256    20925366.332
  21872807.331   -18260478.72449 -14194259.36547  21872806.731    21872815.156
  23681616.869    -6294009.54549  -4880395.38245  23681616.288    23681626.122
  21700407.320   -10405316.82849  -8089848.17347  21700406.861    21700415.024
 02  7 11 18 34 30.0000000  0  8G21G 9G18G17G15G14G31G 3
  21094356.800    -6378028.24249  -4952963.54147  21094356.191    21094363.787
  23421797.815    -7600155.81049  -5409132.09945  23421797.467    23421808.535
  21082815.811     3078120.66349   2527963.01747  21082815.231    21082821.461
  21517156.111     4571100.34449   3569098.02646  21517155.423    21517164.498
  20934232.253     2181907.83749   1710451.15447  20934231.443    20934239.551
  21855922.089   -18349210.86649 -14263401.18047  21855921.491    21855929.880
  23667847.195    -6366369.36649  -4936779.58645  23667846.571    23667856.281
  21698962.262   -10412910.62849  -8095765.43747  21698961.821    21698969.963
 02  7 11 18 35  0.0000000  0  8G21G 9G18G17G15G14G31G 3
  21092331.633    -6388670.65149  -4961256.32547  21092331.033    21092338.600
  23414891.007    -7636451.12849  -5437414.07545  23414890.659    23414901.652
  21091375.545     3123102.30549   2563013.63347  21091374.965    21091381.168
  21528206.419     4629169.88949   3614346.94546  21528205.753    21528214.847
  20943175.319     2228903.75149   1747071.29347  20943174.502    20943182.638
  21839105.143   -18437584.05349 -14332263.28847  21839104.553    21839112.888
  23654158.570    -6438303.20649  -4992831.85545  23654157.958    23654167.729
  21697626.100   -10419932.52949  -8101237.05847  21697625.656    21697633.784
 02  7 11 18 35 30.0000000  0  8G21G 9G18G17G15G14G31G 3
  21090341.468    -6399129.07749  -4969405.75247  21090340.871    21090348.441
  23408076.920    -7672259.32649  -5465316.48745  23408076.546    23408087.498
  21099972.174     3168277.56549   2598215.12447  21099971.594    21099977.761
  21539322.178     4687583.29849   3659863.81146  21539321.518    21539330.604
  20952188.157     2276266.44349   1783977.22947  20952187.332    20952195.478
  21822356.892   -18525596.38649 -14400844.21847  21822356.287    21822364.617
  23640551.457    -6509809.03749  -5048550.60445  23640550.777    23640560.567
  21696398.577   -10426382.96349  -8106263.38547  21696398.166    21696406.308
 02  7 11 18 36  0.0000000  0  8G21G 9G18G17G15G14G31G 3
  21088386.161    -6409404.27749  -4977412.40347  21088385.545    21088393.148
  23401355.893    -7707578.50949  -5492837.84145  23401355.479    23401366.428
  21108605.341     3213645.08449   2633566.42447  21108604.747    21108610.912
  21550503.315     4746340.22649   3705648.36246  21550502.647    21550511.736
  20961270.793     2323995.62349   1821168.74947  20961269.925    20961278.110
  21805677.635   -18613245.91449 -14469142.43847  21805677.034    21805685.336
  23627026.099    -6580885.11549  -5103934.47945  23627025.451    23627035.123
  21695279.865   -10432262.07949  -8110844.53047  21695279.471    21695287.546
 02  7 11 18 36 30.0000000  0  8G21G 9G18G17G15G14G31G 3
  21086465.840    -6419495.55949  -4985275.73447  21086465.214    21086472.836
  23394728.488    -7742405.43249  -5519975.62545  23394728.047    23394738.983
  21117275.159     3259205.10849   2669067.72547  21117274.565    21117280.734
  21561750.054     4805441.62049   3751701.31446  21561749.371    21561758.419
  20970423.305     2372092.39649   1858646.69947  20970422.469    20970430.662
  21789067.979   -18700529.73449 -14537155.69147  21789067.403    21789075.696
  23613583.184    -6651527.96549  -5158980.77445  23613582.517    23613592.162
  21694270.060   -10437568.98149  -8114979.79947  21694269.620    21694277.710
 02  7 11 18 37  0.0000000  0  8G21G 9G18G17G15G14G31G 3
  21084580.095    -6429405.09249  -4992997.44247  21084579.489    21084587.121
  23388195.044    -7776738.37049  -5546728.47845  23388194.611    23388205.593
  21125981.143     3304955.50349   2704717.36747  21125980.548    21125986.730
  21573062.160     4864886.73549   3798022.10246  21573061.460    21573070.501
  20979645.630     2420556.00049   1896410.49947  20979644.784    20979653.041
  21772528.243   -18787446.25449 -14604882.73847  21772527.673    21772535.940
  23600222.926    -6721736.21149  -5213688.43345  23600222.356    23600231.946
  21693369.004   -10442304.39149  -8118669.74447  21693368.543    21693376.614
 02  7 11 18 37 30.0000000  0  8G21G 9G18G17G15G14G31G 3
  21082729.019    -6439132.61349  -5000577.32747  21082728.421    21082736.043
  23381756.100    -7810574.81549  -5573094.46345  23381755.738    23381766.609
  21134723.235     3350895.56749   2740514.79847  21134722.656    21134728.832
  21584439.659     4924675.60249   3844610.75046  21584438.974    21584448.015
  20988937.815     2469386.74449   1934460.38147  20988936.981    20988945.303
  21756058.846   -18873992.99849 -14672321.64747  21756058.274    21756066.532
  23586945.830    -6791507.42449  -5268055.52645  23586945.338    23586954.898
  21692576.664   -10446468.16449  -8121914.25847  21692576.222    21692584.302
 02  7 11 18 38  0.0000000  0  8G21G 9G18G17G15G14G31G 3
  21080912.431    -6448678.77849  -5008015.88747  21080911.838    21080919.475
  23375412.042    -7843912.84649  -5599072.06345  23375411.670    23375422.589
  21143501.227     3397024.23649   2776459.19947  21143500.629    21143506.840
  21595882.592     4984808.15949   3891467.20546  21595881.872    21595890.980
  20998299.807     2518584.34849   1972796.13347  20998298.980    20998307.338
  21739660.186   -18960168.29249 -14739471.10847  21739659.617    21739667.848
  23573752.342    -6860839.55649  -5322080.47945  23573751.781    23573761.310
  21691893.097   -10450060.36649  -8124713.39747  21691892.635    21691900.726
 02  7 11 18 38 30.0000000  0  8G21G 9G18G17G15G14G31G 3
  21079130.234    -6458044.27149  -5015313.66247  21079129.652    21079137.262
  23369163.166    -7876750.47049  -5624659.74345  23369162.816    23369173.659
  21152314.830     3443340.16949   2812549.52047  21152314.258    21152320.486
  21607390.769     5045284.09549   3938591.23246  21607390.075    21607399.240
  21007731.653     2568148.79249   2011417.73147  21007730.830    21007739.209
  21723332.575   -19045969.96149 -14806329.43247  21723332.000    21723340.204
  23560642.872    -6929730.51049  -5375761.68845  23560642.297    23560651.716
  21691318.261   -10453081.08949  -8127067.21647  21691317.813    21691325.898
 02  7 11 18 39  0.0000000  0  8G21G 9G18G17G15G14G31G 3
  21077382.183    -6467230.32949  -5022471.61647  21077381.592    21077389.205
  23363009.910    -7909085.56349  -5649855.83145  23363009.585    23363020.522
  21161163.927     3489842.29449   2848784.92447  21161163.361    21161169.546
  21618964.253     5106103.17349   3985982.63746  21618963.593    21618972.836
  21017233.286     2618079.86249   2050325.01247  21017232.472    21017240.834
  21707076.459   -19131396.07749 -14872895.12047  21707075.864    21707084.022
  23547617.720    -6998178.21749  -5429097.48745  23547617.014    23547626.441
  21690852.111   -10455530.83149  -8128976.11747  21690851.676    21690859.768
 02  7 11 18 39 30.0000000  0  8G21G 9G18G17G15G14G31G 3
  21075668.317    -6476236.75949  -5029489.59947  21075667.719    21075675.325
  23356952.781    -7940915.33849  -5674658.16445  23356952.489    23356963.454
  21170048.386     3536530.21649   2885165.10547  21170047.801    21170053.987
  21630603.207     5167265.85749   4033641.78846  21630602.545    21630611.778
  21026804.787     2668378.14349   2089518.43547  21026803.956    21026812.299
  21690892.311   -19216443.88249 -14939166.02047  21690891.698    21690899.820
  23534677.351    -7066180.02649  -5482085.84045  23534676.612    23534686.092
  21690494.740   -10457409.02949  -8130439.66347  21690494.303    21690502.366
 02  7 11 18 40  0.0000000  0  8G21G 9G18G17G15G14G31G 3
  21073988.476    -6485064.50249  -5036368.34447  21073987.882    21073995.457
  23350992.103    -7972238.41249  -5699065.66845  23350991.815    23351002.802
  21178967.845     3583402.16949   2921688.68747  21178967.246    21178973.424
  21642307.342     5228771.20449   4081567.94846  21642306.712    21642315.911
  21036446.045     2719042.80449   2128997.35447  21036445.202    21036453.527
  21674780.409   -19301112.21049 -15005141.22147  21674779.792    21674787.858
  23521822.039    -7133734.51349  -5534725.61145  23521821.312    23521830.935
  21690245.918   -10458716.65949  -8131458.61147  21690245.465    21690253.525
 02  7 11 18 40 30.0000000  0  8G21G 9G18G17G15G14G31G 3
  21072342.782    -6493712.72049  -5043107.20147  21072342.171    21072349.750
  23345128.402    -8003051.87949  -5723076.08245  23345128.104    23345139.066
  21187922.293     3630458.01649   2958355.55847  21187921.687    21187927.855
  21654076.850     5290619.92649   4129761.67546  21654076.194    21654085.392
  21046157.150     2770074.72749   2168762.44847  21046156.319    21046164.632
  21658741.300   -19385398.09549 -15070818.42247  21658740.666    21658748.643
  23509052.395    -7200838.67749  -5587014.52245  23509051.702    23509061.405
  21690105.777   -10459453.08649  -8132032.46247  21690105.323    21690113.385
 02  7 11 18 41  0.0000000  0  8G21G 9G18G17G15G14G31G 3
  21070730.894    -6502183.19249  -5049707.55047  21070730.287    21070737.848
  23339361.988    -8033354.41349  -5746688.36745  23339361.646    23339372.608
  21196911.388     3677695.93549   2995164.30547  21196910.804    21196916.961
  21665911.463     5352810.99449   4178222.15646  21665910.812    21665920.054
  21055937.970     2821472.92549   2208812.95647  21055937.128    21055945.414
  21642775.177   -19469300.22049 -15136196.58947  21642774.559    21642782.458
  23496368.816    -7267491.14749  -5638951.42245  23496368.193    23496377.807
  21690074.194   -10459619.17649  -8132161.89247  21690073.734    21690081.805
 02  7 11 18 41 30.0000000  0  8G21G 9G18G17G15G14G31G 3
  21069152.821    -6510476.12849  -5056169.56747  21069152.210    21069159.761
  23333693.212    -8063143.68849  -5769900.71645  23333692.871    23333703.801
  21205934.994     3725115.40549   3032114.52047  21205934.417    21205940.608
  21677811.290     5415344.79549   4226949.69846  21677810.644    21677819.940
  21065788.516     2873237.71049   2249149.10947  21065787.679    21065795.966
  21626882.470   -19552816.38149 -15201273.99947  21626881.871    21626889.741
  23483771.676    -7333689.51349  -5690534.48645  23483770.914    23483780.513
  21690151.150   -10459214.95649  -8131846.93047  21690150.681    21690158.762
 02  7 11 18 42  0.0000000  0  8G21G 9G18G17G15G14G31G 3
  21067608.310    -6518592.52549  -5062494.02847  21067607.689    21067615.252
  23328122.555    -8092417.77049  -5792711.61645  23328122.117    23328133.006
  21214992.935     3772715.07149   3069205.15147  21214992.356    21214998.577
  21689776.270     5478220.95949   4275944.02546  21689775.631    21689784.965
  21075708.797     2925368.82949   2289770.72447  21075707.951    21075716.244
  21611063.634   -19635944.47149 -15266049.01747  21611063.043    21611070.862
  23471261.253    -7399431.87049  -5741762.21945  23471260.534    23471270.189
  21690336.525   -10458240.97849  -8131087.99747  21690336.033    21690344.117
 02  7 11 18 42 30.0000000  0  8G21G 9G18G17G15G14G31G 3
  21066097.380    -6526532.47849  -5068680.99547  21066096.755    21066104.317
  23322650.296    -8121174.43549  -5815119.33545  23322649.856    23322660.726
  21224085.077     3820494.40349   3106435.78247  21224084.482    21224090.725
  21701806.372     5541439.29549   4325204.96446  21701805.733    21701815.111
  21085698.784     2977866.37949   2330677.87347  21085697.945    21085706.257
  21595319.038   -19718682.54949 -15330520.13447  21595318.432    21595326.233
  23458838.079    -7464715.96949  -5792632.86445  23458837.435    23458847.036
  21690630.369   -10456697.00049  -8129884.90947  21690629.889    21690637.961
 02  7 11 18 43  0.0000000  0  8G21G 9G18G17G15G14G31G 3
  21064619.858    -6534296.87449  -5074731.16647  21064619.228    21064626.771
  23317276.712    -8149412.20449  -5837122.71345  23317276.346    23317287.116
  21233211.114     3868451.92849   3143805.26247  21233210.514    21233216.782
  21713901.524     5604999.41949   4374732.23146  21713900.859    21713910.255
  21095758.445     3030729.97849   2371870.25147  21095757.591    21095765.920
  21579649.007   -19801028.76349 -15394685.90447  21579648.381    21579656.191
  23446502.362    -7529540.13549  -5843145.13845  23446501.675    23446511.350
  21691032.476   -10454583.83749  -8128238.30047  21691032.021    21691040.111
 02  7 11 18 43 30.0000000  0  8G21G 9G18G17G15G14G31G 3
  21063175.756    -6541885.57749  -5080644.43847  21063175.137    21063182.703
  23312002.425    -8177128.58749  -5858719.82845  23312002.027    23312012.849
  21242370.948     3916587.20349   3181313.24747  21242370.343    21242376.642
  21726061.817     5668901.64849   4424526.06746  21726061.151    21726070.578
  21105887.813     3083959.96849   2413348.13247  21105886.958    21105895.313
  21564053.966   -19882980.64549 -15458544.40547  21564053.357    21564061.190
  23434254.705    -7593901.70249  -5893296.92845  23434254.054    23434263.810
  21691542.967   -10451901.36749  -8126148.07947  21691542.488    21691550.579
 02  7 11 18 44  0.0000000  0  8G21G 9G18G17G15G14G31G 3
  21061764.921    -6549299.49149  -5086421.51347  21061764.304    21061771.877
  23306827.680    -8204321.73649  -5879909.20645  23306827.309    23306838.111
  21251564.353     3964898.89349   3218958.70247  21251563.729    21251570.050
  21738287.024     5733145.40449   4474586.03246  21738286.377    21738295.899
  21116086.755     3137555.83049   2455111.10847  21116085.888    21116094.271
  21548534.261   -19964536.60549 -15522094.38947  21548533.651    21548541.515
  23422095.429    -7657798.89549  -5943086.87345  23422094.801    23422104.486
  21692161.651   -10448650.11749  -8123614.65647  21692161.179    21692169.278
 02  7 11 18 44 30.0000000  0  8G21G 9G18G17G15G14G31G 3
  21060387.196    -6556539.53449  -5092063.10847  21060386.588    21060394.153
  23301752.803    -8230990.00149  -5900689.60445  23301752.443    23301763.225
  21260791.117     4013385.91949   3256740.77147  21260790.521    21260796.836
  21750577.123     5797730.14149   4524911.69446  21750576.459    21750586.071
  21126355.219     3191517.21149   2497158.90147  21126354.379    21126362.839
  21533090.217   -20045694.87249 -15585334.48447  21533089.643    21533097.509
  23410024.844    -7721230.18149  -5992513.78345  23410024.247    23410033.806
  21692888.459   -10444830.87849  -8120638.64447  21692887.996    21692896.108
 02  7 11 18 45  0.0000000  0  8G21G 9G18G17G15G14G31G 3
  21059042.531    -6563605.55049  -5097569.09947  21059041.939    21059049.503
  23296778.225    -8257131.07449  -5921059.21245  23296777.827    23296788.651
  21270051.136     4062047.65949   3294658.98747  21270050.540    21270056.875
  21762932.186     5862656.06249   4575503.20946  21762931.546    21762941.234
  21136693.366     3245844.62549   2539491.92147  21136692.552    21136701.066
  21517722.341   -20126452.98049 -15648262.77047  21517721.781    21517729.664
  23398043.386    -7784192.90249  -6041575.56145  23398042.872    23398052.294
  21693723.322   -10440443.54649  -8117219.96247  21693722.878    21693731.009
 02  7 11 18 45 30.0000000  0  8G21G 9G18G17G15G14G31G 3
  21057730.918    -6570498.21649  -5102940.00647  21057730.327    21057737.875
  23291904.332    -8282743.20349  -5941016.64745  23291903.931    23291914.734
  21279344.124     4110882.71249   3332712.25447  21279343.547    21279349.932
  21775352.079     5927922.68349   4626360.21246  21775351.458    21775361.226
  21147101.070     3300537.29249   2582109.54847  21147100.257    21147108.789
  21502430.901   -20206809.46249 -15710878.09847  21502430.338    21502438.230
  23386151.476    -7846685.44949  -6090270.97845  23386150.895    23386160.330
  21694666.211   -10435488.81549  -8113359.15247  21694665.736    21694673.896
 02  7 11 18 46  0.0000000  0  8G21G 9G18G17G15G14G31G 3
  21056452.196    -6577217.93449  -5108176.15447  21056451.602    21056459.162
  23287131.474    -8307824.27449  -5960560.29345  23287131.105    23287141.839
  21288670.037     4159890.71349   3370900.28447  21288669.471    21288675.882
  21787836.810     5993529.88249   4677482.58246  21787836.204    21787845.989
  21157578.298     3355595.36249   2625011.90647  21157577.494    21157586.071
  21487216.313   -20286762.12749 -15773178.77147  21487215.760    21487223.617
  23374349.372    -7908705.61649  -6138598.32645  23374348.825    23374358.177
  21695716.936   -10429967.25949  -8109056.66047  21695716.468    21695724.654
 02  7 11 18 46 30.0000000  0  8G21G 9G18G17G15G14G31G 3
  21055206.289    -6583765.20449  -5113277.92047  21055205.704    21055213.255
  23282459.996    -8332372.51549  -5979688.72545  23282459.748    23282470.450
  21298028.680     4209070.65649   3409222.29347  21298028.112    21298034.554
  21800386.327     6059477.36149   4728870.11846  21800385.677    21800395.509
  21168125.021     3411018.54449   2668198.77947  21168124.203    21168132.810
  21472078.943   -20366309.12349 -15835163.32847  21472078.380    21472086.227
  23362637.487    -7970251.46249  -6186556.03945  23362636.973    23362646.444
  21696875.422   -10423879.28149  -8104312.80047  21696874.966    21696883.184
 02  7 11 18 47  0.0000000  0  8G21G 9G18G17G15G14G31G 3
  21053993.160    -6590140.30849  -5118245.53747  21053992.574    21054000.134
  23277890.262    -8356386.39749  -5998400.78445  23277889.962    23277900.762
  21307419.860     4258421.52049   3447677.49247  21307419.291    21307425.781
  21813000.481     6125764.93249   4780522.66146  21812999.854    21813009.731
  21178741.150     3466806.70349   2711670.03847  21178740.353    21178748.966
  21457019.156   -20445448.64549 -15896830.38047  21457018.575    21457026.397
  23351016.243    -8031321.14949  -6234142.73945  23351015.658    23351025.251
  21698141.626   -10417225.49749  -8099128.05147  21698141.199    21698149.387
 02  7 11 18 47 30.0000000  0  8G21G 9G18G17G15G14G31G 3
  21052812.609    -6596344.20249  -5123079.74047  21052812.022    21052819.601
  23273422.553    -8379864.21249  -6016695.13145  23273422.265    23273433.014
  21316843.311     4307942.08149   3486264.92047  21316842.767    21316849.260
  21825679.279     6192392.10549   4832439.82846  21825678.657    21825688.557
  21189426.684     3522959.40849   2755425.36347  21189425.846    21189434.504
  21442037.254   -20524178.68849 -15958178.35347  21442036.667    21442044.471
  23339485.992    -8091912.87049  -6281356.99345  23339485.391    23339494.893
  21699515.381   -10410006.26749  -8093502.69147  21699514.939    21699523.166
 02  7 11 18 48  0.0000000  0  8G21G 9G18G17G15G14G31G 3
  21051664.639    -6602376.88849  -5127780.53847  21051664.056    21051671.621
  23269057.313    -8402803.61149  -6034569.94545  23269057.037    23269067.802
  21326299.007     4357631.95749   3524984.27447  21326298.471    21326304.999
  21838422.695     6259358.77049   4884621.53946  21838422.095    21838431.950
  21200181.650     3579476.96149   2799464.98247  21200180.800    21200189.472
  21427133.682   -20602497.25849 -16019205.70847  21427133.095    21427140.861
  23328047.083    -8152024.21949  -6328196.94545  23328046.450    23328056.031
  21700996.682   -10402221.88649  -8087436.96447  21700996.243    21701004.495
 02  7 11 18 48 30.0000000  0  8G21G 9G18G17G15G14G31G 3
  21050549.049    -6608239.38049  -5132348.71447  21050548.449    21050556.048
  23264794.767    -8425203.26249  -6052024.16845  23264794.477    23264805.242
  21335786.694     4407489.92349   3563834.61647  21335786.133    21335792.717
  21851230.661     6326664.31949   4937067.32346  21851230.038    21851239.883
  21211005.887     3636358.85949   2843788.50847  21211005.057    21211013.750
  21412308.663   -20680402.73249 -16079911.16447  21412308.088    21412315.844
  23316699.845    -8211653.76549  -6374661.46845  23316699.255    23316708.879
  21702585.363   -10393873.32449  -8080931.61247  21702584.943    21702593.175
 02  7 11 18 49  0.0000000  0  8G21G 9G18G17G15G14G31G 3
  21049465.604    -6613932.83649  -5136785.17247  21049465.019    21049472.624
  23260635.224    -8447061.74849  -6069056.71145  23260634.958    23260645.675
  21345306.052     4457514.62449   3602814.88047  21345305.503    21345312.110
  21864102.975     6394308.35949   4989776.85146  21864102.327    21864112.195
  21221899.378     3693604.41649   2888395.40347  21221898.545    21221907.279
  21397562.590   -20757893.43349 -16140293.41847  21397562.036    21397569.775
  23305444.684    -8270799.86949  -6420749.28945  23305444.107    23305453.769
  21704281.291   -10384961.38949  -8073987.26447  21704280.839    21704289.073
 02  7 11 18 49 30.0000000  0  8G21G 9G18G17G15G14G31G 3
  21048414.384    -6619456.92849  -5141089.66447  21048413.796    21048421.434
  23256578.970    -8468377.18149  -6085666.10045  23256578.646    23256589.360
  21354857.052     4507705.38249   3641924.53347  21354856.510    21354863.130
  21877039.587     6462290.38049   5042749.75446  21877038.941    21877048.818
  21232862.028     3751213.38549   2933285.47647  21232861.216    21232869.952
  21382895.744   -20834967.62749 -16200351.12847  21382895.190    21382902.898
  23294281.821    -8329460.65349  -6466458.94045  23294281.285    23294290.894
  21706084.274   -10375486.56649  -8066604.30247  21706083.841    21706092.060
 02  7 11 18 50  0.0000000  0  8G21G 9G18G17G15G14G31G 3
  21047395.305    -6624812.09649  -5145262.52547  21047394.732    21047402.383
  23252626.388    -8489147.84949  -6101851.00545  23252626.122    23252636.844
  21364439.498     4558061.37749   3681162.94547  21364438.957    21364445.592
  21890040.482     6530610.35749   5095985.99546  21890039.830    21890049.780
  21243893.833     3809185.87949   2978458.81647  21243893.029    21243901.772
  21368308.536   -20911623.45649 -16260082.84447  21368307.998    21368315.696
  23283211.734    -8387633.98749  -6511788.75745  23283211.258    23283220.784
  21707994.242   -10365449.50949  -8058783.24147  21707993.829    21708002.090
 02  7 11 18 50 30.0000000  0  8G21G 9G18G17G15G14G31G 3
  21046408.378    -6629998.32049  -5149303.74047  21046407.805    21046415.481
  23248777.863    -8509371.66049  -6117609.78545  23248777.676    23248788.356
  21374053.314     4608582.07849   3720529.69547  21374052.761    21374059.412
  21903105.682     6599268.15849   5149485.48646  21903105.046    21903115.077
  21254994.861     3867521.89849   3023915.41347  21254994.044    21255002.766
  21353801.389   -20987858.49549 -16319486.67347  21353800.841    21353808.519
  23272234.784    -8445317.77349  -6556737.10945  23272234.318    23272243.804
  21710011.180   -10354850.20949  -8050524.06747  21710010.792    21710019.090
 02  7 11 18 51  0.0000000  0  8G21G 9G18G17G15G14G31G 3
  21045453.295    -6635017.17649  -5153214.53647  21045452.736    21045460.446
  23245033.544    -8529047.90949  -6132941.87645  23245033.278    23245044.099
  21383698.114     4659265.94649   3760023.59347  21383697.584    21383704.250
  21916234.946     6668262.52249   5203247.22946  21916234.317    21916244.405
  21266164.739     3926220.12149   3069654.25647  21266163.941    21266172.696
  21339374.432   -21063672.00049 -16378562.03247  21339373.899    21339381.585
  23261351.193    -8502511.06449  -6601303.25645  23261350.692    23261360.215
  21712134.739   -10343690.72649  -8041828.38947  21712134.382    21712142.697
 02  7 11 18 51 30.0000000  0  8G21G 9G18G17G15G14G31G 3
  21044530.114    -6639868.35649  -5156994.68247  21044529.565    21044537.291
  23241393.933    -8548174.12649  -6147845.37145  23241393.628    23241404.419
  21393373.887     4710112.46649   3799644.22447  21393373.366    21393380.090
  21929428.308     6737593.74049   5257271.44546  21929427.643    21929437.844
  21277403.737     3985281.25949   3115675.87747  21277402.930    21277411.696
  21325028.183   -21139061.47149 -16437306.98847  21325027.651    21325035.348
  23250561.412    -8559211.24749  -6645485.16945  23250560.942    23250570.505
  21714364.972   -10331970.86549  -8032696.05547  21714364.618    21714372.977
 02  7 11 18 52  0.0000000  0  8G21G 9G18G17G15G14G31G 3
  21043638.815    -6644552.04849  -5160644.31447  21043638.282    21043646.031
  23237859.116    -8566749.32349  -6162319.51245  23237858.855    23237869.648
  21403080.434     4761120.62849   3839390.81347  21403079.926    21403086.659
  21942685.675     6807261.23549   5311557.69646  21942685.015    21942695.271
  21288711.611     4044704.56049   3161979.71147  21288710.832    21288719.590
  21310762.904   -21214025.46249 -16495720.39447  21310762.386    21310770.096
  23239865.754    -8615416.93949  -6689281.76545  23239865.286    23239874.809
  21716701.612   -10319691.63949  -8023127.84447  21716701.251    21716709.663
 02  7 11 18 52 30.0000000  0  8G21G 9G18G17G15G14G31G 3
  21042779.265    -6649068.96449  -5164163.99447  21042778.747    21042786.495
  23234429.578    -8584771.63149  -6176362.81545  23234429.249    23234440.111
  21412817.686     4812290.00949   3879263.02347  21412817.185    21412823.920
  21956006.927     6877264.71349   5366105.75446  21956006.313    21956016.589
  21300088.427     4104489.88149   3208565.62947  21300087.686    21300096.432
  21296578.969   -21288561.90449 -16553800.65247  21296578.476    21296586.187
  23229264.639    -8671126.11049  -6732691.45645  23229264.125    23229273.586
  21719144.571   -10306853.73349  -8013124.30147  21719144.219    21719152.645
 02  7 11 18 53  0.0000000  0  8G21G 9G18G17G15G14G31G 3
  21041951.370    -6653419.65549  -5167554.14847  21041950.851    21041958.593
  23231105.561    -8602239.75149  -6189974.29545  23231105.250    23231116.008
  21422585.402     4863619.50149   3919259.99547  21422584.893    21422591.646
  21969392.067     6947603.69049   5420915.23846  21969391.477    21969401.732
  21311534.035     4164636.82049   3255433.32747  21311533.283    21311542.062
  21282476.735   -21362669.31849 -16611546.60847  21282476.229    21282483.924
  23218758.318    -8726337.13549  -6775712.98145  23218757.769    23218767.275
  21721693.725   -10293458.06549  -8002686.13647  21721693.365    21721701.811
 02  7 11 18 53 30.0000000  0  8G21G 9G18G17G15G14G31G 3
  21041154.958    -6657604.94949  -5170815.42047  21041154.422    21041162.152
  23227887.215    -8619152.06149  -6203152.67345  23227886.919    23227897.698
  21432383.311     4915107.65049   3959380.59747  21432382.810    21432389.583
  21982840.907     7018277.39049   5475985.55046  21982840.276    21982850.534
  21323048.375     4225144.78849   3302582.34847  21323047.601    21323056.403
  21268456.377   -21436346.39949 -16668957.23947  21268455.845    21268463.549
  23208347.020    -8781048.69049  -6818345.29745  23208346.476    23208355.984
  21724348.750   -10279505.86549  -7991814.30847  21724348.377    21724356.873
 02  7 11 18 54  0.0000000  0  8G21G 9G18G17G15G14G31G 3
  21040390.071    -6661624.64849  -5173947.66147  21040389.551    21040397.258
  23224775.030    -8635506.48649  -6215896.32745  23224774.713    23224785.527
  21442211.403     4966754.58049   3999624.92347  21442210.896    21442217.677
  21996353.470     7089285.93549   5531316.76746  21996352.872    21996363.099
  21334631.459     4286014.18249   3350012.99747  21334630.712    21334639.518
  21254518.406   -21509590.55649 -16726030.52647  21254517.914    21254525.561
  23198031.246    -8835258.22949  -6860586.43945  23198030.707    23198040.212
  21727109.687   -10264997.18149  -7980508.85747  21727109.305    21727117.838
 02  7 11 18 54 30.0000000  0  8G21G 9G18G17G15G14G31G 3
  21039656.515    -6665479.57749  -5176951.50547  21039655.989    21039663.664
  23221769.213    -8651302.18649  -6228204.60445  23221768.844    23221779.726
  21452069.462     5018558.91149   4039991.90147  21452068.952    21452075.720
  22009929.577     7160628.42449   5586908.19846  22009928.973    22009939.207
  21346283.073     4347243.87949   3397724.39947  21346282.356    21346291.205
  21240663.064   -21582400.74049 -16782765.65947  21240662.545    21240670.180
  23187811.183    -8888964.80449  -6902435.65445  23187810.583    23187820.123
  21729976.215   -10249933.37449  -7968770.84247  21729975.851    21729984.397
 02  7 11 18 55  0.0000000  0  8G21G 9G18G17G15G14G31G 3
  21038954.263    -6669170.02649  -5179827.18147  21038953.735    21038961.410
  23218870.007    -8666537.63349  -6240076.32345  23218869.621    23218880.425
  21461957.376     5070520.03149   4080481.05147  21461956.866    21461963.616
  22023569.202     7232304.55049   5642759.60146  22023568.621    22023578.840
  21358003.289     4408833.59049   3445716.33147  21358002.552    21358011.416
  21226890.637   -21654775.09949 -16839161.18447  21226890.120    21226897.720
  23177687.202    -8942166.40849  -6943891.38745  23177686.572    23177696.148
  21732948.289   -10234315.22149  -7956600.87047  21732947.923    21732956.467
 02  7 11 18 55 30.0000000  0  8G21G 9G18G17G15G14G31G 3
  21038283.157    -6672696.77649  -5182575.30747  21038282.610    21038290.273
  23216077.644    -8681211.61549  -6251510.53945  23216077.254    23216088.010
  21471874.895     5122636.62949   4121091.35247  21471874.371    21471881.105
  22037272.141     7304313.52749   5698870.38846  22037271.564    22037281.748
  21369791.865     4470782.76949   3493988.35947  21369791.121    21369800.000
  21213201.374   -21726712.26149 -16895216.04147  21213200.877    21213208.456
  23167659.585    -8994861.88649  -6984952.72845  23167658.933    23167668.468
  21736025.604   -10218143.99049  -7943999.92447  21736025.243    21736033.746
 02  7 11 18 56  0.0000000  0  8G21G 9G18G17G15G14G31G 3
  21037643.242    -6676059.57649  -5185195.67347  21037642.703    21037650.377
  23213392.521    -8695322.12949  -6262505.66945  23213392.074    23213402.797
  21481821.932     5174908.53949   4161822.67947  21481821.404    21481828.115
  22051038.479     7376655.38749   5755240.56546  22051037.854    22051048.078
  21381648.891     4533091.71849   3542540.73547  21381648.153    21381657.038
  21199595.734   -21798210.23149 -16950928.67247  21199595.246    21199602.768
  23157728.662    -9047048.88149  -7025617.84745  23157728.008    23157737.529
  21739208.048   -10201420.10149  -7930968.34147  21739207.700    21739216.205
 02  7 11 18 56 30.0000000  0  8G21G 9G18G17G15G14G31G 3
  21037034.349    -6679259.50849  -5187689.13447  21037033.804    21037041.477
  23210814.613    -8708868.78149  -6273061.44245  23210814.198    23210824.868
  21491798.257     5227334.21449   4202673.81647  21491797.728    21491804.404
  22064867.901     7449329.07949   5811869.30346  22064867.300    22064877.505
  21393574.154     4595759.30049   3591372.56647  21393573.417    21393582.336
  21186073.934   -21869267.82149 -17006298.15247  21186073.427    21186080.906
  23147894.686    -9098726.38649  -7065885.97345  23147894.027    23147903.594
  21742495.393   -10184145.07049  -7917507.29847  21742495.054    21742503.528
 02  7 11 18 57  0.0000000  0  8G21G 9G18G17G15G14G31G 3
  21036456.441    -6682296.36749  -5190055.52247  21036455.895    21036463.599
  23208344.431    -8721849.69149  -6283176.37445  23208344.038    23208354.614
  21501803.772     5279913.29649   4243644.49847  21501803.251    21501809.898
  22078760.459     7522334.32549   5868756.39946  22078759.823    22078770.075
  21405567.745     4658785.71149   3640484.00647  21405566.984    21405575.903
  21172636.296   -21939883.05649 -17061322.94047  21172635.779    21172643.189
  23138158.044    -9149892.46449  -7105755.57845  23138157.416    23138167.068
  21745887.526   -10166319.56849  -7903617.32347  21745887.175    21745895.609
 02  7 11 18 57 30.0000000  0  8G21G 9G18G17G15G14G31G 3
  21035909.551    -6685170.22549  -5192294.89547  21035909.023    21035916.735
  23205982.174    -8734263.34649  -6292849.29545  23205981.813    23205992.358
  21511838.371     5332645.43949   4284734.45147  21511837.825    21511844.525
  22092716.094     7595671.02249   5925901.77846  22092715.451    22092725.731
  21417629.568     4722170.61449   3689874.78647  21417628.794    21417637.738
  21159283.137   -22010054.18949 -17116001.66947  21159282.614    21159289.978
  23128519.120    -9200545.16849  -7145225.16745  23128518.579    23128528.150
  21749384.249   -10147944.35549  -7889298.98847  21749383.895    21749392.317
 02  7 11 18 58  0.0000000  0  8G21G 9G18G17G15G14G31G 3
  21035393.488    -6687882.21949  -5194408.14147  21035392.940    21035400.643
  23203728.064    -8746108.53349  -6302079.25545  23203727.684    23203738.216
  21521901.785     5385529.01149   4325942.39547  21521901.238    21521907.974
  22106734.615     7669338.13649   5983304.62646  22106733.936    22106744.217
  21429759.459     4785913.18449   3739544.26647  21429758.677    21429767.587
  21146014.727   -22079780.03549 -17170333.42947  21146014.199    21146021.522
  23118978.076    -9250683.59349  -7184294.01445  23118977.545    23118987.011
  21752985.342   -10129020.70649  -7874553.31747  21752984.972    21752993.394
 02  7 11 18 58 30.0000000  0  8G21G 9G18G17G15G14G31G 3
  21034908.151    -6690432.70149  -5196395.52747  21034907.596    21034915.292
  23201582.322    -8757384.45249  -6310865.62245  23201581.929    23201592.421
  21531993.873     5438563.10949   4367267.63447  21531993.321    21532000.060
  22120815.824     7743334.73249   6040964.20246  22120815.138    22120825.398
  21441957.269     4850012.55949   3789491.77847  21441956.492    21441965.360
  21132831.323   -22149059.11249 -17224317.05447  21132830.796    21132838.099
  23109535.230    -9300306.28849  -7222961.00045  23109534.682    23109544.028
  21756690.527   -10109550.17249  -7859381.49247  21756690.147    21756698.556
 02  7 11 18 59  0.0000000  0  8G21G 9G18G17G15G14G31G 3
  21034453.583    -6692821.64349  -5198257.04147  21034453.021    21034460.740
  23199545.233    -8768089.26249  -6319206.97245  23199544.819    23199555.300
  21542114.605     5491747.72749   4408710.15847  21542114.055    21542120.810
  22134959.712     7817661.00149   6098880.66746  22134959.066    22134969.324
  21454222.964     4914468.87049   3839717.41747  21454222.191    21454231.033
  21119733.256   -22217889.62049 -17277951.15147  21119732.723    21119740.004
  23100190.893    -9349411.06649  -7261224.43145  23100190.341    23100199.597
  21760499.647   -10089533.29749  -7843783.95047  21760499.280    21760507.670
 02  7 11 18 59 30.0000000  0  8G21G 9G18G17G15G14G31G 3
  21034029.667    -6695049.28949  -5199992.86847  21034029.085    21034036.834
  23197616.982    -8778221.97749  -6327102.52945  23197616.564    23197626.997
  21552263.781     5545082.02949   4450269.31947  21552263.259    21552270.002
  22149166.219     7892316.26049   6157053.48646  22149165.582    22149175.826
  21466556.432     4979281.50349   3890220.71747  21466555.663    21466564.471
  21106720.851   -22286269.88349 -17331234.40347  21106720.322    21106727.598
  23090945.311    -9397996.70149  -7299083.31945  23090944.821    23090954.036
  21764412.502   -10068971.30049  -7827761.64147  21764412.141    21764420.487
 02  7 11 19  0  0.0000000  0  8G21G 9G18G17G15G14G31G 3
  21033636.340    -6697116.21849  -5201603.46047  21033635.787    21033643.541
  23195797.803    -8787781.42949  -6334551.38345  23195797.414    23195807.812
  21562441.287     5598564.97849   4491944.30647  21562440.753    21562447.530
  22163435.253     7967299.90849   6215482.18446  22163434.603    22163444.802
  21478957.655     5044450.30649   3941001.54747  21478956.877    21478965.722
  21093794.375   -22354198.62049 -17384165.82647  21093793.861    21093801.118
  23081798.819    -9446061.59249  -7336536.43845  23081798.323    23081807.576
  21768428.901   -10047865.11049  -7811315.29047  21768428.511    21768436.897
 02  7 11 19  0 30.0000000  0  8G21G 9G18G17G15G14G31G 3
  21033273.465    -6699023.09349  -5203089.33947  21033272.908    21033280.695
  23194087.901    -8796766.58749  -6341552.73645  23194087.528    23194097.985
  21572646.979     5652196.06349   4533734.72647  21572646.438    21572653.261
  22177766.564     8042611.09549   6274166.10946  22177765.941    22177776.128
  21491426.515     5109974.62149   3992059.39947  21491425.745    21491434.644
  21080954.121   -22421674.23049 -17436744.15547  21080953.610    21080960.896
  23072751.684    -9493604.34949  -7373582.70045  23072751.187    23072760.397
  21772548.575   -10026216.06549  -7794445.93747  21772548.199    21772556.635
 02  7 11 19  1  0.0000000  0  8G21G 9G18G17G15G14G31G 3
  21032941.016    -6700770.10449  -5204450.64547  21032940.468    21032948.272
  23192487.557    -8805176.03249  -6348105.48945  23192487.175    23192497.741
  21582880.655     5705974.24749   4575639.76547  21582880.133    21582886.953
  22192160.154     8118249.48049   6333104.98946  22192159.528    22192169.790
  21503962.894     5175853.72949   4043393.70547  21503962.137    21503971.065
  21068200.355   -22488695.24149 -17488968.26047  21068199.859    21068207.160
  23063804.147    -9540623.53549  -7410220.98145  23063803.601    23063812.870
  21776771.367   -10004025.27049  -7777154.44147  21776770.985    21776779.452
 02  7 11 19  1 30.0000000  0  8G21G 9G18G17G15G14G31G 3
  21032639.047    -6702356.86949  -5205687.08747  21032638.497    21032646.304
  23190997.002    -8813008.63149  -6354208.75745  23190996.657    23191007.256
  21593142.220     5759899.06949   4617659.06847  21593141.699    21593148.529
  22206615.825     8194214.51449   6392298.38446  22206615.230    22206625.607
  21516566.767     5242087.29349   4095004.21147  21516566.011    21516574.949
  21055533.425   -22555260.13249 -17540836.95047  21055532.918    21055540.225
  23054956.574    -9587117.59849  -7446450.06845  23054956.036    23054965.340
  21781097.003    -9981293.75849  -7759441.61047  21781096.631    21781105.188
 02  7 11 19  2  0.0000000  0  8G21G 9G18G17G15G14G31G 3
  21032367.298    -6703784.88949  -5206799.83147  21032366.756    21032374.581
  23189616.358    -8820263.47449  -6359861.82645  23189616.023    23189626.619
  21603431.539     5813969.74149   4659792.01447  21603431.026    21603437.869
  22221133.480     8270505.12449   6451745.48046  22221132.920    22221143.375
  21529237.999     5308674.88849   4146890.59147  21529237.239    21529246.204
  21042953.571   -22621367.55149 -17592349.16847  21042953.057    21042960.366
  23046209.169    -9633085.35149  -7482269.05545  23046208.642    23046217.882
  21785525.251    -9958023.05549  -7741308.62947  21785524.895    21785533.460
 02  7 11 19  2 30.0000000  0  8G21G 9G18G17G15G14G31G 3
  21032125.738    -6705054.24549  -5207788.93847  21032125.213    21032133.014
  23188345.829    -8826939.89149  -6365064.17045  23188345.483    23188356.118
  21613748.318     5868184.75749   4702037.44047  21613747.813    21613754.658
  22235712.995     8347120.77449   6511445.85846  22235712.417    22235723.058
  21541976.399     5375615.58749   4199052.10547  21541975.660    21541984.675
  21030460.970   -22687016.29649 -17643503.97847  21030460.455    21030467.771
  23037562.167    -9678525.57849  -7517676.97345  23037561.618    23037570.838
  21790055.880    -9934214.66949  -7722756.67247  21790055.498    21790064.051
 02  7 11 19  3  0.0000000  0  8G21G 9G18G17G15G14G31G 3
  21031914.266    -6706165.49249  -5208654.84747  21031913.739    21031921.550
  23187185.580    -8833036.57549  -6369814.77845  23187185.266    23187195.853
  21624092.518     5922543.83649   4744395.12847  21624092.023    21624098.871
  22250354.262     8424060.81749   6571399.00346  22250353.690    22250364.388
  21554781.993     5442909.11249   4251488.56147  21554781.245    21554790.323
  21018055.892   -22752205.07049 -17694300.36747  21018055.403    21018062.712
  23029015.807    -9723436.69949  -7552672.61645  23029015.294    23029024.417
  21794688.644    -9909869.50849  -7703786.46247  21794688.271    21794696.810
 02  7 11 19  3 30.0000000  0  8G21G 9G18G17G15G14G31G 3
  21031732.768    -6707119.18749  -5209397.98647  21031732.255    21031740.066
  23186135.758    -8838553.08649  -6374113.29745  23186135.423    23186146.095
  21634463.943     5977045.95149   4786864.27447  21634463.483    21634470.322
  22265057.093     8501324.25549   6631604.13846  22265056.572    22265067.316
  21567654.486     5510554.40049   4304199.11447  21567653.724    21567662.863
  21005738.571   -22816932.68949 -17744737.41947  21005738.080    21005745.393
  23020570.361    -9767817.89649  -7587255.31445  23020569.900    23020578.808
  21799423.160    -9884989.49849  -7684399.48447  21799422.814    21799431.376
 02  7 11 19  4  0.0000000  0  8G21G 9G18G17G15G14G31G 3
  21031581.410    -6707914.65349  -5210017.83147  21031580.900    21031588.729
  23185196.637    -8843487.92449  -6377958.58745  23185196.323    23185206.985
  21644862.520     6031690.73049   4829444.57647  21644862.054    21644868.929
  22279821.462     8578910.86949   6692061.09146  22279820.911    22279831.730
  21580593.855     5578551.19049   4357183.56447  21580593.116    21580602.303
  20993509.375   -22881197.27149 -17794813.66647  20993508.906    20993516.176
  23012226.069    -9811667.29549  -7621423.63345  23012225.587    23012234.499
  21804259.293    -9859575.32349  -7664596.27747  21804258.976    21804267.552
 02  7 11 19  4 30.0000000  0  8G21G 9G18G17G15G14G31G 3
  21031460.038    -6708552.31549  -5210514.71247  21031459.524    21031467.375
  23184368.435    -8847840.04249  -6381349.80745  23184368.196    23184378.735
  21655288.155     6086477.77449   4872135.74447  21655287.696    21655294.591
  22294647.162     8656819.98049   6752769.34446  22294646.627    22294657.516
  21593600.014     5646899.11049   4410441.62547  21593599.302    21593608.533
  20981368.623   -22944997.27349 -17844527.90047  20981368.141    20981375.397
  23003983.165    -9854983.53049  -7655176.49345  23003982.684    23003991.690
  21809196.945    -9833627.91449  -7644377.56447  21809196.647    21809205.234
 02  7 11 19  5  0.0000000  0  8G21G 9G18G17G15G14G31G 3
  21031368.561    -6709033.07349  -5210889.32847  21031368.057    21031375.909
  23183651.300    -8851608.60649  -6384286.31545  23183651.072    23183661.594
  21665740.658     6141406.02349   4914936.93847  21665740.210    21665747.139
  22309534.067     8735050.81849   6813728.29946  22309533.501    22309544.443
  21606672.875     5715597.30249   4463972.62847  21606672.172    21606681.444
  20969316.416   -23008331.69749 -17893879.34947  20969315.935    20969323.178
  22995842.007    -9897765.43749  -7688512.99545  22995841.470    22995850.650
  21814235.712    -9807149.27649  -7623744.89947  21814235.389    21814243.999
 02  7 11 19  5 30.0000000  0  8G21G 9G18G17G15G14G31G 3
  21031306.851    -6709357.23849  -5211141.93147  21031306.360    21031314.222
  23183045.339    -8854792.89549  -6386767.55745  23183045.113    23183055.571
  21676219.901     6196474.57149   4957847.45047  21676219.465    21676226.380
  22324482.076     8813602.58849   6874937.33246  22324481.543    22324492.509
  21619812.289     5784645.13849   4517776.07447  21619811.576    21619820.864
  20957353.035   -23071199.37449 -17942867.10147  20957352.547    20957359.772
  22987802.682    -9940011.96649  -7721432.32845  22987802.185    22987811.351
  21819375.244    -9780141.06249  -7602699.58447  21819374.921    21819383.505
 02  7 11 19  6  0.0000000  0  8G21G 9G18G17G15G14G31G 3
  21031275.016    -6709524.46149  -5211272.23747  21031274.512    21031282.421
  23182550.730    -8857391.75849  -6388792.62745  23182550.495    23182560.985
  21686725.802     6251683.18649   5000867.10947  21686725.352    21686732.270
  22339490.981     8892474.63149   6936395.92246  22339490.432    22339501.504
  21633018.242     5854042.36649   4571851.77147  21633017.513    21633026.815
  20945478.801   -23133598.60649 -17991489.82747  20945478.337    20945485.549
  22979865.633    -9981721.42149  -7753933.14945  22979865.111    22979874.288
  21824615.329    -9752604.38849  -7581242.47147  21824615.013    21824623.610
 02  7 11 19  6 30.0000000  0  8G21G 9G18G17G15G14G31G 3
  21031272.936    -6709535.44649  -5211280.80047  21031272.453    21031280.346
  23182167.743    -8859404.35949  -6390360.85945  23182167.460    23182177.863
  21697258.169     6307030.81449   5043995.08247  21697257.711    21697264.617
  22354560.713     8971666.23549   6998103.54046  22354560.140    22354571.298
  21646290.471     5923788.11149   4626199.03947  21646289.735    21646299.040
  20933693.893   -23195528.49249 -18039746.83447  20933693.426    20933700.645
  22972030.931   -10022893.10049  -7786014.94445  22972030.374    22972039.517
  21829955.719    -9724540.69849  -7559374.70647  21829955.406    21829963.964
 02  7 11 19  7  0.0000000  0  8G21G 9G18G17G15G14G31G 3
  21031300.498    -6709390.58249  -5211167.91747  21031300.004    21031307.917
  23181896.345    -8860830.15349  -6391471.85245  23181896.147    23181906.506
  21707816.855     6362516.74649   5087230.83747  21707816.381    21707823.319
  22369691.099     9051176.43249   7060059.39846  22369690.486    22369701.695
  21659628.939     5993881.71349   4680817.37247  21659628.201    21659637.514
  20921998.577   -23256987.58249 -18087636.98947  20921998.112    20922005.334
  22964298.836   -10063525.46749  -7817676.49345  22964298.297    22964307.489
  21835396.208    -9695951.06849  -7537097.11847  21835395.890    21835404.413
 02  7 11 19  7 30.0000000  0  8G21G 9G18G17G15G14G31G 3
  21031357.619    -6709090.20549  -5210933.85247  21031357.134    21031365.064
  23181736.852    -8861668.25949  -6392124.90845  23181736.638    23181746.999
  21718401.673     6418140.37149   5130573.88247  21718401.224    21718408.205
  22384881.979     9131004.58049   7122263.01846  22384881.339    22384892.626
  21673033.466     6064322.61449   4735706.32547  21673032.722    21673042.033
  20910393.048   -23317974.71749 -18135159.38547  20910392.587    20910399.841
  22956669.510   -10103617.60649  -7848917.08945  22956668.999    22956678.204
  21840936.454    -9666837.19749  -7514411.02247  21840936.135    21840944.712
 02  7 11 19  8  0.0000000  0  8G21G 9G18G17G15G14G31G 3
  21031444.107    -6708635.81149  -5210579.77847  21031443.615    21031451.551
  23181689.108    -8861919.54749  -6392320.68845  23181688.891    23181699.125
  21729012.398     6473899.84649   5174022.78347  21729011.938    21729018.972
  22400133.011     9211148.65349   7184712.81746  22400132.411    22400143.612
  21686503.723     6135108.78349   4790864.30947  21686502.976    21686512.282
  20898877.328   -23378490.00149 -18182314.10747  20898876.869    20898884.148
  22949143.031   -10143169.61549  -7879736.81346  22949142.480    22949151.670
  21846575.828    -9637202.09949  -7491318.78147  21846575.510    21846584.146
 02  7 11 19  8 30.0000000  0  8G21G 9G18G17G15G14G31G 3
  21031560.285    -6708025.52949  -5210104.23647  21031559.784    21031567.701
  23181753.472    -8861581.07049  -6392056.92045  23181753.256    23181763.540
  21739649.241     6529796.49149   5217578.56547  21739648.764    21739655.822
  22415444.338     9291609.89749   7247409.76046  22415443.761    22415454.993
  21700039.929     6206241.77449   4846292.54646  21700039.195    21700048.481
  20887452.084   -23438529.91649 -18229098.41547  20887451.608    20887458.899
  22941719.956   -10182178.04949  -7910132.95746  22941719.408    22941728.599
  21852314.501    -9607045.21849  -7467819.96147  21852314.208    21852322.823
 02  7 11 19  9  0.0000000  0  8G21G 9G18G17G15G14G31G 3
  21031706.047    -6707259.75949  -5209507.52647  21031705.523    21031713.430
  23181930.219    -8860652.07949  -6391332.99945  23181930.024    23181940.366
  21750311.987     6585829.44549   5261240.55747  21750311.522    21750318.576
  22430815.828     9372387.42349   7310353.14946  22430815.289    22430826.614
  21713641.951     6277720.67349   4901990.32146  21713641.219    21713650.501
  20876117.448   -23498093.66049 -18275511.67647  20876116.985    20876124.277
  22934400.445   -10220642.14549  -7940104.93346  22934399.935    22934409.118
  21858152.214    -9576368.08449  -7443915.75247  21858151.906    21858160.530
 02  7 11 19  9 30.0000000  0  8G21G 9G18G17G15G14G31G 3
  21031881.228    -6706339.23149  -5208790.23047  21031880.712    21031888.604
  23182219.439    -8859131.97749  -6390148.46845  23182219.224    23182229.657
  21761000.566     6641997.99749   5305008.21047  21761000.093    21761007.141
  22446247.403     9453480.29449   7373542.26446  22446246.846    22446258.163
  21727309.590     6349544.48049   4957956.85546  21727308.887    21727318.180
  20864873.653   -23557180.14149 -18321553.03847  20864873.179    20864880.458
  22927184.595   -10258560.94749  -7969652.02545  22927184.161    22927193.349
  21864088.573    -9545172.44349  -7419607.50747  21864088.257    21864096.890
 02  7 11 19 10  0.0000000  0  8G21G 9G18G17G15G14G31G 3
  21032085.763    -6705264.34649  -5207952.65247  21032085.250    21032093.128
  23182621.168    -8857020.58149  -6388503.18545  23182620.946    23182631.510
  21771714.720     6698301.23049   5348880.81547  21771714.236    21771721.311
  22461738.766     9534887.33849   7436976.19046  22461738.192    22461749.537
  21741042.710     6421712.28649   5014191.44446  21741042.010    21741051.267
  20853720.868   -23615788.38949 -18367221.75847  20853720.390    20853727.620
  22920072.785   -10295933.56849  -7998773.50646  22920072.374    22920081.545
  21870123.232    -9513460.27349  -7394896.78147  21870122.929    21870131.542
 02  7 11 19 10 30.0000000  0  8G21G 9G18G17G15G14G31G 3
  21032319.677    -6704035.24249  -5206994.90747  21032319.158    21032327.023
  23183135.539    -8854317.47449  -6386396.81345  23183135.269    23183145.823
  21782454.333     6754738.22349   5392857.64847  21782453.871    21782460.970
  22477289.692     9616607.42149   7500654.02546  22477289.156    22477300.509
  21754841.134     6494223.13849   5070693.33946  21754840.417    21754849.675
  20842659.209   -23673917.67049 -18412517.25947  20842658.747    20842665.936
  22913065.089   -10332759.36349  -8027468.90546  22913064.655    22913073.815
  21876255.887    -9481233.25349  -7369784.86647  21876255.593    21876264.208
 02  7 11 19 11  0.0000000  0  8G21G 9G18G17G15G14G31G 3
  21032582.823    -6702652.25249  -5205917.24847  21032582.306    21032590.167
  23183762.609    -8851022.14949  -6383828.95845  23183762.355    23183772.799
  21793219.323     6811308.22649   5436938.12647  21793218.858    21793225.942
  22492900.145     9698639.87149   7564575.26746  22492899.569    22492910.952
  21768704.695     6567076.42049   5127462.06346  21768703.980    21768713.219
  20831688.926   -23731566.84449 -18457438.64947  20831688.452    20831695.622
  22906161.661   -10369037.18849  -8055737.29346  22906161.235    22906170.378
  21882486.194    -9448492.91549  -7344272.95947  21882485.900    21882494.564
 02  7 11 19 11 30.0000000  0  8G21G 9G18G17G15G14G31G 3
  21032875.225    -6701115.77249  -5204719.99147  21032874.704    21032882.578
  23184502.545    -8847133.75449  -6380798.97945  23184502.313    23184512.672
  21804009.572     6868010.96949   5481122.02447  21804009.098    21804016.175
  22508569.902     9780984.15449   7628739.48946  22508569.322    22508580.716
  21782633.320     6640271.59749   5184497.19046  21782632.637    21782641.860
  20820810.297   -23788734.26749 -18501984.65447  20820809.833    20820816.960
  22899362.749   -10404765.75549  -8083577.70746  22899362.282    22899371.374
  21888813.931    -9415240.75649  -7318362.24347  21888813.620    21888822.296
 02  7 11 19 12  0.0000000  0  8G21G 9G18G17G15G14G31G 3
  21033196.727    -6699426.27949  -5203403.50047  21033196.201    21033204.076
  23185355.279    -8842652.32249  -6377306.89745  23185355.043    23185365.406
  21814824.874     6924845.41049   5525408.55347  21814824.391    21814831.453
  22524298.685     9863638.78449   7693145.54346  22524298.122    22524309.536
  21796626.846     6713807.49449   5241797.82446  21796626.160    21796635.320
  20810023.423   -23845419.53449 -18546154.94847  20810022.951    20810030.034
  22892668.521   -10439944.52849  -8110989.69546  22892667.986    22892677.040
  21895238.690    -9381478.78549  -7292054.26047  21895238.342    21895247.065
 02  7 11 19 12 30.0000000  0  8G21G 9G18G17G15G14G31G 3
  21033547.411    -6697583.64149  -5201967.68347  21033546.878    21033554.719
  23186321.043    -8837576.75149  -6373351.82945  23186320.784    23186331.190
  21825665.206     6981811.35649   5569797.54747  21825664.707    21825671.732
  22540086.506     9946603.46649   7757793.18946  22540085.923    22540097.407
  21810685.173     6787683.76149   5299363.67246  21810684.437    21810693.574
  20799328.627   -23901621.03549 -18589948.28747  20799328.125    20799335.182
  22886079.107   -10474572.18049  -8137972.24346  22886078.588    22886087.660
  21901760.195    -9347208.09249  -7265349.87547  21901759.837    21901768.600
 02  7 11 19 13  0.0000000  0  8G21G 9G18G17G15G14G31G 3
  21033927.224    -6695587.90049  -5200412.56447  21033926.686    21033934.469
  23187399.975    -8831906.51649  -6368933.39645  23187399.688    23187410.187
  21836530.447     7038908.28749   5614288.60847  21836529.945    21836536.977
  22555933.129    10029877.26749   7822681.71046  22555932.513    22555944.039
  21824808.102     6861899.67549   5357194.17846  21824807.340    21824816.473
  20788726.060   -23957337.79249 -18633363.90147  20788725.555    20788732.590
  22879594.734   -10508647.77249  -8164524.62546  22879594.217    22879603.278
  21908378.108    -9312430.74849  -7238250.69847  21908377.806    21908386.543
 02  7 11 19 13 30.0000000  0  8G21G 9G18G17G15G14G31G 3
  21034336.006    -6693439.85849  -5198738.77047  21034335.452    21034343.208
  23188592.102    -8825641.37649  -6364051.39845  23188591.842    23188602.310
  21847420.382     7096135.24449   5658880.99747  21847419.886    21847426.946
  22571838.276    10113458.97649   7887810.15446  22571837.722    22571849.270
  21838995.425     6936454.40849   5415288.69846  21838994.658    21839003.824
  20778215.928   -24012568.91649 -18676401.10447  20778215.431    20778222.438
  22873215.521   -10542170.68849  -8190646.34146  22873214.973    22873224.021
  21915092.114    -9277148.67349  -7210758.22047  21915091.788    21915100.524
 02  7 11 19 14  0.0000000  0  8G21G 9G18G17G15G14G31G 3
  21034773.810    -6691139.44749  -5196946.24747  21034773.240    21034780.979
  23189897.673    -8818780.67149  -6358705.31245  23189897.388    23189907.881
  21858335.042     7153491.90049   5703574.44047  21858334.560    21858341.607
  22587801.999    10197348.23649   7953178.23645  22587801.390    22587813.056
  21853247.071     7011347.30849   5473646.72346  21853246.332    21853255.566
  20767798.448   -24067313.14849 -18719058.90647  20767797.943    20767804.924
  22866941.729   -10575139.48349  -8216336.28046  22866941.196    22866950.210
  21921901.949    -9241363.07049  -7182873.38947  21921901.623    21921910.359
 02  7 11 19 14 30.0000000  0  8G21G 9G18G17G15G14G31G 3
  21035240.589    -6688686.55949  -5195034.91647  21035240.026    21035247.733
  23191316.550    -8811324.47049  -6352895.23045  23191316.216    23191326.648
  21869274.171     7210977.18949   5748368.12547  21869273.687    21869280.728
  22603823.993    10281543.48149   8018784.76245  22603823.339    22603834.974
  21867562.794     7086576.98949   5532267.17346  21867562.082    21867571.401
  20757473.693   -24121570.06449 -18761336.98447  20757473.190    20757480.119
  22860773.459   -10607553.91049  -8241594.24846  22860772.946    22860781.910
  21928807.133    -9205076.42749  -7154598.14647  21928806.793    21928815.521
 02  7 11 19 15  0.0000000  0  8G21G 9G18G17G15G14G31G 3
  21035736.311    -6686081.59249  -5193005.07947  21035735.753    21035743.469
  23192848.862    -8803272.08349  -6346620.56845  23192848.575    23192858.974
  21880237.748     7268590.78749   5793261.78347  21880237.267    21880244.327
  22619904.113    10366044.22049   8084629.32145  22619903.446    22619915.057
  21881942.569     7162142.86449   5591149.59146  21881941.817    21881951.171
  20747241.950   -24175338.22749 -18803234.21947  20747241.444    20747248.358
  22854710.865   -10639412.94949  -8266419.44646  22854710.343    22854719.271
  21935807.461    -9168289.87849  -7125933.35847  21935807.117    21935815.808
 02  7 11 19 15 30.0000000  0  8G21G 9G18G17G15G14G31G 3
  21036260.925    -6683324.72649  -5190856.87447  21036260.370    21036268.104
  23194494.599    -8794623.30849  -6339881.19145  23194494.326    23194504.755
  21891225.579     7326332.20049   5838255.04147  21891225.100    21891232.191
  22636042.103    10450849.19349   8150710.96945  22636041.504    22636053.049
  21896386.215     7238044.10249   5650293.33146  21896385.448    21896394.800
  20737103.335   -24228616.98749 -18844750.09847  20737102.822    20737109.712
  22848754.178   -10670715.78049  -8290811.22746  22848753.657    22848762.518
  21942902.481    -9131005.58349  -7096880.71747  21942902.095    21942910.799
 02  7 11 19 16  0.0000000  0  8G21G 9G18G17G15G14G31G 3
  21036814.385    -6680416.13249  -5188590.45047  21036813.837    21036821.589
  23196253.963    -8785377.57349  -6332676.66445  23196253.688    23196264.092
  21902237.698     7384201.07749   5883347.62047  21902237.197    21902244.337
  22652237.839    10535957.80149   8217029.19045  22652237.262    22652248.802
  21910893.572     7314280.26949   5709698.05046  21910892.794    21910902.154
  20727058.103   -24281404.96649 -18885883.55847  20727057.587    20727064.461
  22842903.497   -10701461.38549  -8314768.81446  22842902.928    22842911.782
  21950091.928    -9093225.09649  -7067441.43647  21950091.548    21950100.284
 02  7 11 19 16 30.0000000  0  8G21G 9G18G17G15G14G31G 3
  21037396.609    -6677356.63649  -5186206.43347  21037396.044    21037403.799
  23198126.924    -8775535.06249  -6325007.11545  23198126.651    23198136.975
  21913273.851     7442196.31749   5928538.66947  21913273.347    21913280.507
  22668491.094    10621368.69249   8283582.97245  22668490.540    22668502.144
  21925464.319     7390849.93549   5769362.63946  21925463.567    21925472.933
  20717106.345   -24333701.71049 -18926634.23447  20717105.816    20717112.679
  22837158.924   -10731649.35949  -8338291.87446  22837158.325    22837167.204
  21957375.351    -9054950.58349  -7037617.19947  21957374.975    21957383.745
 02  7 11 19 17  0.0000000  0  8G21G 9G18G17G15G14G31G 3
  21038007.679    -6674145.56649  -5183704.31347  21038007.111    21038014.860
  23200113.572    -8765095.10649  -6316872.02745  23200113.256    23200123.537
  21924334.107     7500317.89549   5973828.14946  21924333.580    21924340.753
  22684801.832    10707081.34049   8350371.87645  22684801.268    22684812.892
  21940098.534     7467752.86549   5829286.91546  21940097.776    21940107.126
  20707248.315   -24385505.82249 -18967001.04147  20707247.791    20707254.647
  22831520.640   -10761278.48349  -8361379.47846  22831520.038    22831529.034
  21964752.541    -9016183.47749  -7007409.12246  21964752.148    21964760.942
 02  7 11 19 17 30.0000000  0  8G21G 9G18G17G15G14G31G 3
  21038647.584    -6670783.02949  -5181084.16647  21038646.998    21038654.733
  23202213.882    -8754057.62649  -6308271.34145  23202213.582    23202223.809
  21935418.237     7558565.08549   6019215.51546  21935417.716    21935424.879
  22701169.776    10793094.74749   8417395.13445  22701169.167    22701180.862
  21954795.995     7544988.01249   5889470.05646  21954795.222    21954804.570
  20697484.197   -24436816.50849 -19006983.35847  20697483.680    20697490.540
  22825988.761   -10790348.17449  -8384031.17146  22825988.168    22825997.180
  21972223.091    -8976925.63349  -6976818.65846  21972222.707    21972231.517
 02  7 11 19 18  0.0000000  0  8G21G 9G18G17G15G14G31G 3
  21039316.210    -6667269.37349  -5178346.26447  21039315.625    21039323.375
  23204428.061    -8742422.02749  -6299204.59645  23204427.709    23204437.916
  21946526.160     7616937.54849   6064700.50146  21946525.647    21946532.859
  22717594.813    10879408.15149   8484652.15745  22717594.226    22717605.915
  21969556.552     7622554.79249   5949911.61346  21969555.763    21969565.152
  20687814.161   -24487632.62449 -19046580.30447  20687813.645    20687820.505
  22820563.559   -10818857.41149  -8406246.13146  22820563.003    22820571.997
  21979786.715    -8937178.82949  -6945847.19146  21979786.330    21979795.126
 02  7 11 19 18 30.0000000  0  8G21G 9G18G17G15G14G31G 3
  21040013.443    -6663605.43449  -5175491.25847  21040012.872    21040020.599
  23206755.846    -8730188.94749  -6289672.27445  23206755.538    23206765.726
  21957657.698     7675434.10849   6110282.17546  21957657.190    21957664.413
  22734076.604    10966019.86949   8552141.63145  22734076.036    22734087.715
  21984379.924     7700451.76249   6010610.45046  21984379.141    21984388.539
  20678238.280   -24537954.15049 -19085791.85347  20678237.764    20678244.597
  22815245.099   -10846806.23649  -8428024.41846  22815244.495    22815253.530
  21987442.879    -8896945.66249  -6914496.73646  21987442.480    21987451.242
 02  7 11 19 19  0.0000000  0  8G21G 9G18G17G15G14G31G 3
  21040739.360    -6659790.87549  -5172518.88947  21040738.780    21040746.501
  23209197.480    -8717357.84849  -6279673.97645  23209197.197    23209207.410
  21968812.861     7734054.67749   6155960.48146  21968812.338    21968819.599
  22750615.056    11052929.19649   8619863.00645  22750614.516    22750626.227
  21999266.007     7778678.19849   6071566.01346  21999265.215    21999274.641
  20668756.796   -24587779.85249 -19124617.04247  20668756.268    20668763.070
  22810033.401   -10874193.72249  -8449365.30046  22810032.843    22810041.812
  21995191.361    -8856227.52549  -6882768.38546  21995190.986    21995199.729
 02  7 11 19 19 30.0000000  0  8G21G 9G18G17G15G14G31G 3
  21041493.892    -6655825.92849  -5169429.33647  21041493.317    21041501.014
  23211752.988    -8703928.45349  -6269209.46945  23211752.658    23211762.806
  21979991.457     7792798.39249   6201734.74446  21979990.918    21979998.182
  22767209.931    11140135.02949   8687815.42045  22767209.429    22767221.140
  22014214.596     7857233.05049   6132777.48546  22014213.796    22014223.228
  20659369.756   -24637109.02449 -19163055.31947  20659369.226    20659376.004
  22804928.602   -10901019.36149  -8470268.38846  22804928.057    22804937.024
  22003031.648    -8815026.63449  -6850663.86246  22003031.268    22003040.086
 02  7 11 19 20  0.0000000  0  8G21G 9G18G17G15G14G31G 3
  21042277.034    -6651710.57149  -5166222.57647  21042276.455    21042284.157
  23214422.376    -8689900.62649  -6258278.65045  23214422.060    23214432.206
  21991193.470     7851665.16349   6247604.90146  21991192.944    21991200.267
  22783861.140    11227636.51449   8755998.21945  22783860.571    22783872.360
  22029225.582     7936115.83749   6194244.48746  22029224.755    22029234.257
  20650077.354   -24685940.84649 -19201106.04947  20650076.809    20650083.557
  22799931.002   -10927282.12849  -8490732.87446  22799930.416    22799939.342
  22010963.376    -8773345.04449  -6818184.76646  22010963.017    22010971.920
 02  7 11 19 20 30.0000000  0  8G21G 9G18G17G15G14G31G 3
  21043088.717    -6647445.14549  -5162898.88547  21043088.163    21043095.835
  23217205.607    -8675274.91249  -6246881.96245  23217205.333    23217215.290
  22002418.736     7910654.05249   6293570.21446  22002418.163    22002425.544
  22800568.293    11315432.26149   8824410.30345  22800567.645    22800579.616
  22044298.713     8015325.10949   6255965.89546  22044297.840    22044307.399
  20640879.734   -24734274.75449 -19238768.79947  20640879.197    20640885.925
  22795040.490   -10952982.04649  -8510758.77746  22795039.882    22795048.790
  22018986.220    -8731185.00849  -6785332.85346  22018985.843    22018994.791
 02  7 11 19 21  0.0000000  0  8G21G 9G18G17G15G14G31G 3
  21043929.011    -6643029.56949  -5159458.19447  21043928.462    21043936.095
  23220102.668    -8660050.52949  -6235018.77645  23220102.388    23220112.357
  22013667.177     7969764.89849   6339630.56346  22013666.625    22013674.009
  22817331.256    11403521.68349   8893051.21845  22817330.651    22817342.597
  22059433.825     8094860.41249   6317941.35346  22059432.972    22059442.558
  20631777.097   -24782109.37749 -19276042.49847  20631776.548    20631783.283
  22790257.282   -10978118.01149  -8530345.24346  22790256.694    22790265.587
  22027099.814    -8688548.10449  -6752109.36546  22027099.456    22027108.396
 02  7 11 19 21 30.0000000  0  8G21G 9G18G17G15G14G31G 3
  21044797.895    -6638463.79449  -5155900.46447  21044797.350    21044804.978
  23223113.676    -8644227.57649  -6222689.17745  23223113.413    23223123.378
  22024938.758     8028997.33249   6385785.65546  22024938.223    22024945.628
  22834149.845    11491903.75749   8961920.18045  22834149.257    22834161.421
  22074630.845     8174720.90549   6380170.20346  22074630.041    22074639.615
  20622769.550   -24829444.13449 -19312926.69547  20622769.024    20622775.739
  22785581.500   -11002689.26249  -8549491.66646  22785580.961    22785589.870
  22035303.852    -8645436.01249  -6718515.59646  22035303.467    22035312.410
 02  7 11 19 22  0.0000000  0  8G21G 9G18G17G15G14G31G 3
  21045695.268    -6633748.07349  -5152225.89247  21045694.719    21045702.332
  23226238.385    -8627806.75949  -6209893.71745  23226238.140    23226248.068
  22036233.359     8088350.42549   6432034.76446  22036232.843    22036240.208
  22851023.872    11580576.86849   9031015.91245  22851023.315    22851035.581
  22089889.473     8254905.13049   6442651.31546  22089888.698    22089898.260
  20613857.151   -24876278.87549 -19349421.26947  20613856.624    20613863.336
  22781013.159   -11026696.13149  -8568198.32146  22781012.603    22781021.489
  22043597.753    -8601851.41249  -6684553.64246  22043597.355    22043606.284
 02  7 11 19 22 30.0000000  0  8G21G 9G18G17G15G14G31G 3
  21046621.220    -6628882.41849  -5148434.48647  21046620.668    21046628.284
  23229477.036    -8610787.45449  -6196631.89845  23229476.748    23229486.708
  22047550.827     8147823.89749   6478377.67246  22047550.318    22047557.617
  22867953.230    11669540.48549   9100338.01145  22867952.736    22867964.908
  22105209.605     8335412.51449   6505384.23846  22105208.852    22105218.416
  20605040.171   -24922612.32649 -19385525.22547  20605039.648    20605046.350
  22776552.481   -11050137.45349  -8586464.27846  22776551.861    22776560.747
  22051981.322    -8557795.69249  -6650224.57546  22051980.921    22051989.860
 02  7 11 19 23  0.0000000  0  8G21G 9G18G17G15G14G31G 3
  21047575.613    -6623867.12149  -5144526.47447  21047575.057    21047582.665
  23232829.575    -8593169.91549  -6182903.93245  23232829.317    23232839.260
  22058891.161     8207417.41849   6524814.13446  22058890.657    22058897.982
  22884937.626    11758793.37449   9169885.52445  22884937.067    22884949.240
  22120590.998     8416241.89549   6568368.05846  22120590.234    22120599.834
  20596318.677   -24968444.02249 -19421238.20347  20596318.156    20596324.822
  22772199.467   -11073012.81449  -8604289.23646  22772198.825    22772207.708
  22060454.108    -8513271.19549  -6615530.22546  22060453.695    22060462.635
 02  7 11 19 23 30.0000000  0  8G21G 9G18G17G15G14G31G 3
  21048558.433    -6618702.37349  -5140502.00447  21048557.877    21048565.478
  23236295.927    -8574954.01249  -6168709.71745  23236295.667    23236305.544
  22070254.269     8267130.61549   6571343.84846  22070253.741    22070261.085
  22901976.947    11848334.50049   9239657.63345  22901976.351    22901988.562
  22136033.501     8497392.52249   6631602.20146  22136032.783    22136042.407
  20587692.805   -25013773.09449 -19456559.52547  20587692.277    20587698.917
  22767954.120   -11095321.84049  -8621672.89446  22767953.544    22767962.381
  22069015.660    -8468280.08249  -6580472.28446  22069015.298    22069024.223
 02  7 11 19 24  0.0000000  0  8G21G 9G18G17G15G14G31G 3
  21049569.699    -6613388.32949  -5136361.20247  21049569.127    21049576.748
  23239876.112    -8556140.07949  -6154049.50945  23239875.829    23239885.700
  22081639.961     8326962.49449   6617966.04146  22081639.429    22081646.759
  22919070.838    11938162.50949   9309653.27945  22919070.228    22919082.458
  22151536.958     8578863.21349   6695085.73846  22151536.241    22151545.852
  20579162.671   -25058599.22649 -19491488.94647  20579162.153    20579168.749
  22763816.630   -11117064.26649  -8638615.02946  22763816.138    22763824.986
  22077665.666    -8422824.56249  -6545052.46346  22077665.310    22077674.213
 02  7 11 19 24 30.0000000  0  8G21G 9G18G17G15G14G31G 3
  21050609.363    -6607924.82749  -5132103.93747  21050608.787    21050616.418
  23243569.988    -8536728.51549  -6138923.62545  23243569.691    23243579.543
  22093048.140     8386912.67249   6664680.41246  22093047.601    22093054.941
  22936219.109    12028276.42749   9379871.71945  22936218.476    22936230.756
  22167101.109     8660652.79249   6758817.75746  22167100.336    22167109.984
  20570728.382   -25102921.73749 -19526025.93447  20570727.851    20570734.417
  22759787.083   -11138239.62949  -8655115.30746  22759786.567    22759795.472
  22086403.671    -8376906.70949  -6509272.38346  22086403.291    22086412.157
 02  7 11 19 25  0.0000000  0  8G21G 9G18G17G15G14G31G 3
  21051677.508    -6602311.53649  -5127729.94647  21051676.937    21051684.595
  23247377.644    -8516719.10149  -6123331.88045  23247377.326    23247387.200
  22104478.822     8446981.02749   6711486.87146  22104478.278    22104485.639
  22953421.580    12118675.30749   9450312.18645  22953420.957    22953433.279
  22182725.755     8742760.53749   6822797.70746  22182724.989    22182734.669
  20562390.059   -25146739.75749 -19560169.81047  20562389.524    20562396.079
  22755865.553   -11158847.36949  -8671173.28246  22755865.072    22755873.902
  22095229.235    -8330528.29149  -6473133.42446  22095228.861    22095237.716
 02  7 11 19 25 30.0000000  0  8G21G 9G18G17G15G14G31G 3
  21052774.025    -6596549.30849  -5123239.90747  21052773.468    21052781.135
  23251298.929    -8496112.40949  -6107274.74445  23251298.681    23251308.430
  22115931.841     8507166.87149   6758384.88346  22115931.319    22115938.643
  22970678.071    12209357.73449   9520973.60145  22970677.450    22970689.802
  22198410.725     8825185.21049   6887024.60746  22198409.930    22198419.652
  20554147.786   -25190053.02349 -19593920.37647  20554147.250    20554153.844
  22752052.086   -11178887.29549  -8686788.80046  22752051.573    22752060.428
  22104142.038    -8283691.66549  -6436637.41746  22104141.611    22104150.495
 02  7 11 19 26  0.0000000  0  8G21G 9G18G17G15G14G31G 3
  21053898.951    -6590637.76449  -5118633.51647  21053898.409    21053906.077
  23255333.950    -8474908.49949  -6090752.23745  23255333.657    23255343.400
  22127407.200     8567470.00549   6805374.29046  22127406.665    22127413.988
  22987988.293    12300322.68249   9591855.16845  22987987.617    22988000.051
  22214155.881     8907926.17549   6951497.96546  22214155.130    22214164.847
  20546001.729   -25232860.68249 -19627276.96847  20546001.199    20546007.808
  22748346.685   -11198359.03249  -8701961.57746  22748346.248    22748355.071
  22113141.544    -8236399.13149  -6399786.16246  22113141.131    22113150.003
 02  7 11 19 26 30.0000000  0  8G21G 9G18G17G15G14G31G 3
  21055052.180    -6584577.62349  -5113911.33847  21055051.631    21055059.281
  23259482.505    -8453107.97149  -6073764.83845  23259482.136    23259491.865
  22138904.717     8627889.44649   6852454.32046  22138904.136    22138911.505
  23005351.954    12391568.65649   9662955.72345  23005351.336    23005363.758
  22229960.947     8990981.76549   7016216.48646  22229960.189    22229969.926
  20537951.851   -25275162.96649 -19660239.76247  20537951.332    20537957.944
  22744749.460   -11217262.67249  -8716691.68346  22744749.008    22744757.762
  22122227.334    -8188653.23949  -6362581.64446  22122226.931    22122235.820
 02  7 11 19 27  0.0000000  0  8G21G 9G18G17G15G14G31G 3
  21056233.828    -6578368.12149  -5109072.77347  21056233.273    21056240.918
  23263744.693    -8430710.09549  -6056311.97045  23263744.305    23263754.014
  22150424.442     8688425.60349   6899625.30446  22150423.861    22150431.212
  23022769.036    12483095.35049   9734275.00145  23022768.429    23022780.884
  22245825.808     9074351.69749   7081179.94546  22245825.016    22245834.811
  20529998.443   -25316958.29049 -19692807.51747  20529997.928    20530004.528
  22741260.528   -11235597.15249  -8730978.28546  22741260.043    22741268.810
  22131399.109    -8140455.44849  -6325025.00246  22131398.661    22131407.606
 02  7 11 19 27 30.0000000  0  8G21G 9G18G17G15G14G31G 3
  21057443.702    -6572010.24849  -5104118.58847  21057443.135    21057450.818
  23268120.247    -8407716.19049  -6038394.66945  23268119.885    23268129.590
  22161966.066     8749077.06549   6946886.13546  22161965.501    22161972.872
  23040239.194    12574900.60849   9805811.35245  23040238.605    23040251.036
  22261750.079     9158033.96849   7146386.78346  22261749.311    22261759.128
  20522141.412   -25358246.94849 -19724980.46347  20522140.908    20522147.521
  22737879.788   -11253363.06949  -8744821.85046  22737879.304    22737888.095
  22140656.328    -8091808.54649  -6287118.40646  22140655.903    22140664.887
 02  7 11 19 28  0.0000000  0  8G21G 9G18G17G15G14G31G 3
  21058681.847    -6565503.74549  -5099048.59147  21058681.278    21058688.970
  23272609.192    -8384126.44549  -6020013.07145  23272608.759    23272618.595
  22173529.559     8809843.64449   6994236.66546  22173529.025    22173536.387
  23057762.149    12666983.55749   9877564.07945  23057761.524    23057774.057
  22277733.676     9242027.90049   7211836.48346  22277732.946    22277742.723
  20514380.976   -25399028.27549 -19756758.09247  20514380.470    20514387.100
  22734607.375   -11270560.01549  -8758222.06746  22734606.820    22734615.567
  22149998.652    -8042714.65449  -6248863.50046  22149998.225    22150007.208
 02  7 11 19 28 30.0000000  0  8G21G 9G18G17G15G14G31G 3
  21059948.403    -6558848.03649  -5093862.33147  21059947.841    21059955.545
  23277211.468    -8359941.24249  -6001167.50145  23277211.102    23277220.987
  22185114.977     8870725.08049   7041676.69146  22185114.435    22185121.796
  23075337.698    12759343.01749   9949532.28045  23075337.196    23075349.682
  22293776.435     9326332.57349   7277528.31746  22293775.680    22293785.458
  20506717.148   -25439301.73049 -19788139.97847  20506716.626    20506723.289
  22731443.259   -11287187.58649  -8771178.62546  22731442.700    22731451.455
  22159425.626    -7993175.87849  -6210261.93746  22159425.219    22159434.215
 02  7 11 19 29  0.0000000  0  8G21G 9G18G17G15G14G31G 3
  21061243.280    -6552043.38949  -5088560.01147  21061242.715    21061250.423
  23281927.015    -8335161.05949  -5981858.28745  23281926.658    23281936.532
  22196722.270     8931721.12749   7089206.02546  22196721.709    22196729.034
  23092965.590    12851977.78149  10021714.98345  23092965.163    23092977.643
  22309878.126     9410946.92449   7343461.45246  22309877.333    22309887.171
  20499150.042   -25479066.91549 -19819125.80347  20499149.544    20499156.200
  22728387.523   -11303245.66149  -8783691.40546  22728386.946    22728395.683
  22168936.845    -7943194.61549  -6171315.57946  22168936.414    22168945.442
 02  7 11 19 29 30.0000000  0  8G21G 9G18G17G15G14G31G 3
  21062566.517    -6545089.72549  -5083141.58347  21062565.939    21062573.653
  23286755.741    -8309785.97849  -5962085.52645  23286755.435    23286765.297
  22208351.199     8992831.28249   7136824.27146  22208350.599    22208357.971
  23110645.786    12944886.88349  10094111.46645  23110645.302    23110657.947
  22326038.522     9495869.88749   7409635.08046  22326037.735    22326047.612
  20491679.804   -25518323.20149 -19849715.08947  20491679.286    20491685.959
  22725440.210   -11318733.92249  -8795760.17246  22725439.656    22725448.352
  22178531.847    -7892772.99149  -6132026.08546  22178531.452    22178540.498
 02  7 11 19 30  0.0000000  0  8G21G 9G18G17G15G14G31G 3
  21063918.087    -6537987.16849  -5077607.13947  21063917.514    21063925.201
  23291697.598    -8283816.50349  -5941849.61445  23291697.294    23291707.148
  22220001.708     9054054.96549   7184530.97746  22220001.123    22220008.514
  23128377.901    13038068.92749  10166720.63445  23128377.377    23128390.077
  22342257.414     9581100.22049   7476048.19846  22342256.598    22342266.549
  20484306.499   -25557070.25749 -19879907.58047  20484305.980    20484312.639
  22722601.359   -11333652.26049  -8807384.85246  22722600.850    22722609.508
  22188210.240    -7841913.31149  -6092395.24846  22188209.802    22188218.877
 02  7 11 19 30 30.0000000  0  8G21G 9G18G17G15G14G31G 3
  21065297.944    -6530735.93049  -5071956.83147  21065297.368    21065305.092
  23296752.405    -8257253.26749  -5921151.01545  23296752.114    23296762.081
  22231673.771     9115391.94649   7232325.97346  22231673.163    22231680.598
  23146161.738    13131522.58049  10239541.44645  23146161.146    23146173.975
  22358534.543     9666636.72049   7542699.89846  22358533.739    22358543.716
  20477030.097   -25595307.82549 -19909703.06047  20477029.578    20477036.224
  22719870.912   -11348000.83049  -8818565.54346  22719870.331    22719879.082
  22197971.479    -7790617.91649  -6052424.89146  22197971.094    22197980.169
 02  7 11 19 31  0.0000000  0  8G21G 9G18G17G15G14G31G 3
  21066706.134    -6523335.80249  -5066190.50847  21066705.563    21066713.300
  23301920.147    -8230096.58249  -5899989.98945  23301919.887    23301929.877
  22243367.370     9176842.06649   7280209.12746  22243366.808    22243374.286
  23163997.146    13225247.06349  10312573.29145  23163996.559    23164009.457
  22374869.786     9752478.50749   7609589.47546  22374868.981    22374879.000
  20469850.796   -25633035.31449 -19939101.07647  20469850.268    20469856.894
  22717249.018   -11361779.04049  -8829301.80546  22717248.456    22717257.251
  22207815.233    -7738888.93249  -6012116.67746  22207814.830    22207823.909
 02  7 11 19 31 30.0000000  0  8G21G 9G18G17G15G14G31G 3
  21068142.519    -6515787.48049  -5060308.70447  21068141.949    21068149.675
  23307200.628    -8202347.49549  -5878367.34845  23307200.382    23307210.380
  22255082.319     9238404.17749   7328179.54846  22255081.747    22255089.222
  23181883.612    13319240.23749  10385814.50045  23181883.006    23181895.932
  22391262.860     9838623.97949   7676715.70046  22391262.051    22391272.120
  20462768.539   -25670252.86749 -19968101.73947  20462768.001    20462774.606
  22714735.484   -11374987.76349  -8839594.31946  22714734.877    22714743.693
  22217740.951    -7686729.40849  -5971472.97346  22217740.548    22217749.626
 02  7 11 19 32  0.0000000  0  8G21G 9G18G17G15G14G31G 3
  21069607.275    -6508090.10849  -5054310.76347  21069606.705    21069614.451
  23312593.938    -8174005.48749  -5856282.69945  23312593.637    23312603.678
  22266818.657     9300078.74949   7376237.59146  22266818.083    22266825.531
  23199821.196    13413501.88349  10459264.91145  23199820.548    23199833.578
  22407713.614     9925072.78249   7744078.27946  22407712.843    22407722.912
  20455783.497   -25706959.36849 -19996704.17947  20455782.956    20455789.540
  22712330.472   -11387625.94849  -8849442.25946  22712329.901    22712338.707
  22227748.284    -7634140.63849  -5930494.79546  22227747.900    22227757.003
 02  7 11 19 32 30.0000000  0  8G21G 9G18G17G15G14G31G 3
  21071100.290    -6500243.98649  -5048196.91147  21071099.741    21071107.526
  23318099.754    -8145072.29449  -5833737.38145  23318099.506    23318109.490
  22278576.252     9361864.97449   7424382.63746  22278575.683    22278583.115
  23217809.479    13508029.69649  10532922.72545  23217808.835    23217821.944
  22424221.737    10011823.06349   7811675.77046  22424220.974    22424231.084
  20448895.600   -25743155.31949 -20024908.78647  20448895.075    20448901.641
  22710033.877   -11399694.40749  -8858846.25146  22710033.291    22710042.164
  22237836.716    -7581125.81849  -5889184.63046  22237836.296    22237845.478
 02  7 11 19 33  0.0000000  0  8G21G 9G18G17G15G14G31G 3
  21072621.723    -6492248.81049  -5041966.91447  21072621.188    21072628.983
  23323718.026    -8115548.21649  -5810731.63545  23323717.766    23323727.786
  22290354.894     9423762.39449   7472614.33546  22290354.369    22290361.854
  23235848.243    13602823.02649  10606787.43345  23235847.627    23235860.741
  22440787.038    10098873.71649   7879507.32046  22440786.287    22440796.409
  20442104.956   -25778840.17849 -20052715.14347  20442104.446    20442111.012
  22707845.766   -11411192.82949  -8867806.06546  22707845.226    22707854.044
  22248005.792    -7527687.14149  -5847544.18846  22248005.396    22248014.637
 02  7 11 19 33 30.0000000  0  8G21G 9G18G17G15G14G31G 3
  21074171.580    -6484104.22049  -5035620.49447  21074171.055    21074178.874
  23329448.680    -8085433.24249  -5787265.46345  23329448.489    23329458.488
  22302154.767     9485771.33349   7520932.93546  22302154.270    22302161.809
  23253937.321    13697880.90049  10680858.28145  23253936.634    23253949.904
  22457409.331    10186224.04649   7947572.38146  22457408.569    22457418.766
  20435411.746   -25814013.02149 -20080122.52447  20435411.249    20435417.829
  22705766.180   -11422120.80049  -8876321.37546  22705765.645    22705774.473
  22258255.152    -7473826.45549  -5805574.90646  22258254.780    22258264.066
 02  7 11 19 34  0.0000000  0  8G21G 9G18G17G15G14G31G 3
  21075749.659    -6475811.48249  -5029158.62847  21075749.123    21075756.971
  23335291.521    -8054728.87849  -5763340.01745  23335291.364    23335301.380
  22313975.650     9547890.55649   7569337.45646  22313975.127    22313982.760
  23272076.321    13793201.27349  10755133.66145  23272075.597    23272089.048
  22474088.272    10273872.16049   8015869.47646  22474087.523    22474097.744
  20428815.840   -25848674.46149 -20107131.41047  20428815.356    20428821.954
  22703795.065   -11432479.02549  -8884392.72546  22703794.481    22703803.418
  22268584.271    -7419546.85849  -5763279.20446  22268583.880    22268593.185
 02  7 11 19 34 30.0000000  0  8G21G 9G18G17G15G14G31G 3
  21077356.129    -6467369.38449  -5022580.38147  21077355.610    21077363.472
  23341246.541    -8023435.23449  -5738955.39145  23341246.302    23341256.416
  22325817.573     9610120.13049   7617827.95846  22325817.078    22325824.678
  23290265.112    13888783.50449  10829613.08045  23290264.416    23290277.924
  22490823.762    10361817.39049   8084398.08546  22490823.057    22490833.340
  20422317.366   -25882823.83349 -20133741.28047  20422316.884    20422323.505
  22701932.470   -11442267.18249  -8892019.86846  22701931.940    22701940.835
  22278992.757    -7364850.29549  -5720658.58746  22278992.354    22279001.650
 02  7 11 19 35  0.0000000  0  8G21G 9G18G17G15G14G31G 3
  21078990.923    -6458778.37349  -5015886.10047  21078990.419    21078998.299
  23347313.433    -7991553.48449  -5714112.50345  23347313.182    23347323.342
  22337680.369     9672459.45749   7666403.98446  22337679.896    22337687.529
  23308503.335    13984625.58649  10904294.97745  23308502.729    23308516.207
  22507615.492    10450058.36649   8153157.14346  22507614.812    22507625.184
  20415916.343   -25916461.34549 -20159952.30447  20415915.886    20415922.482
  22700178.205   -11451485.76849  -8899203.18246  22700177.724    22700186.633
  22289480.017    -7309739.55149  -5677715.24146  22289479.674    22289488.981
 02  7 11 19 35 30.0000000  0  8G21G 9G18G17G15G14G31G 3
  21080654.150    -6450038.21249  -5009075.59447  21080653.637    21080661.550
  23353492.221    -7959084.07349  -5688811.68745  23353492.034    23353502.067
  22349564.033     9734908.42149   7715065.44546  22349563.569    22349571.262
  23326790.949    14080726.79049  10979178.79445  23326790.428    23326803.953
  22524463.357    10538594.20949   8222145.96646  22524462.709    22524473.156
  20409612.787   -25949586.49749 -20185764.07948  20409612.319    20409618.925
  22698532.369   -11460134.82749  -8905942.72746  22698531.894    22698540.811
  22300045.738    -7254216.75949  -5634450.82246  22300045.380    22300054.703
 02  7 11 19 36  0.0000000  0  8G21G 9G18G17G15G14G31G 3
  21082345.638    -6441149.30349  -5002149.18147  21082345.116    21082353.036
  23359782.521    -7926028.59449  -5663054.19745  23359782.239    23359792.335
  22361468.363     9797466.22149   7763811.71346  22361467.938    22361475.663
  23345127.420    14177084.87249  11054262.77745  23345126.924    23345140.459
  22541366.988    10627422.90949   8291362.99946  22541366.287    22541376.885
  20403406.661   -25982199.67249 -20211176.91448  20403406.196    20403412.818
  22696994.787   -11468215.03749  -8912238.99946  22696994.288    22697003.257
  22310689.213    -7198285.36349  -5590867.99246  22310688.812    22310698.193
 02  7 11 19 36 30.0000000  0  8G21G 9G18G17G15G14G31G 3
  21084065.626    -6432110.69349  -4995106.12047  21084065.116    21084073.062
  23366184.318    -7892386.70949  -5636839.75645  23366184.127    23366194.299
  22373393.539     9860133.27249   7812643.11246  22373393.122    22373400.874
  23363512.696    14273699.46649  11129546.62845  23363512.256    23363525.755
  22558326.227    10716543.93549   8360807.80146  22558325.546    22558336.229
  20397298.130   -26014300.15149 -20236190.24748  20397297.685    20397304.290
  22695565.535   -11475725.75549  -8918091.51446  22695565.027    22695574.081
  22321410.080    -7141946.88049  -5546967.97146  22321409.700    22321419.146
 02  7 11 19 37  0.0000000  0  8G21G 9G18G17G15G14G31G 3
  21085814.031    -6422922.64549  -4987946.61447  21085813.545    21085821.510
  23372697.548    -7858159.40749  -5610169.15745  23372697.368    23372707.615
  22385339.387     9922908.91749   7861559.11046  22385338.992    22385346.790
  23381946.564    14370568.98949  11205029.12745  23381946.035    23381959.658
  22575340.761    10805955.81749   8430479.25946  22575340.127    22575350.904
  20391287.185   -26045887.62449 -20260803.84048  20391286.736    20391293.368
  22694244.569   -11482667.39249  -8923500.59646  22694244.061    22694253.125
  22332207.876    -7085203.94549  -5502752.77946  22332207.544    22332217.081
 02  7 11 19 37 30.0000000  0  8G21G 9G18G17G15G14G31G 3
  21087590.807    -6413585.52349  -4980670.94447  21087590.335    21087598.314
  23379321.981    -7823347.85749  -5583043.28945  23379321.822    23379331.994
  22397305.851     9985792.85349   7910559.50646  22397305.398    22397313.253
  23400428.600    14467691.92849  11280709.08845  23400428.051    23400441.830
  22592410.435    10895657.27149   8500376.34846  22592409.840    22592420.657
  20385373.905   -26076962.07249 -20285017.66748  20385373.460    20385380.111
  22693031.860   -11489040.26449  -8928466.48246  22693031.341    22693040.324
  22343082.270    -7028058.87749  -5458224.24646  22343081.936    22343091.525
 02  7 11 19 38  0.0000000  0  8G21G 9G18G17G15G14G31G 3
  21089396.034    -6404098.97349  -4973278.83647  21089395.545    21089403.568
  23386057.442    -7787953.05649  -5555462.94245  23386057.290    23386067.415
  22409292.808    10048784.53849   7959643.85346  22409292.390    22409300.246
  23418958.554    14565066.85749  11356585.41945  23418958.032    23418971.963
  22609535.008    10985646.92949   8570498.01746  22609534.395    22609545.334
  20379558.175   -26107523.80349 -20308831.98148  20379557.736    20379564.389
  22691927.286   -11494844.84849  -8932989.53846  22691926.766    22691935.769
  22354032.604    -6970514.48849  -5413384.55246  22354032.236    22354041.981
 02  7 11 19 38 30.0000000  0  8G21G 9G18G17G15G14G31G 3
  21091229.677    -6394462.96949  -4965770.27647  21091229.206    21091237.211
  23392903.763    -7751975.52949  -5527428.53145  23392903.600    23392913.746
  22421300.300    10111883.99749   8008812.18346  22421299.857    22421307.736
  23437536.191    14662692.59149  11432657.16545  23437535.701    23437549.744
  22626714.299    11075924.00949   8640843.64646  22626713.671    22626724.652
  20373840.091   -26137572.54149 -20332246.56348  20373839.654    20373846.313
  22690930.845   -11500081.03549  -8937069.70046  22690930.346    22690939.398
  22365058.458    -6912573.28449  -5368235.65646  22365058.112    22365067.897
 02  7 11 19 39  0.0000000  0  8G21G 9G18G17G15G14G31G 3
  21093091.751    -6384677.77749  -4958145.46447  21093091.287    21093099.295
  23399860.765    -7715416.33149  -5498940.87145  23399860.594    23399870.793
  22433328.214    10175090.60649   8058064.00446  22433327.770    22433335.639
  23456161.354    14760567.63149  11508923.19345  23456160.937    23456174.913
  22643947.974    11166486.92849   8711412.01246  22643947.352    22643958.356
  20368219.618   -26167108.23849 -20355261.36848  20368219.175    20368225.841
  22690042.529   -11504749.50449  -8940707.47246  22690041.991    22690051.068
  22376159.400    -6854237.74849  -5322779.49046  22376159.087    22376168.900
 02  7 11 19 39 30.0000000  0  8G21G 9G18G17G15G14G31G 3
  21094982.186    -6374743.41349  -4950404.41947  21094981.708    21094989.728
  23406928.242    -7678276.76549  -5470000.98945  23406928.041    23406938.198
  22445376.382    10238403.89149   8107398.95546  22445375.989    22445383.860
  23474833.744    14858690.34949  11585382.21145  23474833.171    23474847.222
  22661235.730    11257334.16149   8782201.91346  22661235.132    22661246.142
  20362696.754   -26196131.02349 -20377876.50748  20362696.319    20362702.994
  22689262.048   -11508850.78649  -8943903.28446  22689261.541    22689270.647
  22387334.913    -6795510.75149  -5277018.29446  22387334.611    22387344.394
 02  7 11 19 40  0.0000000  0  8G21G 9G18G17G15G14G31G 3
  21096901.109    -6364659.42049  -4942546.77947  21096900.649    21096908.651
  23414105.893    -7640557.98349  -5440609.75045  23414105.682    23414115.835
  22457444.822    10301823.64549   8156816.86346  22457444.455    22457452.299
  23493552.893    14957059.05949  11662032.90345  23493552.302    23493566.500
  22678577.333    11348464.36049   8853212.32346  22678576.758    22678587.777
  20357271.441   -26224641.09749 -20400092.12648  20357271.005    20357277.675
  22688589.484   -11512385.32949  -8946657.48746  22688588.937    22688598.058
  22398584.402    -6736394.83149  -5230954.03446  22398584.073    22398593.861
 02  7 11 19 40 30.0000000  0  8G21G 9G18G17G15G14G31G 3
  21098848.637    -6354425.22449  -4934572.09647  21098848.181    21098856.188
  23421393.694    -7602260.55849  -5410767.62345  23421393.507    23421403.581
  22469533.494    10365349.85049   8206317.72146  22469533.096    22469541.009
  23512318.760    15055673.08849  11738874.77045  23512318.140    23512332.426
  22695972.634    11439876.55949   8924442.46446  22695972.016    22695983.067
  20351943.772   -26252638.13849 -20421907.98048  20351943.343    20351949.986
  22688024.795   -11515353.13949  -8948970.07546  22688024.228    22688033.294
  22409907.462    -6676892.09249  -5184588.35546  22409907.134    22409916.960
 02  7 11 19 41  0.0000000  0  8G21G 9G18G17G15G14G31G 3
  21100824.803    -6344040.66749  -4926480.25247  21100824.343    21100832.323
  23428791.350    -7563385.56949  -5380475.46845  23428791.166    23428801.280
  22481642.394    10428982.13549   8255901.24146  22481642.003    22481649.929
  23531130.943    15154530.67149  11815906.40845  23531130.287    23531144.641
  22713421.234    11531569.11949   8995891.06446  22713420.635    22713431.679
  20346713.728   -26280122.10949 -20443324.04348  20346713.294    20346719.923
  22687567.736   -11517754.79649  -8950841.50646  22687567.204    22687576.233
  22421303.572    -6617005.42949  -5137923.52646  22421303.265    22421313.114
 02  7 11 19 41 30.0000000  0  8G21G 9G18G17G15G14G31G 3
  21102829.499    -6333506.03349  -4918271.46647  21102829.025    21102837.006
  23436298.861    -7523933.76549  -5349733.82645  23436298.598    23436308.758
  22493771.488    10492720.49449   8305567.41746  22493771.076    22493778.970
  23549989.216    15253630.57749  11893126.85845  23549988.462    23550003.023
  22730923.096    11623541.18149   9067557.46546  22730922.469    22730933.469
  20341581.358   -26307092.97249 -20464340.28648  20341580.917    20341587.531
  22687218.468   -11519590.33749  -8952271.80446  22687217.946    22687226.981
  22432772.338    -6556737.10249  -5090961.29246  22432771.995    22432781.879
 02  7 11 19 42  0.0000000  0  8G21G 9G18G17G15G14G31G 3
  21104862.724    -6322821.38949  -4909945.78347  21104862.258    21104870.241
  23443915.753    -7483906.78949  -5318544.01145  23443915.505    23443925.808
  22505920.570    10556564.03049   8355315.54646  22505920.156    22505928.080
  23568893.263    15352971.17049  11970534.87745  23568892.614    23568907.183
  22748477.816    11715790.93449   9139440.23246  22748477.107    22748488.069
  20336546.526   -26333551.03149 -20484956.93148  20336546.082    20336552.693
  22686976.654   -11520860.73949  -8953261.73546  22686976.153    22686985.217
  22444313.239    -6496089.98849  -5043703.90146  22444312.865    22444322.791
 02  7 11 19 42 30.0000000  0  8G21G 9G18G17G15G14G31G 3
  21106924.621    -6311986.19649  -4901502.79447  21106924.160    21106932.136
  23451642.012    -7443305.28349  -5286906.51145  23451641.746    23451652.082
  22518089.715    10620512.90149   8405145.76146  22518089.311    22518097.213
  23587842.889    15452551.14149  12048129.41745  23587842.446    23587856.774
  22766085.198    11808317.55049   9211538.74146  22766084.487    22766095.408
  20331609.324   -26359496.20749 -20505173.93848  20331608.890    20331615.471
  22686842.402   -11521566.13649  -8953811.40446  22686841.936    22686851.042
  22455925.676    -6435066.68749  -4996153.38646  22455925.316    22455935.227
 02  7 11 19 43  0.0000000  0  8G21G 9G18G17G15G14G31G 3
  21109015.177    -6301000.45049  -4892942.48547  21109014.703    21109022.671
  23459477.389    -7402130.38749  -5254822.20945  23459477.172    23459487.372
  22530278.921    10684567.02349   8455057.98346  22530278.492    22530286.390
  23606837.815    15552369.09449  12125909.40545  23606837.297    23606851.725
  22783744.973    11901119.48749   9283851.79246  22783744.242    22783755.158
  20326769.699   -26384928.51949 -20524991.30148  20326769.250    20326775.817
  22686815.634   -11521707.12849  -8953921.27546  22686815.085    22686824.248
  22467609.251    -6373669.61649  -4948311.60846  22467608.888    22467618.769
 02  7 11 19 43 30.0000000  0  8G21G 9G18G17G15G14G31G 3
  21111134.333    -6289864.36649  -4884265.02847  21111133.856    21111141.797
  23467421.542    -7360383.56349  -5222292.26045  23467421.302    23467431.564
  22542487.963    10748725.58349   8505051.59646  22542487.530    22542495.415
  23625877.620    15652423.17049  12203873.37545  23625877.095    23625891.564
  22801456.849    11994195.14149   9356378.10546  22801456.130    22801467.045
  20322027.676   -26409848.23849 -20544409.24348  20322027.233    20322033.762
  22686896.070   -11521284.50249  -8953591.97146  22686895.509    22686904.672
  22479363.359    -6311901.79949  -4900180.95246  22479362.981    22479372.842
 02  7 11 19 44  0.0000000  0  8G21G 9G18G17G15G14G31G 3
  21113282.348    -6278576.83049  -4875469.55847  21113281.839    21113289.760
  23475474.386    -7318065.48349  -5189317.17145  23475474.237    23475484.468
  22554716.956    10812988.96149   8555126.87546  22554716.505    22554724.422
  23644962.302    15752712.70749  12282020.84145  23644961.794    23644976.194
  22819220.607    12087543.73249   9429117.12246  22819219.912    22819230.885
  20317383.178   -26434255.33049 -20563427.73748  20317382.719    20317389.195
  22687083.791   -11520298.26349  -8952823.49046  22687083.229    22687092.378
  22491187.661    -6249765.24949  -4851762.97346  22491187.305    22491197.108
 02  7 11 19 44 30.0000000  0  8G21G 9G18G17G15G14G31G 3
  21115458.956    -6267138.78149  -4866556.79847  21115458.462    21115466.368
  23483635.708    -7275178.23649  -5155898.58445  23483635.546    23483645.678
  22566965.621    10877355.83849   8605282.79946  22566965.125    22566973.070
  23664091.312    15853235.04149  12360349.69045  23664090.820    23664105.141
  22837035.955    12181162.94349   9502066.99746  22837035.199    22837046.157
  20312836.045   -26458150.88049 -20582047.62148  20312835.556    20312842.016
  22687378.490   -11518750.04849  -8951617.10546  22687377.955    22687386.960
  22503081.414    -6187263.60349  -4803060.49946  22503081.071    22503090.918
 02  7 11 19 45  0.0000000  0  8G21G 9G18G17G15G14G31G 3
  21117664.342    -6255549.42149  -4857526.13747  21117663.846    21117671.764
  23491905.184    -7231722.26349  -5122036.83845  23491905.013    23491915.064
  22579234.133    10941826.99649   8655519.98046  22579233.652    22579241.651
  23683264.496    15953989.50749  12438859.42545  23683263.857    23683278.266
  22854902.616    12275052.17949   9575227.26846  22854901.910    22854912.838
  20308386.390   -26481534.03149 -20600268.23648  20308385.887    20308392.326
  22687780.134   -11516639.70849  -8949972.70646  22687779.587    22687788.508
  22515044.317    -6124398.68149  -4754074.96146  22515043.960    22515053.833
 02  7 11 19 45 30.0000000  0  9G21G 9G18G17G15G14G25G31G 3
  21119898.196    -6243810.61249  -4848379.02547  21119897.679    21119905.615
  23500282.230    -7187701.01149  -5087734.59945  23500281.954    23500292.031
  22591521.997    11006399.82749   8705836.38446  22591521.515    22591529.539
  23702481.155    16054972.46149  12517547.19945  23702480.564    23702495.016
  22872819.957    12369207.74249   9648595.07546  22872819.226    22872830.224
  20304033.752   -26504407.16549 -20618091.43748  20304033.250    20304039.672
  24577769.064    -2878647.68259  -1605035.89845  24577768.736    24577786.375
  22688288.192   -11513969.93349  -8947892.38146  22688287.685    22688296.565
  22527075.433    -6061175.34349  -4704810.13646  22527075.040    22527084.921
 02  7 11 19 46  0.0000000  0  9G21G 9G18G17G15G14G25G31G 3
  21122160.484    -6231922.33049  -4839115.44047  21122159.963    21122167.868
  23508766.477    -7143116.13749  -5052993.18645  23508766.150    23508776.227
  22603829.172    11071074.04449   8756231.78746  22603828.684    22603836.718
  23721740.974    16156182.17049  12596411.67045  23721740.370    23721754.802
  22890787.722    12463628.14749   9722169.25746  22890787.028    22890797.951
  20299778.096   -26526770.75249 -20635517.58448  20299777.596    20299784.002
  24558802.020    -2978319.26149  -1682701.73145  24558801.607    24558819.300
  22688902.562   -11510741.62649  -8945376.83946  22688902.020    22688910.852
  22539174.132    -5997596.56749  -4655268.36546  22539173.784    22539183.639
 02  7 11 19 46 30.0000000  0  9G21G 9G18G17G15G14G25G31G 3
  21124452.037    -6219880.52549  -4829732.22647  21124451.507    21124459.384
  23517358.566    -7097964.61749  -5017810.23445  23517358.231    23517368.425
  22616156.410    11135853.52049   8806709.22646  22616155.881    22616163.918
  23741044.440    16257621.22249  12675454.84245  23741043.757    23741058.140
  22908806.369    12558315.98949   9795951.82946  22908805.614    22908816.602
  20295620.148   -26548621.05649 -20652543.76948  20295619.645    20295625.998
  24539825.564    -3078040.21449  -1760406.04945  24539825.083    24539842.695
  22689623.829   -11506951.48749  -8942423.50846  22689623.281    22689632.061
  22551340.844    -5933660.83549  -4605448.42046  22551340.501    22551350.302
 02  7 11 19 47  0.0000000  0  9G21G 9G18G17G15G14G25G31G 3
  21126772.632    -6207685.88849  -4820229.92747  21126772.100    21126779.948
  23526058.018    -7052248.76849  -4982187.54545  23526057.719    23526067.935
  22628503.350    11200736.68249   8857267.43646  22628502.813    22628510.846
  23760390.983    16359287.19649  12754674.84545  23760390.233    23760404.635
  22926875.463    12653268.85549   9869940.90946  22926874.724    22926885.741
  20291559.640   -26569959.30949 -20669170.95748  20291559.116    20291565.443
  24520840.004    -3177808.93549  -1838147.59245  24520839.477    24520856.944
  22690451.712   -11502601.06949  -8939033.60046  22690451.177    22690459.942
  22563574.784    -5869371.95949  -4555353.31246  22563574.442    22563584.221
 02  7 11 19 47 30.0000000  0  9G21G 9G18G17G15G14G25G31G 3
  21129122.224    -6195338.67849  -4810608.73547  21129121.664    21129129.538
  23534864.581    -7005970.37149  -4946126.50645  23534864.262    23534874.421
  22640869.885    11265723.03349   8907906.06846  22640869.392    22640877.425
  23779780.341    16461177.85449  12834069.92645  23779779.820    23779794.134
  22944994.592    12748484.92749   9944135.08646  22944993.911    22945004.909
  20287596.377   -26590786.26349 -20685399.72648  20287595.840    20287602.146
  24501845.772    -3277623.44349  -1915924.80545  24501845.136    24501862.637
  22691385.933   -11497691.72849  -8935208.16146  22691385.411    22691394.215
  22575875.242    -5804733.27349  -4504985.62546  22575874.867    22575884.666
 02  7 11 19 48  0.0000000  0  9G21G 9G18G17G15G14G25G31G 3
  21131500.878    -6182838.74249  -4800868.53647  21131500.337    21131508.217
  23543777.891    -6959130.67349  -4909628.07945  23543777.623    23543787.844
  22653256.143    11330812.69449   8958625.19246  22653255.677    22653263.704
  23799212.253    16563291.94249  12913639.11045  23799211.688    23799226.279
  22963163.621    12843962.92649  10018533.35946  22963162.893    22963173.945
  20283730.435   -26611101.95949 -20701230.10748  20283729.906    20283736.181
  24482843.237    -3377481.18849  -1993735.72545  24482842.552    24482860.161
  22692426.378   -11492224.04349  -8930947.64946  22692425.841    22692434.733
  22588241.819    -5739747.03349  -4454347.11846  22588241.465    22588251.250
 02  7 11 19 48 30.0000000  0  9G21G 9G18G17G15G14G25G31G 3
  21133908.575    -6170186.28049  -4791009.49047  21133908.030    21133915.920
  23552797.705    -6911731.37649  -4872693.61445  23552797.417    23552807.650
  22665661.910    11396004.81049   9009424.15246  22665661.419    22665669.417
  23818686.267    16665627.57449  12993380.92545  23818685.896    23818700.188
  22981382.130    12939701.04349  10093134.31446  22981381.351    22981392.465
  20279961.623   -26630907.08749 -20716662.65448  20279961.095    20279967.342
  24463832.827    -3477380.02949  -2071578.65245  24463832.102    24463849.846
  22693572.904   -11486199.17449  -8926252.96946  22693572.347    22693581.257
  22600673.890    -5674416.50549  -4403440.33546  22600673.509    22600683.348
 02  7 11 19 49  0.0000000  0  9G21G 9G18G17G15G14G25G31G 3
  21136345.364    -6157381.10549  -4781031.43947  21136344.823    21136352.679
  23561923.715    -6863774.13249  -4835324.37245  23561923.410    23561933.592
  22678087.074    11461298.95749   9060302.63146  22678086.538    22678094.534
  23838202.104    16768182.96149  13073293.97545  23838201.826    23838216.086
  22999649.752    13035697.50049  10167936.58846  22999648.964    22999660.133
  20276289.868   -26650202.32549 -20731697.87848  20276289.347    20276295.558
  24444814.964    -3577317.91049  -2149451.99745  24444814.328    24444831.893
  22694825.240   -11479618.13249  -8921124.91046  22694824.680    22694833.678
  22613170.982    -5608744.53949  -4352267.50046  22613170.528    22613180.433
 02  7 11 19 49 30.0000000  0  9G21G 9G18G17G15G14G25G31G 3
  21138811.284    -6144422.87549  -4770934.12947  21138810.736    21138818.552
  23571155.706    -6815260.46549  -4797521.56245  23571155.349    23571165.481
  22690531.592    11526694.85649   9111260.38446  22690531.042    22690539.051
  23857759.519    16870956.56049  13153377.05445  23857759.086    23857773.600
  23017966.269    13131950.98849  10242939.13746  23017965.514    23017976.715
  20272715.047   -26668988.04649 -20746336.08048  20272714.522    20272720.706
  24425790.261    -3677291.80549  -2227353.41245  24425789.718    24425807.180
  22696183.355   -11472481.83649  -8915564.18246  22696182.730    22696191.676
  22625732.455    -5542733.95749  -4300830.80346  22625731.992    22625741.937
 02  7 11 19 50  0.0000000  0  9G21G 9G18G17G15G14G25G31G 3
  21141306.229    -6131312.09749  -4760717.95147  21141305.679    21141313.479
  23580493.060    -6766192.52549  -4759286.84845  23580492.584    23580502.815
  22702995.339    11592191.82249   9162296.88446  22702994.803    22703002.798
  23877357.951    16973945.94649  13233628.28745  23877357.549    23877371.978
  23036331.332    13228459.40949  10318140.32345  23036330.609    23036341.803
  20269237.019   -26687265.30249 -20760578.07748  20269236.480    20269242.660
  24406759.216    -3777299.88149  -2305281.45745  24406758.803    24406776.102
  22697646.770   -11464791.81249  -8909571.98646  22697646.156    22697655.086
  22638357.680    -5476388.11849  -4249132.87346  22638357.241    22638367.245
 02  7 11 19 50 30.0000000  0  9G21G 9G18G17G15G14G25G31G 3
  21143830.391    -6118047.44049  -4750381.87247  21143829.831    21143837.621
  23589935.834    -6716570.63049  -4720620.48545  23589935.338    23589945.648
  22715478.433    11657790.75449   9213412.85546  22715477.872    22715485.890
  23896997.397    17077150.85049  13314047.47745  23896996.873    23897011.581
  23054744.847    13325222.40349  10393539.87745  23054744.152    23054755.358
  20265855.844   -26705033.41849 -20774423.34748  20265855.320    20265861.482
  24387722.326    -3877338.34349  -2383233.19145  24387721.942    24387739.070
  22699215.525   -11456547.86249  -8903148.14546  22699214.930    22699223.825
  22651046.384    -5409708.87149  -4197175.15046  22651045.947    22651056.014
 02  7 11 19 51  0.0000000  0  9G21G 9G18G17G15G14G25G31G 3
  21146383.863    -6104628.97749  -4739925.94047  21146383.304    21146391.096
  23599483.612    -6666396.62249  -4681523.89845  23599483.238    23599493.487
  22727980.843    11723491.02249   9264607.78746  22727980.287    22727988.322
  23916677.370    17180569.15349  13394632.91845  23916676.909    23916691.685
  23073206.420    13422237.81349  10469136.12545  23073205.741    23073216.905
  20262571.442   -26722293.06249 -20787872.40148  20262570.924    20262577.059
  24368680.003    -3977405.25149  -2461207.06845  24368679.455    24368696.629
  22700889.464   -11447751.20849  -8896293.63446  22700888.862    22700897.805
  22663797.952    -5342699.30149  -4144960.02946  22663797.549    22663807.626
 02  7 11 19 51 30.0000000  0  9G21G 9G18G17G15G14G25G31G 3
  21148966.585    -6091056.79449  -4729350.23047  21148966.015    21148973.807
  23609136.165    -6615672.15549  -4641998.39745  23609135.805    23609146.116
  22740502.556    11789292.60349   9315881.66446  22740502.038    22740510.020
  23936397.775    17284199.38849  13475383.51645  23936397.217    23936412.195
  23091715.779    13519504.31949  10544928.03445  23091715.089    23091726.298
  20259383.739   -26739044.57449 -20800925.51448  20259383.211    20259389.349
  24349632.731    -4077497.99849  -2539201.09045  24349632.160    24349649.424
  22702668.434   -11438402.73949  -8889009.12946  22702667.820    22702676.771
  22676611.851    -5275362.35549  -4092489.81646  22676611.458    22676621.554
 02  7 11 19 52  0.0000000  0  9G21G 9G18G17G15G14G25G31G 3
  21151578.641    -6077330.26949  -4718654.25947  21151578.087    21151585.886
  23618893.221    -6564398.66049  -4602045.05445  23618892.870    23618903.211
  22753043.484    11855195.27049   9367234.31246  22753042.966    22753050.980
  23956158.124    17388040.11849  13556298.12345  23956157.636    23956172.780
  23110272.660    13617020.73649  10620914.68845  23110271.891    23110283.193
  20256292.608   -26755288.50349 -20813583.10948  20256292.071    20256298.230
  24330580.980    -4177613.76249  -2617213.04945  24330580.650    24330597.547
  22704552.222   -11428503.36249  -8881295.35346  22704551.646    22704560.615
  22689487.535    -5207700.53749  -4039766.45946  22689487.154    22689497.311
 02  7 11 19 52 30.0000000  0  9G21G 9G18G17G15G14G25G31G 3
  21154220.103    -6063449.42249  -4707838.03247  21154219.529    21154227.360
  23628754.448    -6512577.83849  -4561665.22745  23628754.054    23628764.426
  22765603.508    11921198.23149   9418665.10746  22765602.990    22765610.998
  23975958.229    17492089.36249  13637375.22345  23975957.959    23975972.961
  23128876.713    13714785.11449  10697094.53845  23128875.961    23128887.246
  20253297.925   -26771025.52849 -20825845.71348  20253297.384    20253303.568
  24311525.301    -4277750.43549  -2695241.28645  24311525.022    24311541.701
  22706540.577   -11418054.38549  -8873153.30746  22706540.039    22706549.041
  22702424.460    -5139717.06949  -3986792.45946  22702424.118    22702434.333
 02  7 11 19 53  0.0000000  0  9G21G 9G18G17G15G14G25G31G 3
  21156890.986    -6049413.91549  -4696901.29247  21156890.420    21156898.247
  23638719.517    -6460211.15149  -4520860.05545  23638719.235    23638729.518
  22778182.676    11987301.75649   9470174.25846  22778182.182    22778190.139
  23995797.701    17596345.64949  13718613.65545  23995797.285    23995812.600
  23147527.736    13812796.31549  10773466.72445  23147526.980    23147538.371
  20250399.643   -26786256.11449 -20837713.69148  20250399.100    20250405.280
  24292466.193    -4377905.32049  -2773283.71445  24292465.997    24292482.704
  22708633.382   -11407056.78349  -8864583.76746  22708632.830    22708641.862
  22715422.107    -5071414.63949  -3933569.92746  22715421.731    22715431.980
 02  7 11 19 53 30.0000000  0  9G21G 9G18G17G15G14G25G31G 3
  21159591.303    -6035223.81049  -4685844.08747  21159590.740    21159598.542
  23648788.066    -6407300.59949  -4479631.08945  23648787.715    23648798.152
  22790780.912    12053505.31649   9521761.36146  22790780.421    22790788.408
  24015676.196    17700806.91449  13800011.78545  24015675.544    24015691.179
  23166225.333    13911052.05949  10850029.46645  23166224.526    23166235.963
  20247597.605   -26800980.91449 -20849187.55448  20247597.060    20247603.218
  24273404.086    -4478076.44149  -2851338.79145  24273403.863    24273420.391
  22710830.384   -11395511.89549  -8855587.78046  22710829.750    22710838.837
  22728479.902    -5002796.28849  -3880101.22246  22728479.491    22728489.759
 02  7 11 19 54  0.0000000  0  9G21G 9G18G17G15G14G25G31G 3
  21162321.219    -6020878.27549  -4674665.76647  21162320.650    21162328.426
  23658959.936    -6353847.36949  -4437979.25345  23658959.602    23658969.956
  22803398.269    12119809.25449   9573426.68546  22803397.766    22803405.801
  24035593.554    17805472.11849  13881568.84545  24035592.934    24035608.567
  23184969.272    14009551.48349  10926782.07845  23184968.430    23184979.970
  20244891.809   -26815200.07449 -20860267.41048  20244891.283    20244897.388
  24254339.507    -4578260.39749  -2929403.86145  24254339.231    24254355.669
  22713131.402   -11383420.04749  -8846165.59246  22713130.797    22713139.829
  22741597.386    -4933864.04249  -3826387.91646  22741597.000    22741607.277
 02  7 11 19 54 30.0000000  0  9G21G 9G18G17G15G14G25G31G 3
  21165080.659    -6006377.45349  -4663366.44247  21165080.090    21165087.859
  23669234.719    -6299853.06649  -4395905.78745  23669234.440    23669244.728
  22816034.552    12186213.13649   9625169.87546  22816034.078    22816042.158
  24055549.412    17910339.80349  13963283.66745  24055548.710    24055564.357
  23203759.325    14108293.33749  11003723.60545  23203758.522    23203770.089
  20242282.113   -26828914.07549 -20870953.64048  20242281.580    20242287.684
  24235272.896    -4678454.42349  -3007476.78445  24235272.690    24235288.978
  22715536.317   -11370782.39149  -8836318.09746  22715535.672    22715544.673
  22754774.089    -4864620.69249  -3772432.20546  22754773.698    22754783.982
 02  7 11 19 55  0.0000000  0  9G21G 9G18G17G15G14G25G31G 3
  21167869.572    -5991721.57349  -4651946.29647  21167869.009    21167876.780
  23679612.083    -6245319.91349  -4353412.44645  23679611.786    23679622.110
  22828689.721    12252716.25249   9676990.40546  22828689.207    22828697.445
  24075543.305    18015407.55649  14045154.39845  24075542.768    24075558.357
  23222595.102    14207275.22549  11080852.16945  23222594.342    23222605.900
  20239768.304   -26842124.24149 -20881247.27248  20239767.760    20239773.863
  24216204.752    -4778656.72249  -3085556.13845  24216204.620    24216220.721
  22718044.819   -11357600.75849  -8826046.73146  22718044.185    22718053.061
  22768009.249    -4795070.03649  -3718237.03346  22768008.855    22768019.193
 02  7 11 19 55 30.0000000  0  9G21G 9G18G17G15G14G25G31G 3
  21170688.133    -5976910.11249  -4640404.91747  21170687.558    21170695.352
  23690091.558    -6190249.92349  -4310500.78045  23690091.290    23690101.668
  22841363.793    12319318.54449   9728888.19546  22841363.253    22841371.526
  24095574.884    18120673.60049  14127179.63345  24095574.182    24095589.900
  23241476.196    14306495.47349  11158166.46345  23241475.491    23241487.080
  20237350.262   -26854830.98349 -20891148.62248  20237349.724    20237355.820
  24197135.555    -4878864.82649  -3163640.02045  24197135.452    24197151.489
  22720656.517   -11343876.42349  -8815352.46546  22720655.907    22720664.734
  22781302.315    -4725215.16249  -3663804.80246  22781301.893    22781312.273
 02  7 11 19 56  0.0000000  0  9G21G 9G18G17G15G14G25G31G 3
  21173536.531    -5961941.76949  -4628741.30547  21173535.966    21173543.745
  23700673.102    -6134643.50949  -4267171.13245  23700672.936    23700683.115
  22854056.900    12386020.94949   9780864.00446  22854056.366    22854064.681
  24115644.191    18226137.39849  14209358.95245  24115643.357    24115659.176
  23260402.548    14405953.63549  11235666.13945  23260401.838    23260413.562
  20235028.142   -26867033.86149 -20900657.35748  20235027.612    20235033.708
  24178065.975    -4979074.79949  -3241725.35845  24178065.844    24178081.717
  22723371.454   -11329609.31449  -8804235.27946  22723370.858    22723379.722
  22794653.021    -4655057.39049  -3609136.56046  22794652.570    22794662.953
 02  7 11 19 56 30.0000000  0  9G21G 9G18G17G15G14G25G31G 3
  21176414.800    -5946816.57649  -4616955.46147  21176414.223    21176422.007
  23711356.351    -6078502.93149  -4223425.24245  23711356.120    23711366.363
  22866768.920    12452822.66949   9832917.19146  22866768.395    22866776.658
  24135750.756    18331796.82549  14291690.71345  24135749.917    24135765.715
  23279373.864    14505647.92049  11313349.82545  23279373.166    23279384.914
  20232801.675   -26878733.92349 -20909774.27948  20232801.143    20232807.245
  24158996.526    -5079284.31049  -3319810.34245  24158996.256    24159012.238
  22726189.398   -11314801.01449  -8792696.38346  22726188.737    22726197.710
  22808060.722    -4584600.10949  -3554234.92446  22808060.238    22808070.623
 02  7 11 19 57  0.0000000  0  9G21G 9G18G17G15G14G25G31G 3
  21179322.902    -5931534.45049  -4605047.33747  21179322.310    21179330.111
  23722140.934    -6021829.95249  -4179264.49345  23722140.664    23722150.958
  22879499.836    12519723.72349   9885047.78946  22879499.342    22879507.613
  24155894.222    18437650.22849  14374173.63645  24155893.362    24155909.433
  23298389.787    14605576.44349  11391216.01245  23298389.081    23298400.830
  20230670.837   -26889931.59349 -20918499.72848  20230670.308    20230676.410
  24139927.594    -5179491.08749  -3397893.21045  24139927.387    24139943.150
  22729110.071   -11299452.90549  -8780736.84846  22729109.405    22729118.452
  22821524.823    -4513846.43449  -3499102.34246  22821524.347    22821534.698
 02  7 11 19 57 30.0000000  0  9G21G 9G18G17G15G14G25G31G 3
  21182260.964    -5916094.98249  -4593016.60647  21182260.386    21182268.178
  23733026.431    -5964626.36549  -4134690.27845  23733026.118    23733036.391
  22892249.549    12586723.83049   9937255.56446  22892249.056    22892257.390
  24176074.258    18543695.77649  14456806.26645  24176073.472    24176089.414
  23317450.003    14705737.61649  11469263.49245  23317449.285    23317461.090
  20228635.366   -26900628.11549 -20926834.66848  20228634.847    20228640.936
  24120859.677    -5279692.57549  -3475971.96445  24120859.467    24120875.158
  22732133.160   -11283566.24749  -8768357.67246  22732132.512    22732141.627
  22835044.719    -4442799.25449  -3443741.04546  22835044.297    22835054.681
 02  7 11 19 58  0.0000000  0  9G21G 9G18G17G15G14G25G31G 3
  21185228.910    -5900498.40049  -4580863.45047  21185228.342    21185236.146
  23744012.534    -5906894.23249  -4089704.22345  23744012.133    23744022.534
  22905018.130    12653822.69349   9989540.28346  22905017.606    22905026.008
  24196290.479    18649931.68249  14539587.23245  24196289.656    24196305.683
  23336554.122    14806129.72649  11547490.90945  23336553.270    23336565.204
  20226695.068   -26910824.30849 -20934779.74448  20226694.561    20226700.637
  24101793.093    -5379886.64849  -3554044.94945  24101792.817    24101808.552
  22735258.550   -11267142.42949  -8755559.92546  22735257.918    22735266.949
  22848619.875    -4371461.79849  -3388153.56446  22848619.480    22848629.854
 02  7 11 19 58 30.0000000  0  8G21G 9G18G15G14G25G31G 3
  21188226.859    -5884744.11949  -4568587.40947  21188226.296    21188234.078
  23755098.813    -5848635.30849  -4044307.66445  23755098.377    23755108.912
  22917805.435    12721020.22549  10041901.90346  22917804.914    22917813.386
  23355701.899    14906751.02749  11625896.92345  23355701.074    23355712.979
  20224849.972   -26920520.47149 -20942335.17848  20224849.448    20224855.530
  24082728.600    -5480070.09549  -3632109.66445  24082728.345    24082743.929
  22738485.916   -11250182.73749  -8742344.62746  22738485.304    22738494.213
  22862249.884    -4299836.40349  -3332341.72546  22862249.464    22862259.875
 02  7 11 19 59  0.0000000  0  8G21G 9G18G15G14G25G31G 3
  21191255.032    -5868831.04549  -4556187.64147  21191254.460    21191262.230
  23766285.099    -5789850.90049  -3998501.66145  23766284.653    23766295.107
  22930611.724    12788316.87849  10094340.73046  22930611.158    22930619.572
  23374893.178    15007600.71149  11704480.89945  23374892.329    23374904.248
  20223099.935   -26929717.01649 -20949501.30748  20223099.420    20223105.466
  24063666.778    -5580239.80949  -3710163.68645  24063666.431    24063682.001
  22741815.140   -11232687.73449  -8728712.20246  22741814.529    22741823.391
  22875934.114    -4227925.78349  -3276307.62746  22875933.661    22875944.123
 02  7 11 19 59 30.0000000  0  8G21G 9G18G15G14G25G31G 3
  21194313.301    -5852759.80949  -4543664.62747  21194312.743    21194320.496
  23777571.058    -5730543.30349  -3952287.96045  23777570.640    23777581.038
  22943436.710    12855712.08349  10146856.39046  22943436.139    22943444.554
  23394127.452    15108676.50749  11783241.06345  23394126.603    23394138.584
  20221444.782   -26938415.01549 -20956278.95548  20221444.265    20221450.265
  24044607.964    -5680393.90149  -3788205.54045  24044607.645    24044622.917
  22745245.849   -11214659.43149  -8714664.22246  22745245.304    22745254.092
  22889672.007    -4155733.43349  -3220053.98446  22889671.560    22889681.988
 02  7 11 20  0  0.0000000  0  8G21G 9G18G15G14G25G31G 3
  21197401.678    -5836530.42849  -4531018.38647  21197401.115    21197408.851
  23788956.129    -5670714.68949  -3905668.28945  23788955.758    23788966.025
  22956280.301    12923205.09149  10199448.23746  22956279.738    22956288.177
  23413404.428    15209976.69749  11862176.08345  23413403.498    23413415.542
  20219884.308   -26946615.41049 -20962668.86548  20219883.776    20219889.763
  24025552.503    -5780530.08549  -3866233.46045  24025552.207    24025567.466
  22748777.791   -11196099.28249  -8700201.81646  22748777.209    22748786.034
  22903462.947    -4083262.34649  -3163583.15946  22903462.483    22903472.911
 02  7 11 20  0 30.0000000  0  8G21G 9G18G15G14G25G31G 3
  21200520.377    -5820141.66549  -4518247.94647  21200519.806    21200527.545
  23800439.980    -5610366.50749  -3858643.74545  23800439.669    23800449.994
  22969142.555    12990796.27649  10252116.57946  22969141.964    22969150.400
  23432723.823    15311500.25749  11941285.15045  23432722.924    23432734.940
  20218418.472   -26954318.46349 -20968671.23248  20218417.931    20218423.897
  24006501.025    -5880644.87949  -3944244.71845  24006500.646    24006515.987
  22752410.739   -11177008.11549  -8685325.62646  22752410.195    22752419.073
  22917306.453    -4010514.83549  -3106896.93146  22917305.999    22917316.445
 02  7 11 20  1  0.0000000  0  8G21G 9G18G15G14G25G31G 3
  21203669.567    -5803592.65349  -4505352.63647  21203668.995    21203676.749
  23812022.492    -5549500.13349  -3811215.42845  23812022.160    23812032.439
  22982023.580    13058486.15749  10304861.85246  22982023.006    22982031.413
  23452085.447    15413245.78849  12020567.17345  23452084.509    23452096.704
  20217047.179   -26961524.68149 -20974286.45748  20217046.640    20217052.611
  23987454.159    -5980735.50249  -4022237.16145  23987453.802    23987469.143
  22756144.539   -11157387.00349  -8670036.49646  22756143.960    22756152.999
  22931202.050    -3937493.42749  -3049997.28646  22931201.609    22931212.171
 02  7 11 20  1 30.0000000  0  8G21G 9G18G15G14G25G31G 3
  21206849.107    -5786884.13449  -4492333.03047  21206848.544    21206856.274
  23823703.142    -5488118.05849  -3763385.26745  23823702.854    23823713.089
  22994923.211    13126273.99149  10357683.43646  22994922.597    22994931.084
  23471488.909    15515211.23849  12100020.58045  23471488.007    23471500.323
  20215770.151   -26968235.37649 -20979515.55748  20215769.614    20215775.574
  23968412.416    -6080799.37749  -4100208.75345  23968412.044    23968427.345
  22759978.701   -11137237.79449  -8654335.85046  22759978.145    22759987.407
  22945149.114    -3864201.53649  -2992886.87046  22945148.714    22945159.317
 02  7 11 20  2  0.0000000  0  8G21G 9G18G15G14G25G31G 3
  21210059.180    -5770015.41849  -4479188.59547  21210058.602    21210066.368
  23835481.530    -5426222.40849  -3715154.91245  23835481.260    23835491.450
  23007841.374    13194159.25449  10410580.95846  23007840.784    23007849.310
  23490933.909    15617394.78749  12179643.90945  23490933.055    23490945.390
  20214587.287   -26974451.37649 -20984359.18248  20214586.743    20214592.703
  23949376.234    -6180834.29449  -4178157.79445  23949375.863    23949391.065
  22763913.095   -11116562.17249  -8638225.02146  22763912.531    22763921.937
  22959147.126    -3790642.19349  -2935568.05646  22959146.733    22959157.399
 02  7 11 20  2 30.0000000  0  8G21G 9G18G15G14G25G31G 3
  21213299.693    -5752986.40249  -4465919.25147  21213299.109    21213306.906
  23847357.169    -5363815.40349  -3666526.10245  23847356.968    23847367.150
  23020778.121    13262142.12049  10463554.52246  23020777.577    23020786.156
  23510420.021    15719794.39649  12259435.60245  23510419.315    23510431.523
  20213498.335   -26980173.76649 -20988818.17948  20213497.807    20213503.749
  23930346.036    -6280837.80649  -4256082.37845  23930345.637    23930360.773
  22767947.422   -11095361.62849  -8621705.18146  22767946.889    22767956.279
  22973195.391    -3716818.63149  -2878043.36046  22973194.988    22973205.774
 02  7 11 20  3  0.0000000  0  9G21G 9G18G15G14G25G11G31G 3
  21216570.473    -5735798.20749  -4452525.87247  21216569.894    21216577.747
  23859329.419    -5300900.41849  -3617501.47645  23859329.111    23859339.545
  23033733.123    13330220.64749  10516602.61746  23033732.588    23033741.183
  23529946.739    15822407.10449  12339393.35245  23529945.957    23529958.347
  20212502.887   -26985404.94449 -20992894.41248  20212502.336    20212508.271
  23911322.054    -6380808.65149  -4333981.51345  23911321.677    23911336.738
  24697386.389    -5902020.07159  -4260756.28745  24697386.036    24697395.226
  22772081.024   -11073639.32049  -8604778.75546  22772080.457    22772089.838
  22987293.097    -3642735.13849  -2820316.12546  22987292.678    22987303.516
 02  7 11 20  3 30.0000000  0  9G21G 9G18G15G14G25G11G31G 3
  21219871.863    -5718449.21549  -4439007.19647  21219871.299    21219879.200
  23871398.203    -5237478.52849  -3568081.85545  23871397.925    23871408.360
  23046706.455    13398395.69949  10569725.93946  23046705.938    23046714.579
  23549513.830    15925232.18149  12419516.57245  23549513.081    23549525.550
  20211600.971   -26990144.59949 -20996587.64048  20211600.420    20211606.357
  23892304.965    -6480743.40249  -4411852.54345  23892304.582    23892319.561
  24678094.137    -6003401.17849  -4339754.47545  24678093.801    24678103.027
  22776313.800   -11051395.72949  -8587446.12946  22776313.217    22776322.619
  23001439.866    -3568393.79149  -2762387.95746  23001439.455    23001450.375
 02  7 11 20  4  0.0000000  0  9G21G 9G18G15G14G25G11G31G 3
  21223204.285    -5700937.14049  -4425361.44347  21223203.742    21223211.654
  23883563.556    -5173549.39249  -3518266.97845  23883563.204    23883573.651
  23059698.596    13466669.54649  10622926.23846  23059698.113    23059706.709
  23569121.482    16028270.31649  12499805.80945  23569120.617    23569133.215
  20210792.821   -26994391.43249 -20999896.84848  20210792.280    20210798.193
  23873295.711    -6580636.82049  -4489691.36445  23873295.362    23873310.173
  24658817.128    -6104702.43449  -4418690.42345  24658816.707    24658826.030
  22780646.021   -11028629.93749  -8569706.59846  22780645.457    22780654.821
  23015635.587    -3493795.48949  -2704259.57046  23015635.187    23015646.148
 02  7 11 20  4 30.0000000  0  9G21G 9G18G15G14G25G11G31G 3
  21226567.633    -5683262.84549  -4411589.28547  21226567.063    21226574.994
  23895824.868    -5109116.09649  -3468059.24245  23895824.485    23895834.937
  23072709.266    13535040.98149  10676202.59046  23072708.846    23072717.424
  23588769.194    16131518.90349  12580259.04145  23588768.275    23588780.914
  20210078.094   -26998147.42949 -21002823.59048  20210077.525    20210083.454
  23854294.596    -6680487.49449  -4567496.88245  23854294.246    23854308.952
  24639555.393    -6205922.86749  -4497563.39645  24639554.932    24639564.322
  22785077.174   -11005344.66949  -8551562.30346  22785076.640    22785085.910
  23029879.462    -3418943.94049  -2645933.83846  23029879.046    23029890.110
 02  7 11 20  5  0.0000000  0  9G21G 9G18G15G14G25G11G31G 3
  21229961.886    -5665426.04449  -4397690.50347  21229961.294    21229969.256
  23908181.601    -5044180.83649  -3417460.36845  23908181.161    23908191.758
  23085738.588    13603509.96649  10729554.95146  23085738.146    23085746.696
  23608456.553    16234976.07149  12660874.78545  23608455.666    23608468.424
  20209456.558   -27001413.43549 -21005368.52248  20209456.005    20209461.937
  23835302.090    -6780292.78549  -4645267.04945  23835301.704    23835316.416
  24620309.474    -6307060.07449  -4576371.51945  24620308.975    24620318.605
  22789606.896   -10981541.34249  -8533014.31946  22789606.334    22789615.603
  23044171.034    -3343841.94449  -2587412.96046  23044170.642    23044181.743
 02  7 11 20  5 30.0000000  0  9G21G 9G18G15G14G25G11G31G 3
  21233387.168    -5647426.04049  -4383664.54447  21233386.602    21233394.571
  23920633.440    -4978745.78449  -3366472.05945  23920633.101    23920643.691
  23098786.364    13672076.19749  10782983.09446  23098785.903    23098794.562
  23628183.233    16338640.00649  12741651.63845  23628182.369    23628195.198
  20208928.033   -27004190.67249 -21007532.60048  20208927.481    20208933.404
  23816318.750    -6880049.89549  -4722999.67845  23816318.416    23816332.984
  24601079.783    -6408112.16149  -4655113.29745  24601079.357    24601088.972
  22794234.768   -10957221.80849  -8514064.09446  22794234.240    22794243.547
  23058509.632    -3268492.72449  -2528699.44246  23058509.256    23058520.316
 02  7 11 20  6  0.0000000  0  9G21G 9G18G15G14G25G11G31G 3
  21236843.545    -5629262.83549  -4369511.41747  21236842.970    21236850.952
  23933179.872    -4912813.48949  -3315096.29445  23933179.624    23933190.161
  23111852.560    13740739.30049  10836486.71746  23111852.117    23111860.776
  23647948.936    16442508.67649  12822588.05745  23647948.066    23647960.957
  20208492.325   -27006480.32249 -21009316.73548  20208491.772    20208497.708
  23797344.964    -6979756.92549  -4800693.28845  23797344.701    23797359.188
  24581866.558    -6509077.86249  -4733787.78545  24581866.169    24581875.594
  22798960.446   -10932388.00249  -8494713.13046  22798959.938    22798969.404
  23072894.703    -3192899.52649  -2469795.81946  23072894.307    23072905.364
 02  7 11 20  6 30.0000000  0  9G21G 9G18G15G14G25G11G31G 3
  21240331.084    -5610935.72749  -4355230.58047  21240330.495    21240338.468
  23945820.848    -4846385.32449  -3263334.11845  23945820.503    23945831.124
  23124937.323    13809499.64749  10890066.09946  23124936.889    23124945.561
  23667753.442    16546581.16649  12903683.27245  23667752.575    23667765.574
  20208149.294   -27008282.69749 -21010721.18348  20208148.760    20208154.714
  23778381.373    -7079410.07549  -4878344.92145  23778381.179    23778395.561
  24562670.343    -6609954.12449  -4812392.55945  24562670.037    24562679.389
  22803783.739   -10907040.80649  -8474962.11746  22803783.279    22803792.930
  23087325.700    -3117064.71449  -2410703.92946  23087325.297    23087336.351
 02  7 11 20  7  0.0000000  0  9G21G 9G18G15G14G25G11G31G 3
  21243849.780    -5592444.82149  -4340822.10447  21243849.209    21243857.198
  23958555.639    -4779463.86849  -3211187.58445  23958555.307    23958565.924
  23138040.467    13878356.97049  10943721.06546  23138040.038    23138048.761
  23687596.330    16650855.37749  12984935.67745  23687595.469    23687608.505
  20207898.766   -27009599.08549 -21011746.93648  20207898.243    20207904.241
  23759428.473    -7179007.25649  -4955952.95045  23759428.231    23759442.554
  24543491.495    -6710739.27749  -4890926.35545  24543491.084    24543500.383
  22808704.456   -10881182.45849  -8454812.81546  22808704.002    22808713.687
  23101802.034    -3040991.70049  -2351426.42046  23101801.595    23101812.704
 02  7 11 20  7 30.0000000  0  9G21G 9G18G15G14G25G11G31G 3
  21247399.658    -5573790.06049  -4326285.95147  21247399.092    21247407.098
  23971383.772    -4712051.68549  -3158658.67545  23971383.496    23971393.968
  23151161.965    13947310.59349  10997451.04346  23151161.514    23151170.314
  23707477.210    16755329.02149  13066343.48945  23707476.415    23707489.364
  20207740.444   -27010430.99149 -21012395.17148  20207739.933    20207745.937
  23740486.724    -7278545.92749  -5033515.37945  23740486.513    23740500.837
  24524330.359    -6811431.68549  -4969387.86945  24524330.119    24524339.277
  22813722.194   -10854814.88249  -8434266.71146  22813721.659    22813731.340
  23116322.995    -2964683.88349  -2291965.95546  23116322.593    23116333.774
 02  7 11 20  8  0.0000000  0  9G21G 9G18G15G14G25G11G31G 3
  21250980.831    -5554970.78149  -4311621.60347  21250980.282    21250988.305
  23984304.850    -4644150.82449  -3105748.95445  23984304.551    23984315.201
  23164301.801    14016360.58549  11051256.11946  23164301.348    23164310.280
  23727395.738    16860000.63049  13147905.54445  23727394.866    23727407.998
  20207674.160   -27010779.20449 -21012666.50048  20207673.649    20207679.662
  23721556.711    -7378023.27949  -5111030.03545  23721556.458    23721570.823
  24505187.174    -6912029.13849  -5047775.40045  24505186.982    24505196.230
  22818836.497   -10827939.66849  -8413325.03946  22818835.938    22818845.537
  23130888.201    -2888143.92849  -2232324.59346  23130887.790    23130899.054
 02  7 11 20  8 30.0000000  0  9G21G 9G18G15G14G25G11G31G 3
  21254593.511    -5535986.01749  -4296828.30747  21254592.961    21254601.005
  23997318.614    -4575762.77549  -3052459.63645  23997318.422    23997329.086
  23177460.019    14085507.43249  11105136.67446  23177459.649    23177468.591
  23747351.607    16964868.89449  13229620.86045  23747350.781    23747363.990
  20207699.848   -27010644.19649 -21012561.29748  20207699.331    20207705.356
  23702638.937    -7477436.50149  -5188494.72445  23702638.705    23702652.910
  24486062.590    -7012528.91549  -5126086.83045  24486062.581    24486071.597
  22824047.224   -10800557.80349  -8391988.57546  22824046.641    22824056.137
  23145497.082    -2811374.38349  -2172504.35446  23145496.666    23145507.979
 02  7 11 20  9  0.0000000  0  9G21G 9G18G15G14G25G11G31G 3
  21258237.696    -5516835.57349  -4281905.91247  21258237.159    21258245.214
  24010424.633    -4506890.51249  -2998792.97845  24010424.379    24010435.074
  23190636.552    14154750.35049  11159092.08546  23190636.137    23190645.216
  23767344.537    17069931.59449  13311487.67045  23767343.631    23767357.010
  20207817.105   -27010027.88549 -21012081.05148  20207816.600    20207822.646
  23683733.754    -7576783.29949  -5265907.62845  23683733.513    23683747.650
  24466956.979    -7112929.33349  -5204320.82945  24466956.938    24466966.066
  22829353.720   -10772671.96049  -8370259.40346  22829353.178    22829362.619
  23160148.927    -2734378.82849  -2112507.99346  23160148.522    23160159.860
 02  7 11 20  9 30.0000000  0  9G21G 9G18G15G14G25G11G31G 3
  21261913.683    -5497518.23449  -4266853.46747  21261913.154    21261921.193
  24023622.579    -4437535.56349  -2944750.20745  24023622.372    24023633.003
  23203831.491    14224089.84649  11213122.75245  23203831.032    23203840.222
  23787374.252    17175187.42549  13393504.96845  23787373.374    23787386.821
  20208025.939   -27008930.45349 -21011225.90348  20208025.425    20208031.502
  23664841.752    -7676060.63449  -5343266.41845  23664841.482    23664855.551
  24447870.734    -7213227.87549  -5282475.45245  24447870.662    24447879.714
  22834755.978   -10744283.23049  -8348138.38046  22834755.428    22834764.922
  23174843.304    -2657159.91549  -2052337.58846  23174842.979    23174854.231
 02  7 11 20 10  0.0000000  0  9G21G 9G18G15G14G25G11G31G 3
  21265621.316    -5478034.46849  -4251671.34447  21265620.797    21265628.803
  24036911.800    -4367700.46149  -2890333.30945  24036911.692    24036922.213
  23217044.766    14293525.38549  11267228.24445  23217044.294    23217053.491
  23807440.286    17280634.45549  13475671.25145  23807439.582    23807452.957
  20208326.026   -27007353.46049 -21009997.07848  20208325.527    20208331.611
  23645963.422    -7775266.08949  -5420569.18845  23645963.181    23645977.212
  24428804.242    -7313422.80949  -5360549.32845  24428804.111    24428813.148
  22840253.510   -10715393.67549  -8325627.10046  22840252.972    22840262.390
  23189579.678    -2579720.54849  -1991995.39246  23189579.338    23189590.608
 02  7 11 20 10 30.0000000  0  9G21G 9G18G15G14G25G11G31G 3
  21269360.813    -5458383.62949  -4236359.03547  21269360.298    21269368.283
  24050291.974    -4297387.37849  -2835543.94845  24050291.760    24050302.502
  23230276.370    14363057.39249  11321408.93245  23230275.944    23230284.963
  23827542.463    17386271.17449  13557985.34245  23827541.796    23827555.074
  20208717.211   -27005297.80149 -21008395.26148  20208716.706    20208722.781
  23627099.419    -7874396.45049  -5497813.43645  23627099.140    23627113.109
  24409757.885    -7413511.80749  -5438540.65945  24409757.587    24409766.738
  22845846.087   -10686004.83149  -8302726.77246  22845845.590    22845854.980
  23204357.450    -2502063.57649  -1931483.65046  23204357.088    23204368.422
 02  7 11 20 11  0.0000000  0  9G21G 9G18G15G14G25G11G31G 3
  21273132.073    -5438565.77649  -4220916.58847  21273131.537    21273139.503
  24063762.612    -4226599.01649  -2780384.25245  24063762.414    24063773.148
  23243526.218    14432685.32549  11375664.37145  23243525.791    23243534.800
  23847680.441    17492095.59149  13640445.66945  23847679.764    23847693.113
  20209199.266   -27002764.59449 -21006421.33048  20209198.753    20209204.798
  23608250.155    -7973449.52649  -5574997.47645  23608249.869    23608263.762
  24390732.067    -7513492.90849  -5516447.93245  24390731.688    24390740.841
  22851533.286   -10656118.87049  -8279439.06646  22851532.793    22851542.136
  23219175.948    -2424192.31449  -1870804.91546  23219175.649    23219186.978
 02  7 11 20 11 30.0000000  0  9G21G 9G18G15G14G25G11G31G 3
  21276935.250    -5418580.11249  -4205343.37647  21276934.715    21276942.690
  24077323.312    -4155337.31349  -2724855.71445  24077323.106    24077333.702
  23256794.402    14502409.43349  11429994.73245  23256793.966    23256802.986
  23867853.823    17598106.00049  13723050.95045  23867853.149    23867866.404
  20209772.001   -26999754.94049 -21004076.13948  20209771.486    20209777.518
  23589416.155    -8072422.13449  -5652118.79045  23589415.908    23589429.720
  24371727.231    -7613363.75549  -5594269.28745  24371726.845    24371736.000
  22857314.803   -10625737.27249  -8255765.15646  22857314.320    22857323.588
  23234034.783    -2346109.65349  -1809961.46746  23234034.462    23234045.808
 02  7 11 20 12  0.0000000  0  9G21G 9G18G15G14G25G11G31G 3
  21280770.380    -5398426.52549  -4189639.31347  21280769.839    21280777.799
  24090973.598    -4083604.79849  -2668960.30845  24090973.416    24090983.895
  23270080.740    14572229.18349  11484399.62145  23270080.308    23270089.332
  23888062.198    17704300.21949  13805799.44845  23888061.469    23888074.696
  20210435.059   -26996270.29849 -21001360.82448  20210434.557    20210440.590
  23570597.966    -8171311.87049  -5729175.54345  23570597.695    23570611.504
  24352743.757    -7713122.52249  -5672003.31845  24352743.357    24352752.475
  22863190.213   -10594862.34149  -8231706.83546  22863189.683    22863198.950
  23248933.135    -2267818.85449  -1748955.83046  23248932.808    23248944.199
 02  7 11 20 12 30.0000000  0  9G21G 9G18G15G14G25G11G31G 3
  21284637.630    -5378104.25349  -4173803.81347  21284637.092    21284645.030
  24104713.178    -4011403.29549  -2612699.46145  24104712.924    24104723.432
  23283385.425    14642144.99849  11538879.37145  23283384.888    23283394.009
  23908305.257    17810677.23649  13888690.38345  23908304.465    23908317.822
  20211188.424   -26992311.32349 -20998275.90048  20211187.926    20211193.979
  23551796.124    -8270115.71349  -5806165.36045  23551795.801    23551809.544
  24333782.143    -7812766.58849  -5749647.96745  24333781.634    24333790.688
  22869159.195   -10563495.37649  -8207265.11046  22869158.670    22869167.934
  23263870.671    -2189322.39049  -1687789.94446  23263870.327    23263881.753
 02  7 11 20 13  0.0000000  0  9G21G 9G18G15G14G25G11G31G 3
  21288537.133    -5357612.62849  -4157836.34247  21288536.593    21288544.513
  24118541.587    -3938734.98949  -2556074.87045  24118541.261    24118551.836
  23296708.369    14712156.95249  11593434.02645  23296707.874    23296716.928
  23928582.747    17917235.23949  13971722.33945  23928581.867    23928595.363
  20212031.854   -26987878.98349 -20994822.11948  20212031.352    20212037.401
  23533011.128    -8368831.03849  -5883086.18545  23533010.806    23533024.476
  24314842.629    -7912293.60849  -5827201.40845  24314842.195    24314851.229
  22875221.415   -10531638.17449  -8182441.37646  22875220.875    22875230.128
  23278846.775    -2110623.15049  -1626466.04646  23278846.390    23278857.902
 02  7 11 20 13 30.0000000  0  9G21G 9G18G15G14G25G11G31G 3
  21292468.874    -5336951.40949  -4141736.72847  21292468.321    21292476.235
  24132458.330    -3865602.40549  -2499088.50145  24132458.047    24132468.446
  23310049.556    14782264.68249  11648063.32145  23310049.049    23310058.075
  23948894.319    18023972.15149  14054893.70245  23948893.466    23948906.973
  20212965.034   -26982974.98549 -20991000.82048  20212964.526    20212970.579
  23514243.469    -8467455.21849  -5959935.98645  23514243.079    23514256.706
  24295925.834    -8011701.90249  -5904662.32745  24295925.341    24295934.474
  22881376.542   -10499293.03349  -8157237.44446  22881376.053    22881385.252
  23293860.778    -2031724.50649  -1564986.76746  23293860.386    23293872.033
 02  7 11 20 14  0.0000000  0  9G21G 9G18G15G14G25G11G31G 3
  21296433.007    -5316119.98149  -4125504.48147  21296432.457    21296440.368
  24146463.074    -3792007.80849  -2441742.11645  24146462.762    24146473.071
  23323408.960    14852468.34049  11702767.36745  23323408.510    23323417.521
  23969239.653    18130886.44349  14138203.28945  23969238.701    23969252.189
  20213987.886   -26977599.95749 -20986812.48048  20213987.378    20213993.414
  23495493.689    -8565985.44749  -6036712.57845  23495493.359    23495506.826
  24277032.085    -8110988.79149  -5982028.64945  24277031.551    24277040.724
  22887624.309   -10466461.51849  -8131654.51246  22887623.707    22887632.995
  23308912.254    -1952629.10849  -1503354.17045  23308911.816    23308923.558
 02  7 11 20 14 30.0000000  0  9G21G 9G18G15G14G25G11G31G 3
  21300429.467    -5295118.71049  -4109139.88447  21300428.900    21300436.816
  24160555.092    -3717954.05449  -2384037.95045  24160554.696    24160565.133
  23336786.431    14922767.22649  11757545.60145  23336785.999    23336795.004
  23989618.251    18237975.79549  14221649.27445  23989617.374    23989630.807
  20215099.964   -26971755.87649 -20982258.64448  20215099.478    20215105.513
  23476762.166    -8664419.61049  -6113414.30045  23476761.776    23476775.248
  24258161.722    -8210152.86549  -6059299.27345  24258161.164    24258170.512
  22893964.094   -10433146.23949  -8105694.63146  22893963.508    22893972.747
  23324000.509    -1873340.42149  -1441570.95945  23324000.071    23324011.948
 02  7 11 20 15  0.0000000  0  9G21G 9G18G15G14G25G11G31G 3
  21304458.575    -5273945.73549  -4092641.49247  21304458.011    21304465.938
  24174734.138    -3643442.79849  -2325977.27745  24174733.800    24174744.270
  23350182.298    14993162.29049  11812398.77745  23350181.805    23350190.832
  24010030.007    18345239.33849  14305230.98245  24010029.182    24010042.657
  20216301.291   -26965442.90249 -20977339.44248  20216300.806    20216306.846
  23458049.613    -8762754.00749  -6190038.29845  23458049.250    23458062.581
  24239315.386    -8309190.96349  -6136471.75045  24239314.851    24239324.068
  22900395.692   -10399348.26249  -8079358.62546  22900395.126    22900404.327
  23339125.167    -1793860.65549  -1379638.87545  23339124.700    23339136.612
 02  7 11 20 15 30.0000000  0  9G21G 9G18G15G14G25G11G31G 3
  21308520.319    -5252601.24549  -4076009.44947  21308519.749    21308527.699
  24188999.700    -3568476.87349  -2267562.33845  24188999.364    24189009.939
  23363596.345    15063652.97649  11867326.47645  23363595.819    23363604.852
  24030474.442    18452674.64249  14388946.53545  24030473.669    24030487.182
  20217591.524   -26958662.73549 -20972056.18748  20217591.023    20217597.052
  23439356.543    -8860986.14049  -6266582.58545  23439356.192    23439369.433
  24220493.287    -8408101.16749  -6213544.54845  24220492.872    24220501.823
  22906918.752   -10365069.89249  -8052648.26646  22906918.150    22906927.355
  23354285.560    -1714193.27249  -1317560.58745  23354285.064    23354297.038
 02  7 11 20 16  0.0000000  0  9G21G 9G18G15G14G25G11G31G 3
  21312614.837    -5231084.51949  -4059243.19347  21312614.284    21312622.254
  24203351.380    -3493058.27449  -2208794.65945  24203351.119    24203361.551
  23377028.553    15134239.46649  11922328.81445  23377028.000    23377037.060
  24050951.205    18560280.16449  14472794.70445  24050950.573    24050964.119
  20218970.444   -26951416.38749 -20966409.67748  20218969.938    20218975.986
  23420683.419    -8959113.15549  -6343044.97845  23420683.109    23420696.265
  24201696.045    -8506881.18449  -6290515.90745  24201695.635    24201704.537
  22913532.739   -10330312.94249  -8025565.02746  22913532.152    22913541.453
  23369481.070    -1634340.95749  -1255338.19645  23369480.655    23369492.547
